[[{"header":{"parameterUnit":"m.s-1","parameterCategory":1,"la1":31.0,"la2":29.5877,"lo1":-88.7671,"lo2":-86.6584,"dy":0.0162,"dx":0.0185,"nx":115,"ny":88,"refTime":"2023-09-09T06:00:00:Z","depth":0,"parameterNumber":2,"parameterNumberName":"U-component_of_WINDS"},"data":[0.0,0.0,0.0,0.0,0.0,0.0,0.0,0.0,0.0,0.0,0.0,0.0,0.0,0.0,0.0,0.0,0.0,0.0,0.0,0.0,0.0,0.0,0.0,0.0,0.0,0.0,0.0,0.0,0.0,0.0,0.0,0.0,0.0,0.0,0.0,0.0,0.0,0.0,0.0,0.0,0.0,0.0,0.0,0.0,0.0,0.0,0.0,0.0,0.0,0.0,0.0,0.0,0.0,0.0,0.0,0.0,0.0,0.0,0.0,0.0,0.0,0.0,0.0,0.0,0.0,0.0,0.0,0.0,0.0,0.0,0.0,0.0,0.0,0.0,0.0,0.0,0.0,0.0,0.0,0.0,0.0,0.0,0.0,0.0,0.0,0.0,0.0,0.0,0.0,0.0,0.0,0.0,0.0,0.0,0.0,0.0,0.0,0.0,0.0,0.0,0.0,0.0,0.0,0.0,0.0,0.0,0.0,0.0,0.0,0.0,0.0,0.0,0.0,0.0,0.0,0.0,0.0,0.0,0.0,0.0,0.0,0.0,0.0,0.0,0.0,0.0,0.0,0.0,0.0,0.0,0.0,0.0,0.0,0.0,0.0,0.0,0.0,0.0,0.0,0.0,0.0,0.0,0.0,0.0,0.0,0.0,0.0,0.0,0.0,0.0,0.0,0.0,0.0,0.0,0.0,0.0,0.0,0.0,0.0,0.0,0.0,0.0,0.0,0.0,0.0,0.0,0.0,0.0,0.0,0.0,0.0,0.0,0.0,0.0,0.0,0.0,0.0,0.0,0.0,0.0,0.0,0.0,0.0,0.0,0.0,0.0,0.0,0.0,0.0,0.0,0.0,0.0,0.0,0.0,0.0,0.0,0.0,0.0,0.0,0.0,0.0,0.0,0.0,0.0,0.0,0.0,0.0,0.0,0.0,0.0,0.0,0.0,0.0,0.0,0.0,0.0,0.0,0.0,0.0,0.0,0.0,0.0,0.0,0.0,0.0,0.0,0.0,0.0,0.0,0.0,0.0,0.0,0.0,0.0,0.0,0.0,0.0,0.0,0.0,0.0,0.0,0.0,0.0,0.0,0.0,0.0,0.0,0.0,0.0,0.0,0.0,0.0,0.0,0.0,0.0,0.0,0.0,0.0,0.0,0.0,0.0,0.0,0.0,0.0,0.0,0.0,0.0,0.0,0.0,0.0,0.0,0.0,0.0,0.0,0.0,0.0,0.0,0.0,0.0,0.0,0.0,0.0,0.0,0.0,0.0,0.0,0.0,0.0,0.0,0.0,0.0,0.0,0.0,0.0,0.0,0.0,0.0,0.0,0.0,0.0,0.0,0.0,0.0,0.0,0.0,0.0,0.0,0.0,0.0,0.0,0.0,0.0,0.0,0.0,0.0,0.0,0.0,0.0,0.0,0.0,0.0,0.0,0.0,0.0,0.0,0.0,0.0,0.0,0.0,0.0,0.0,0.0,0.0,0.0,0.0,0.0,0.0,0.0,0.0,0.0,0.0,0.0,0.0,0.0,0.0,0.0,0.0,0.0,0.0,0.0,0.0,0.0,0.0,0.0,0.0,0.0,0.0,0.0,0.0,0.0,0.0,0.0,0.0,0.0,0.0,0.0,0.0,0.0,0.0,0.0,0.0,0.0,0.0,0.0,0.0,0.0,0.0,0.0,0.0,0.0,0.0,0.0,0.0,0.0,0.0,0.0,0.0,0.0,0.0,0.0,0.0,0.0,0.0,0.0,0.0,0.0,0.0,0.0,0.0,0.0,0.0,0.0,0.0,0.0,0.0,0.0,0.0,0.0,0.0,0.0,0.0,0.0,0.0,0.0,0.0,0.0,0.0,0.0,0.0,0.0,0.0,0.0,0.0,0.0,0.0,0.0,0.0,0.0,0.0,0.0,0.0,0.0,0.0,0.0,0.0,0.0,0.0,0.0,0.0,0.0,0.0,0.0,0.0,0.0,0.0,0.0,0.0,0.0,0.0,0.0,0.0,0.0,0.0,0.0,0.0,0.0,0.0,0.0,0.0,0.0,0.0,0.0,0.0,0.0,0.0,0.0,0.0,0.0,0.0,0.0,0.0,0.0,0.0,0.0,0.0,0.0,0.0,0.0,0.0,0.0,0.0,0.0,0.0,0.0,0.0,0.0,0.0,0.0,0.0,0.0,0.0,0.0,0.0,0.0,0.0,0.0,0.0,0.0,0.0,0.0,0.0,0.0,0.0,0.0,0.0,0.0,0.0,0.0,0.0,0.0,0.0,0.0,0.0,0.0,0.0,0.0,0.0,0.0,0.0,0.0,0.0,0.0,0.0,0.0,0.0,0.0,0.0,0.0,0.0,0.0,0.0,0.0,0.0,0.0,0.0,0.0,0.0,0.0,0.0,0.0,0.0,0.0,0.0,0.0,0.0,0.0,0.0,0.0,0.0,0.0,0.0,0.0,0.0,0.0,0.0,0.0,0.0,0.0,0.0,0.0,0.0,0.0,0.0,0.0,0.0,0.0,0.0,0.0,0.0,0.0,0.0,0.0,0.0,0.0,0.0,0.0,0.0,0.0,0.0,0.0,0.0,0.0,0.0,0.0,0.0,0.0,0.0,0.0,0.0,0.0,0.0,0.0,0.0,0.0,0.0,0.0,0.0,0.0,0.0,0.0,0.0,0.0,0.0,0.0,0.0,0.0,0.0,0.0,0.0,0.0,0.0,0.0,0.0,0.0,0.0,0.0,0.0,0.0,0.0,0.0,0.0,0.0,0.0,0.0,0.0,0.0,0.0,0.0,0.0,0.0,0.0,0.0,0.0,0.0,0.0,0.0,0.0,0.0,0.0,0.0,0.0,0.0,0.0,0.0,0.0,0.0,0.0,0.0,0.0,0.0,0.0,0.0,0.0,0.0,0.0,0.0,0.0,0.0,0.0,0.0,0.0,0.0,0.0,0.0,0.0,0.0,0.0,0.0,0.0,0.0,0.0,0.0,0.0,0.0,0.0,0.0,0.0,0.0,0.0,0.0,0.0,0.0,0.0,0.0,0.0,0.0,0.0,0.0,0.0,0.0,0.0,0.0,0.0,0.0,0.0,0.0,0.0,0.0,0.0,0.0,0.0,0.0,0.0,0.0,0.0,0.0,0.0,0.0,0.0,0.0,0.0,0.0,0.0,0.0,0.0,0.0,0.0,0.0,0.0,0.0,0.0,0.0,0.0,0.0,0.0,0.0,0.0,0.0,0.0,0.0,0.0,0.0,0.0,0.0,0.0,0.0,0.0,0.0,0.0,0.0,0.0,0.0,0.0,0.0,0.0,0.0,0.0,0.0,0.0,0.0,0.0,0.0,0.0,0.0,0.0,0.0,0.0,0.0,0.0,0.0,0.0,0.0,0.0,0.0,0.0,0.0,0.0,0.0,0.0,0.0,0.0,0.0,0.0,0.0,0.0,0.0,0.0,0.0,0.0,0.0,0.0,0.0,0.0,0.0,0.0,0.0,0.0,0.0,0.0,0.0,0.0,0.0,0.0,0.0,0.0,0.0,0.0,0.0,0.0,0.0,0.0,0.0,0.0,0.0,0.0,0.0,0.0,0.0,0.0,0.0,0.0,0.0,0.0,0.0,0.0,0.0,0.0,0.0,0.0,0.0,0.0,0.0,0.0,0.0,0.0,0.0,0.0,0.0,0.0,0.0,0.0,0.0,0.0,0.0,0.0,0.0,0.0,0.0,0.0,0.0,0.0,0.0,0.0,0.0,0.0,0.0,0.0,0.0,0.0,0.0,0.0,0.0,0.0,0.0,0.0,0.0,0.0,0.0,0.0,0.0,0.0,0.0,0.0,0.0,0.0,0.0,0.0,0.0,0.0,0.0,0.0,0.0,0.0,0.0,0.0,0.0,0.0,0.0,0.0,0.0,0.0,0.0,0.0,0.0,0.0,0.0,0.0,0.0,0.0,0.0,0.0,0.0,0.0,0.0,0.0,0.0,0.0,0.0,0.0,0.0,0.0,0.0,0.0,0.0,0.0,0.0,0.0,0.0,0.0,0.0,0.0,0.0,0.0,0.0,0.0,0.0,0.0,0.0,0.0,0.0,0.0,0.0,0.0,0.0,0.0,0.0,0.0,0.0,0.0,0.0,0.0,0.0,0.0,0.0,0.0,0.0,0.0,0.0,0.0,0.0,0.0,0.0,0.0,0.0,0.0,0.0,0.0,0.0,0.0,0.0,0.0,0.0,0.0,0.0,0.0,0.0,0.0,0.0,0.0,0.0,0.0,0.0,0.0,0.0,0.0,0.0,3.567,0.0,0.0,0.0,0.0,0.0,0.0,0.0,0.0,0.0,0.0,0.0,0.0,0.0,0.0,0.0,0.0,0.0,0.0,0.0,0.0,0.0,0.0,0.0,0.0,0.0,0.0,0.0,0.0,0.0,0.0,0.0,0.0,0.0,0.0,0.0,0.0,0.0,0.0,0.0,0.0,0.0,0.0,0.0,0.0,0.0,0.0,0.0,0.0,0.0,0.0,0.0,0.0,0.0,0.0,0.0,0.0,0.0,0.0,0.0,0.0,0.0,0.0,0.0,0.0,0.0,0.0,0.0,0.0,0.0,0.0,0.0,0.0,0.0,0.0,0.0,0.0,0.0,0.0,0.0,0.0,0.0,0.0,0.0,0.0,0.0,0.0,0.0,0.0,0.0,0.0,0.0,0.0,0.0,0.0,0.0,0.0,0.0,0.0,0.0,0.0,0.0,0.0,0.0,0.0,0.0,0.0,0.0,0.0,0.0,0.0,3.8677,3.8272,3.8234,3.7578,3.6293,0.0,0.0,0.0,0.0,0.0,0.0,0.0,0.0,0.0,0.0,0.0,0.0,0.0,0.0,0.0,0.0,0.0,0.0,0.0,0.0,0.0,0.0,0.0,0.0,0.0,0.0,0.0,0.0,0.0,0.0,0.0,0.0,0.0,0.0,0.0,0.0,0.0,0.0,0.0,0.0,0.0,0.0,0.0,0.0,0.0,0.0,0.0,0.0,0.0,0.0,0.0,0.0,0.0,0.0,0.0,0.0,0.0,0.0,0.0,0.0,0.0,0.0,0.0,0.0,0.0,0.0,0.0,0.0,0.0,0.0,0.0,0.0,0.0,0.0,0.0,0.0,0.0,0.0,0.0,0.0,0.0,0.0,0.0,0.0,0.0,0.0,0.0,0.0,0.0,0.0,0.0,0.0,0.0,0.0,0.0,0.0,0.0,0.0,0.0,0.0,0.0,0.0,0.0,0.0,0.0,0.0,0.0,0.0,0.0,0.0,0.0,0.0,3.9201,3.8484,3.6815,0.0,0.0,0.0,0.0,0.0,0.0,0.0,0.0,0.0,0.0,0.0,0.0,0.0,0.0,0.0,0.0,0.0,0.0,0.0,0.0,0.0,0.0,0.0,0.0,0.0,0.0,0.0,0.0,0.0,0.0,0.0,0.0,0.0,0.0,0.0,0.0,0.0,0.0,0.0,0.0,0.0,0.0,0.0,0.0,0.0,0.0,0.0,0.0,0.0,0.0,0.0,0.0,0.0,0.0,0.0,0.0,0.0,0.0,0.0,0.0,0.0,0.0,0.0,0.0,0.0,0.0,0.0,0.0,0.0,0.0,0.0,0.0,0.0,0.0,0.0,0.0,0.0,0.0,0.0,0.0,0.0,0.0,0.0,0.0,0.0,0.0,0.0,0.0,0.0,0.0,0.0,0.0,0.0,0.0,0.0,0.0,0.0,0.0,0.0,0.0,0.0,0.0,0.0,0.0,0.0,0.0,0.0,0.0,0.0,0.0,3.8094,3.804,3.8812,0.0,3.6668,0.0,0.0,0.0,0.0,0.0,0.0,0.0,0.0,0.0,0.0,0.0,0.0,0.0,0.0,0.0,0.0,0.0,0.0,0.0,0.0,0.0,0.0,0.0,0.0,0.0,0.0,0.0,0.0,0.0,0.0,0.0,0.0,0.0,0.0,0.0,0.0,0.0,0.0,0.0,0.0,0.0,0.0,0.0,0.0,0.0,0.0,0.0,0.0,0.0,0.0,0.0,0.0,0.0,0.0,0.0,0.0,0.0,0.0,0.0,0.0,0.0,0.0,0.0,0.0,0.0,0.0,0.0,0.0,0.0,0.0,0.0,0.0,0.0,0.0,0.0,0.0,0.0,0.0,0.0,0.0,0.0,0.0,0.0,0.0,0.0,0.0,0.0,0.0,0.0,0.0,0.0,0.0,0.0,0.0,0.0,0.0,0.0,0.0,0.0,0.0,0.0,0.0,0.0,0.0,0.0,0.0,0.0,0.0,0.0,0.0,3.8821,3.9325,3.9139,3.8895,0.0,0.0,0.0,0.0,0.0,0.0,0.0,0.0,0.0,0.0,0.0,0.0,0.0,0.0,0.0,0.0,0.0,0.0,0.0,0.0,0.0,0.0,0.0,0.0,0.0,0.0,0.0,0.0,0.0,0.0,0.0,0.0,0.0,0.0,0.0,0.0,0.0,0.0,0.0,0.0,0.0,0.0,0.0,0.0,0.0,0.0,0.0,0.0,0.0,0.0,0.0,0.0,0.0,0.0,0.0,0.0,0.0,0.0,0.0,0.0,0.0,0.0,0.0,0.0,0.0,0.0,0.0,0.0,0.0,0.0,0.0,0.0,0.0,0.0,0.0,0.0,0.0,0.0,0.0,0.0,0.0,0.0,0.0,0.0,0.0,0.0,0.0,0.0,0.0,0.0,0.0,0.0,0.0,0.0,0.0,0.0,0.0,0.0,0.0,0.0,0.0,0.0,0.0,0.0,0.0,0.0,0.0,0.0,0.0,0.0,3.8319,3.9125,4.0119,3.9319,3.9013,3.9317,0.0,0.0,0.0,0.0,0.0,0.0,0.0,0.0,0.0,0.0,0.0,0.0,0.0,0.0,0.0,0.0,0.0,0.0,0.0,0.0,0.0,0.0,0.0,0.0,0.0,0.0,0.0,0.0,0.0,0.0,0.0,0.0,0.0,0.0,0.0,0.0,0.0,0.0,0.0,0.0,0.0,0.0,0.0,0.0,0.0,0.0,0.0,0.0,0.0,0.0,0.0,0.0,0.0,0.0,0.0,0.0,0.0,0.0,0.0,0.0,0.0,0.0,0.0,0.0,0.0,0.0,0.0,0.0,0.0,0.0,0.0,0.0,0.0,0.0,0.0,0.0,0.0,0.0,0.0,0.0,0.0,0.0,0.0,0.0,0.0,0.0,0.0,0.0,0.0,0.0,0.0,0.0,0.0,0.0,0.0,0.0,0.0,0.0,0.0,0.0,0.0,0.0,0.0,0.0,0.0,0.0,0.0,0.0,3.9545,3.8402,3.8423,3.9941,3.9157,3.834,0.0,0.0,0.0,0.0,0.0,0.0,0.0,0.0,0.0,0.0,0.0,0.0,0.0,0.0,0.0,0.0,0.0,0.0,0.0,0.0,0.0,0.0,0.0,0.0,0.0,0.0,0.0,0.0,0.0,0.0,0.0,0.0,0.0,0.0,0.0,0.0,0.0,0.0,0.0,0.0,0.0,0.0,0.0,0.0,0.0,0.0,0.0,0.0,0.0,0.0,0.0,0.0,0.0,0.0,0.0,0.0,0.0,0.0,0.0,0.0,0.0,0.0,0.0,0.0,0.0,0.0,0.0,0.0,0.0,0.0,0.0,0.0,0.0,0.0,0.0,0.0,0.0,0.0,0.0,0.0,0.0,0.0,0.0,0.0,0.0,0.0,0.0,0.0,0.0,0.0,0.0,0.0,0.0,0.0,0.0,0.0,0.0,0.0,0.0,0.0,0.0,0.0,0.0,0.0,0.0,0.0,0.0,0.0,0.0,3.8233,3.8782,3.9349,3.9876,3.9136,3.8281,0.0,0.0,0.0,0.0,0.0,0.0,0.0,0.0,0.0,0.0,0.0,0.0,0.0,0.0,0.0,0.0,0.0,0.0,0.0,0.0,0.0,0.0,0.0,0.0,0.0,0.0,0.0,0.0,0.0,0.0,0.0,0.0,0.0,0.0,0.0,0.0,0.0,0.0,0.0,0.0,0.0,0.0,0.0,0.0,0.0,0.0,0.0,0.0,0.0,0.0,0.0,0.0,0.0,0.0,0.0,0.0,0.0,0.0,0.0,0.0,0.0,0.0,0.0,0.0,0.0,0.0,0.0,0.0,0.0,0.0,0.0,0.0,0.0,0.0,0.0,0.0,0.0,0.0,0.0,0.0,0.0,0.0,0.0,0.0,0.0,0.0,0.0,0.0,0.0,0.0,0.0,0.0,0.0,0.0,0.0,0.0,0.0,0.0,0.0,0.0,0.0,0.0,0.0,0.0,0.0,0.0,0.0,0.0,0.0,3.7413,0.0,3.9889,3.9851,3.8831,3.8112,0.0,0.0,0.0,0.0,0.0,0.0,0.0,0.0,0.0,0.0,0.0,0.0,0.0,0.0,0.0,0.0,0.0,0.0,0.0,0.0,0.0,0.0,0.0,0.0,0.0,0.0,0.0,0.0,0.0,0.0,0.0,0.0,0.0,0.0,0.0,0.0,0.0,0.0,0.0,0.0,0.0,0.0,0.0,0.0,0.0,0.0,0.0,0.0,0.0,0.0,0.0,0.0,0.0,0.0,0.0,0.0,0.0,0.0,0.0,0.0,0.0,0.0,0.0,0.0,0.0,0.0,0.0,0.0,0.0,0.0,0.0,0.0,0.0,0.0,0.0,0.0,0.0,0.0,0.0,0.0,0.0,0.0,0.0,0.0,0.0,0.0,0.0,0.0,0.0,0.0,0.0,0.0,0.0,0.0,0.0,0.0,0.0,0.0,0.0,0.0,0.0,0.0,0.0,0.0,0.0,0.0,0.0,0.0,3.5761,3.739,3.9056,3.9946,3.987,3.8336,3.7714,0.0,0.0,0.0,0.0,0.0,0.0,0.0,0.0,0.0,0.0,0.0,0.0,0.0,0.0,0.0,0.0,0.0,0.0,0.0,0.0,0.0,0.0,0.0,0.0,0.0,0.0,0.0,0.0,0.0,0.0,0.0,0.0,0.0,0.0,0.0,0.0,0.0,0.0,0.0,0.0,0.0,0.0,0.0,0.0,0.0,0.0,0.0,0.0,0.0,0.0,0.0,0.0,0.0,0.0,0.0,0.0,0.0,0.0,0.0,0.0,0.0,0.0,0.0,0.0,0.0,0.0,0.0,0.0,0.0,0.0,0.0,0.0,0.0,0.0,0.0,0.0,0.0,0.0,0.0,0.0,0.0,0.0,0.0,0.0,0.0,0.0,0.0,0.0,0.0,0.0,0.0,0.0,0.0,0.0,0.0,0.0,0.0,0.0,0.0,0.0,0.0,0.0,0.0,0.0,0.0,0.0,0.0,0.0,0.0,3.8067,3.9727,4.0575,4.0519,3.8954,3.7942,0.0,0.0,0.0,0.0,0.0,0.0,0.0,0.0,0.0,0.0,0.0,0.0,0.0,0.0,0.0,0.0,0.0,0.0,0.0,0.0,0.0,0.0,0.0,0.0,0.0,0.0,0.0,0.0,0.0,0.0,0.0,0.0,0.0,0.0,0.0,0.0,0.0,0.0,0.0,0.0,0.0,0.0,0.0,0.0,0.0,0.0,0.0,0.0,0.0,0.0,0.0,0.0,0.0,0.0,0.0,0.0,0.0,0.0,0.0,0.0,0.0,0.0,0.0,0.0,0.0,0.0,0.0,0.0,0.0,0.0,0.0,0.0,0.0,0.0,0.0,0.0,0.0,0.0,0.0,0.0,0.0,0.0,0.0,0.0,0.0,0.0,0.0,0.0,0.0,0.0,0.0,0.0,0.0,0.0,0.0,0.0,0.0,0.0,0.0,0.0,0.0,0.0,0.0,0.0,0.0,0.0,0.0,0.0,0.0,3.9044,4.0128,4.0723,4.0753,3.9421,3.8221,3.7093,0.0,0.0,0.0,0.0,0.0,0.0,0.0,0.0,0.0,0.0,0.0,0.0,0.0,0.0,0.0,0.0,0.0,0.0,0.0,0.0,0.0,0.0,0.0,0.0,0.0,0.0,0.0,0.0,0.0,0.0,0.0,0.0,0.0,0.0,0.0,0.0,0.0,0.0,0.0,0.0,0.0,0.0,0.0,0.0,0.0,0.0,0.0,0.0,0.0,0.0,0.0,0.0,0.0,0.0,0.0,0.0,0.0,0.0,0.0,0.0,0.0,0.0,0.0,0.0,0.0,0.0,0.0,0.0,0.0,0.0,0.0,0.0,0.0,0.0,0.0,0.0,0.0,0.0,0.0,0.0,0.0,0.0,0.0,0.0,0.0,0.0,0.0,0.0,0.0,0.0,0.0,0.0,0.0,0.0,0.0,0.0,0.0,0.0,0.0,0.0,0.0,0.0,0.0,0.0,0.0,0.0,0.0,0.0,4.0142,4.0345,4.0533,4.0617,3.9802,3.849,0.0,0.0,0.0,0.0,0.0,0.0,0.0,0.0,0.0,0.0,0.0,0.0,0.0,0.0,0.0,0.0,0.0,0.0,0.0,0.0,0.0,0.0,0.0,0.0,0.0,0.0,0.0,0.0,0.0,0.0,0.0,0.0,0.0,0.0,0.0,0.0,0.0,0.0,0.0,0.0,0.0,0.0,0.0,0.0,0.0,0.0,0.0,0.0,0.0,0.0,0.0,0.0,0.0,0.0,0.0,0.0,0.0,0.0,0.0,0.0,0.0,0.0,0.0,0.0,0.0,0.0,0.0,0.0,0.0,0.0,0.0,0.0,0.0,0.0,0.0,0.0,0.0,0.0,0.0,0.0,0.0,0.0,0.0,0.0,0.0,0.0,0.0,0.0,0.0,0.0,0.0,0.0,0.0,0.0,0.0,0.0,0.0,0.0,0.0,0.0,0.0,0.0,0.0,0.0,0.0,0.0,0.0,0.0,0.0,4.0632,4.1194,4.1643,4.1833,4.0637,3.9193,0.0,0.0,0.0,0.0,0.0,0.0,0.0,0.0,0.0,0.0,0.0,0.0,0.0,0.0,0.0,0.0,0.0,0.0,0.0,0.0,0.0,0.0,0.0,0.0,0.0,0.0,0.0,0.0,0.0,0.0,0.0,0.0,0.0,0.0,0.0,0.0,0.0,0.0,0.0,0.0,0.0,0.0,0.0,0.0,0.0,0.0,0.0,0.0,0.0,0.0,0.0,0.0,0.0,0.0,0.0,0.0,0.0,0.0,0.0,0.0,0.0,0.0,0.0,0.0,0.0,0.0,0.0,0.0,0.0,0.0,0.0,0.0,0.0,0.0,0.0,0.0,0.0,0.0,0.0,0.0,0.0,0.0,0.0,0.0,0.0,0.0,0.0,0.0,0.0,0.0,0.0,0.0,0.0,0.0,0.0,0.0,0.0,0.0,0.0,0.0,0.0,0.0,0.0,0.0,0.0,0.0,0.0,0.0,4.0778,4.0652,4.1741,4.2395,4.2609,4.1268,3.9845,0.0,0.0,0.0,0.0,0.0,0.0,0.0,0.0,0.0,0.0,0.0,0.0,0.0,0.0,0.0,0.0,0.0,0.0,0.0,0.0,0.0,0.0,0.0,0.0,0.0,0.0,0.0,0.0,0.0,0.0,0.0,0.0,0.0,0.0,0.0,0.0,0.0,0.0,0.0,0.0,0.0,0.0,0.0,0.0,0.0,0.0,0.0,0.0,0.0,0.0,0.0,0.0,0.0,0.0,0.0,0.0,0.0,0.0,0.0,0.0,0.0,0.0,0.0,0.0,0.0,0.0,0.0,0.0,0.0,0.0,0.0,0.0,0.0,0.0,0.0,0.0,0.0,0.0,0.0,0.0,0.0,0.0,0.0,0.0,0.0,0.0,0.0,0.0,0.0,0.0,0.0,0.0,0.0,0.0,0.0,0.0,0.0,0.0,0.0,0.0,0.0,0.0,0.0,0.0,0.0,0.0,0.0,0.0,4.0655,4.0399,4.1991,4.2862,4.2862,4.1663,4.0399,0.0,0.0,0.0,0.0,0.0,0.0,0.0,0.0,0.0,0.0,0.0,0.0,0.0,0.0,0.0,0.0,0.0,0.0,0.0,0.0,0.0,0.0,0.0,0.0,0.0,0.0,0.0,0.0,0.0,0.0,0.0,0.0,0.0,0.0,0.0,0.0,0.0,0.0,0.0,0.0,0.0,0.0,0.0,0.0,0.0,0.0,0.0,0.0,0.0,0.0,0.0,0.0,0.0,0.0,0.0,0.0,0.0,0.0,0.0,0.0,0.0,0.0,0.0,0.0,0.0,0.0,0.0,0.0,0.0,0.0,0.0,0.0,0.0,0.0,0.0,0.0,0.0,0.0,0.0,0.0,0.0,0.0,0.0,0.0,0.0,0.0,0.0,0.0,0.0,0.0,0.0,0.0,0.0,0.0,0.0,0.0,0.0,0.0,0.0,0.0,0.0,0.0,0.0,0.0,0.0,0.0,0.0,0.0,4.0249,4.0435,4.1693,4.2521,4.2889,4.1632,4.05,0.0,0.0,0.0,0.0,0.0,0.0,0.0,0.0,0.0,0.0,0.0,0.0,0.0,0.0,0.0,0.0,0.0,0.0,0.0,0.0,0.0,0.0,0.0,0.0,0.0,0.0,0.0,0.0,0.0,0.0,0.0,0.0,0.0,0.0,0.0,0.0,0.0,0.0,0.0,0.0,0.0,0.0,0.0,0.0,0.0,0.0,0.0,0.0,3.2503,0.0,0.0,0.0,0.0,0.0,0.0,0.0,0.0,0.0,0.0,0.0,0.0,0.0,0.0,0.0,0.0,0.0,0.0,0.0,0.0,0.0,0.0,0.0,0.0,0.0,0.0,0.0,0.0,0.0,0.0,0.0,0.0,0.0,0.0,0.0,0.0,0.0,0.0,0.0,0.0,0.0,0.0,0.0,0.0,0.0,0.0,0.0,0.0,0.0,0.0,0.0,0.0,0.0,0.0,0.0,0.0,0.0,0.0,0.0,3.9847,4.0202,4.1286,4.221,4.2798,4.1453,4.051,0.0,0.0,0.0,0.0,0.0,0.0,0.0,0.0,0.0,0.0,0.0,0.0,0.0,0.0,0.0,0.0,0.0,0.0,0.0,0.0,0.0,0.0,0.0,0.0,0.0,0.0,0.0,0.0,0.0,0.0,0.0,0.0,0.0,0.0,0.0,0.0,0.0,0.0,0.0,0.0,0.0,0.0,0.0,0.0,0.0,0.0,0.0,0.0,0.0,0.0,0.0,0.0,0.0,0.0,0.0,0.0,0.0,0.0,0.0,0.0,0.0,0.0,0.0,0.0,0.0,0.0,0.0,0.0,0.0,0.0,0.0,0.0,0.0,0.0,0.0,0.0,0.0,0.0,0.0,0.0,0.0,0.0,0.0,0.0,0.0,0.0,0.0,0.0,0.0,0.0,0.0,0.0,0.0,0.0,0.0,0.0,0.0,0.0,0.0,0.0,0.0,0.0,0.0,0.0,0.0,0.0,0.0,3.8,3.946,4.003,4.0944,4.1789,4.2554,4.122,4.0451,4.0366,0.0,0.0,0.0,0.0,0.0,0.0,0.0,0.0,0.0,0.0,0.0,0.0,0.0,0.0,0.0,0.0,0.0,0.0,0.0,0.0,0.0,0.0,0.0,0.0,0.0,0.0,0.0,0.0,0.0,0.0,0.0,0.0,0.0,0.0,0.0,0.0,0.0,0.0,3.3178,3.3398,0.0,0.0,0.0,0.0,0.0,0.0,0.0,0.0,2.9955,0.0,0.0,0.0,0.0,0.0,0.0,0.0,0.0,0.0,0.0,0.0,0.0,0.0,0.0,0.0,0.0,0.0,0.0,0.0,0.0,0.0,0.0,0.0,0.0,0.0,0.0,0.0,0.0,0.0,0.0,0.0,0.0,0.0,0.0,0.0,0.0,0.0,0.0,0.0,0.0,0.0,0.0,0.0,0.0,0.0,0.0,0.0,0.0,0.0,0.0,0.0,0.0,0.0,0.0,0.0,0.0,3.6271,3.7819,3.9095,4.0082,4.0638,4.1041,4.1302,4.0806,4.0276,3.9549,0.0,0.0,0.0,0.0,0.0,0.0,0.0,0.0,0.0,0.0,0.0,0.0,0.0,0.0,0.0,0.0,0.0,0.0,0.0,0.0,0.0,0.0,0.0,0.0,0.0,0.0,0.0,0.0,0.0,0.0,0.0,0.0,0.0,0.0,0.0,0.0,0.0,0.0,0.0,3.2675,3.2587,0.0,0.0,0.0,0.0,0.0,0.0,0.0,0.0,2.7997,0.0,0.0,0.0,0.0,0.0,0.0,0.0,0.0,0.0,0.0,0.0,0.0,0.0,0.0,0.0,0.0,0.0,0.0,0.0,0.0,0.0,0.0,0.0,0.0,0.0,0.0,0.0,0.0,0.0,0.0,0.0,0.0,0.0,0.0,0.0,0.0,0.0,0.0,0.0,0.0,0.0,0.0,0.0,0.0,0.0,0.0,0.0,0.0,0.0,0.0,0.0,0.0,0.0,0.0,0.0,3.6353,3.8019,3.9293,4.007,4.0303,4.0463,4.05,4.0118,3.9504,0.0,0.0,0.0,0.0,0.0,0.0,0.0,0.0,0.0,0.0,0.0,0.0,0.0,0.0,0.0,0.0,0.0,0.0,0.0,0.0,0.0,0.0,0.0,0.0,0.0,0.0,0.0,0.0,0.0,0.0,0.0,0.0,0.0,0.0,0.0,0.0,0.0,0.0,0.0,0.0,3.1605,3.1503,3.1312,0.0,0.0,0.0,0.0,0.0,0.0,2.6978,2.5985,0.0,0.0,0.0,0.0,0.0,0.0,0.0,0.0,0.0,0.0,0.0,0.0,0.0,0.0,0.0,0.0,0.0,0.0,0.0,0.0,0.0,0.0,0.0,0.0,0.0,0.0,0.0,0.0,0.0,0.0,0.0,0.0,0.0,0.0,0.0,0.0,0.0,0.0,0.0,0.0,0.0,0.0,0.0,0.0,0.0,0.0,0.0,0.0,0.0,0.0,0.0,0.0,0.0,0.0,0.0,3.6268,3.8242,3.9555,4.0087,4.0087,4.0118,4.0086,3.9364,3.8671,0.0,0.0,0.0,0.0,0.0,0.0,0.0,0.0,0.0,0.0,0.0,0.0,0.0,0.0,0.0,0.0,0.0,0.0,0.0,0.0,0.0,0.0,0.0,0.0,0.0,0.0,0.0,0.0,0.0,0.0,0.0,0.0,0.0,0.0,0.0,0.0,0.0,0.0,0.0,0.0,0.0,3.0183,2.9736,2.906,0.0,0.0,0.0,0.0,2.6136,2.4869,0.0,0.0,0.0,0.0,0.0,0.0,0.0,0.0,0.0,0.0,0.0,0.0,0.0,0.0,0.0,0.0,0.0,0.0,0.0,0.0,0.0,0.0,0.0,0.0,0.0,0.0,0.0,0.0,0.0,0.0,0.0,0.0,0.0,0.0,0.0,0.0,0.0,0.0,0.0,0.0,0.0,0.0,0.0,0.0,0.0,0.0,0.0,0.0,0.0,0.0,0.0,0.0,0.0,0.0,0.0,0.0,3.6268,3.8242,3.9555,4.0087,4.0087,4.0104,4.0086,3.8925,3.7986,0.0,0.0,0.0,0.0,0.0,0.0,0.0,0.0,0.0,0.0,0.0,0.0,0.0,0.0,0.0,0.0,0.0,0.0,0.0,0.0,0.0,0.0,0.0,0.0,0.0,0.0,0.0,0.0,0.0,0.0,0.0,0.0,0.0,0.0,0.0,0.0,0.0,0.0,0.0,0.0,0.0,2.8468,2.8336,2.7287,2.6352,0.0,0.0,2.5292,2.4748,2.3094,0.0,0.0,0.0,0.0,0.0,0.0,0.0,0.0,0.0,0.0,0.0,0.0,0.0,0.0,0.0,0.0,0.0,0.0,0.0,0.0,0.0,0.0,0.0,0.0,0.0,0.0,0.0,0.0,0.0,0.0,0.0,0.0,0.0,0.0,0.0,0.0,0.0,0.0,0.0,0.0,0.0,0.0,0.0,0.0,0.0,0.0,0.0,0.0,0.0,0.0,0.0,0.0,0.0,0.0,0.0,3.5788,3.6131,3.8465,3.9849,4.0121,4.0087,4.0087,4.007,3.8792,3.7809,0.0,0.0,0.0,0.0,0.0,0.0,0.0,0.0,0.0,0.0,0.0,0.0,0.0,0.0,0.0,0.0,0.0,0.0,0.0,0.0,0.0,0.0,0.0,0.0,0.0,0.0,0.0,0.0,0.0,0.0,0.0,0.0,0.0,0.0,0.0,0.0,0.0,0.0,0.0,0.0,0.0,0.0,2.6057,2.5108,0.0,0.0,0.0,2.2169,2.194,0.0,0.0,0.0,0.0,0.0,0.0,0.0,0.0,0.0,0.0,0.0,0.0,0.0,0.0,0.0,0.0,0.0,0.0,0.0,0.0,0.0,0.0,0.0,0.0,0.0,0.0,0.0,0.0,0.0,0.0,0.0,0.0,0.0,0.0,0.0,0.0,0.0,0.0,0.0,0.0,0.0,0.0,0.0,0.0,0.0,0.0,0.0,0.0,0.0,0.0,0.0,0.0,0.0,0.0,0.0,0.0,0.0,3.5878,3.8645,4.0087,4.0087,4.0087,4.007,4.0003,3.8882,0.0,0.0,0.0,0.0,0.0,0.0,0.0,0.0,0.0,0.0,0.0,0.0,0.0,0.0,0.0,0.0,0.0,0.0,0.0,0.0,0.0,0.0,0.0,0.0,0.0,0.0,0.0,2.8956,0.0,0.0,0.0,0.0,0.0,0.0,0.0,0.0,0.0,0.0,0.0,0.0,0.0,0.0,2.4506,2.3734,2.2862,2.2073,0.0,0.0,1.9589,1.9144,1.7686,1.654,0.0,0.0,0.0,0.0,0.0,0.0,0.0,0.0,0.0,0.0,0.0,0.0,0.0,0.0,0.0,0.0,0.0,0.0,0.0,0.0,0.0,0.0,0.0,0.0,0.0,0.0,0.0,0.0,0.0,0.0,0.0,0.0,0.0,0.0,0.0,0.0,0.0,0.0,0.0,0.0,0.0,0.0,0.0,0.0,0.0,0.0,0.0,0.0,0.0,0.0,0.0,0.0,0.0,0.0,0.0,3.5723,3.8565,4.007,4.0087,4.0087,4.0037,3.9884,3.9226,3.8176,0.0,0.0,0.0,0.0,0.0,0.0,0.0,0.0,0.0,0.0,0.0,0.0,0.0,0.0,0.0,0.0,0.0,0.0,0.0,0.0,0.0,0.0,0.0,0.0,0.0,0.0,0.0,0.0,0.0,0.0,0.0,0.0,0.0,0.0,0.0,0.0,0.0,0.0,0.0,0.0,0.0,2.2456,2.1706,2.0552,1.9525,0.0,0.0,1.8511,1.6783,1.5398,1.4448,1.4226,0.0,0.0,0.0,0.0,0.0,0.0,0.0,0.0,0.0,0.0,0.0,0.0,0.0,0.0,0.0,0.0,0.0,0.0,0.0,0.0,0.0,0.0,0.0,0.0,0.0,0.0,0.0,0.0,0.0,0.0,0.0,0.0,0.0,0.0,0.0,0.0,0.0,0.0,0.0,0.0,0.0,0.0,0.0,0.0,0.0,0.0,0.0,0.0,0.0,0.0,0.0,0.0,0.0,3.5253,3.5566,3.8204,3.9747,4.0087,4.0087,4.002,3.985,3.9194,3.8351,0.0,0.0,0.0,0.0,0.0,0.0,0.0,0.0,0.0,0.0,0.0,0.0,0.0,0.0,0.0,0.0,0.0,0.0,0.0,0.0,0.0,0.0,0.0,0.0,0.0,0.0,0.0,0.0,2.6255,2.5845,2.5052,0.0,0.0,0.0,0.0,0.0,0.0,0.0,0.0,0.0,0.0,2.1202,2.0428,1.9155,0.0,0.0,1.6171,1.542,1.4064,1.2985,1.226,1.2157,1.1424,0.0,0.0,0.0,0.0,0.0,0.0,0.0,0.0,0.0,0.0,0.0,0.0,0.0,0.0,0.0,0.0,0.0,0.0,0.0,0.0,0.0,0.0,0.0,0.0,0.0,0.0,0.0,0.0,0.0,0.0,0.0,0.0,0.0,0.0,0.0,0.0,0.0,0.0,0.0,0.0,0.0,0.0,0.0,0.0,0.0,0.0,0.0,0.0,0.0,0.0,0.0,0.0,3.4549,3.4894,3.7518,3.9085,3.9514,3.9851,3.9969,3.9782,3.9277,3.864,0.0,0.0,0.0,0.0,0.0,0.0,0.0,0.0,0.0,0.0,0.0,0.0,0.0,0.0,0.0,0.0,0.0,0.0,0.0,0.0,0.0,0.0,0.0,0.0,0.0,0.0,0.0,0.0,2.4341,2.3774,2.2943,0.0,0.0,0.0,0.0,0.0,0.0,0.0,0.0,0.0,0.0,1.9756,1.9039,1.7563,1.6108,1.4837,1.4008,1.3027,1.1738,1.0855,1.0246,0.9832,0.0,0.0,0.0,0.0,0.0,0.0,0.0,0.0,0.0,0.0,0.0,0.0,0.0,0.0,0.0,0.0,0.0,0.0,0.0,0.0,0.0,0.0,0.0,0.0,0.0,0.0,0.0,0.0,0.0,0.0,3.1717,0.0,0.0,0.0,0.0,0.0,0.0,0.0,0.0,0.0,0.0,0.0,0.0,0.0,0.0,0.0,0.0,0.0,0.0,0.0,0.0,0.0,0.0,3.3634,3.3512,3.6571,3.8197,3.8282,3.9292,3.9833,3.9677,3.9573,3.9118,3.8369,0.0,0.0,0.0,0.0,0.0,0.0,0.0,0.0,0.0,0.0,0.0,0.0,0.0,0.0,0.0,0.0,0.0,0.0,0.0,0.0,0.0,0.0,0.0,0.0,0.0,0.0,2.1622,2.1945,2.2015,0.0,0.0,0.0,0.0,0.0,0.0,0.0,0.0,0.0,0.0,1.9832,1.8117,1.7462,1.5829,1.4391,1.3209,1.2595,1.1721,1.0098,0.9363,0.8504,0.0,0.0,0.0,0.0,0.0,0.0,0.0,0.0,0.0,0.0,0.0,0.0,0.0,0.0,0.0,0.0,0.0,0.0,0.0,0.0,0.0,0.0,0.0,0.0,0.0,0.0,0.0,3.1255,3.1517,0.0,0.0,0.0,0.0,0.0,0.0,0.0,0.0,0.0,0.0,0.0,3.0785,3.0341,0.0,0.0,0.0,0.0,0.0,0.0,0.0,0.0,0.0,0.0,0.0,0.0,3.3128,3.3322,3.5279,3.6772,3.7605,3.8308,3.8778,3.9115,3.8936,3.8297,3.7189,0.0,0.0,0.0,0.0,0.0,0.0,0.0,0.0,0.0,0.0,0.0,0.0,0.0,0.0,0.0,0.0,0.0,0.0,0.0,0.0,0.0,0.0,0.0,0.0,0.0,2.0318,0.0,0.0,0.0,0.0,0.0,0.0,0.0,0.0,0.0,0.0,0.0,1.9758,1.9317,1.7672,1.6301,1.5617,1.4341,1.2936,0.0,0.0,0.0,0.0,0.0,0.0,0.0,0.0,0.0,0.0,0.0,0.0,0.0,0.0,0.3103,0.4014,0.4106,0.411,0.4019,0.0,0.0,0.0,0.0,0.0,0.0,0.0,0.0,0.0,0.0,0.0,0.0,0.0,0.0,3.0112,0.0,2.9858,0.0,0.0,0.0,0.0,0.0,0.0,0.0,0.0,2.9743,2.9994,3.0609,3.0107,3.0107,0.0,3.0213,3.0068,0.0,0.0,0.0,0.0,0.0,0.0,0.0,0.0,3.2334,3.2771,3.4202,3.5197,3.5614,3.6929,3.7726,3.8105,3.8109,3.7703,3.6875,3.5912,3.5058,0.0,0.0,0.0,0.0,0.0,0.0,0.0,0.0,0.0,0.0,0.0,0.0,0.0,0.0,0.0,0.0,0.0,0.0,0.0,0.0,0.0,0.0,0.0,1.7952,0.0,0.0,0.0,0.0,0.0,0.0,0.0,0.0,0.0,1.8834,1.8556,1.8,1.7425,1.6118,1.4923,1.4139,0.0,0.0,0.0,0.0,0.0,0.0,0.0,0.5542,0.521,0.4454,0.3854,0.3495,0.2416,0.1446,0.1164,0.0,0.0,0.1715,0.1807,0.1712,0.1521,0.1331,0.0855,-0.019,-0.1996,-0.3137,0.0,0.0,0.0,0.0,0.0,0.0,0.0,0.0,2.874,2.9122,0.0,2.8563,0.0,0.0,0.0,0.0,0.0,2.9377,0.0,0.0,2.9723,3.0007,3.0418,2.9936,2.9813,2.9907,2.9606,2.9362,2.9261,2.9922,0.0,0.0,0.0,0.0,0.0,0.0,3.1341,3.1779,3.3392,3.3614,3.2579,3.5237,3.6718,3.6798,3.7181,3.7354,3.7279,3.6503,3.5654,3.4705,3.3543,0.0,0.0,0.0,0.0,0.0,0.0,0.0,0.0,0.0,0.0,0.0,0.0,0.0,0.0,0.0,0.0,0.0,0.0,0.0,0.0,1.5682,0.0,0.0,0.0,0.0,0.0,0.0,0.0,0.0,0.0,0.0,1.725,1.6794,1.6194,1.5945,0.0,0.0,0.0,0.0,1.0712,0.9405,0.8185,0.7183,0.6415,0.5344,0.4278,0.3323,0.0,0.0,0.1006,-0.0397,-0.1579,-0.2412,-0.2112,-0.1692,-0.144,-0.1624,-0.2005,-0.2479,-0.2478,-0.2661,-0.3615,-0.4782,-0.5546,2.2513,0.0,0.0,0.0,0.0,2.576,2.6052,2.6317,2.6289,2.6569,2.6993,2.7022,0.0,0.0,0.0,0.0,0.0,0.0,2.8352,2.8373,2.839,2.8532,2.8748,2.8712,2.8776,2.8939,2.8823,2.8677,2.8565,2.9144,2.9435,2.9539,0.0,0.0,0.0,0.0,3.1248,3.1052,3.2245,3.2684,3.2175,3.387,3.5106,3.5739,3.6814,3.6997,3.6049,3.612,3.5784,3.488,3.3289,0.0,0.0,0.0,0.0,0.0,0.0,0.0,0.0,0.0,0.0,0.0,0.0,0.0,0.0,0.0,0.0,0.0,0.0,0.0,1.3811,1.3467,1.3362,0.0,0.0,0.0,0.0,0.0,0.0,0.0,0.0,0.0,1.4881,1.476,1.4576,0.0,0.0,1.1918,1.1316,1.0463,0.951,0.836,0.7217,0.0,0.0,0.4164,0.3311,0.2854,0.2352,0.1405,-0.0605,-0.3116,-0.5024,-0.5153,-0.5153,-0.5127,-0.5273,-0.5461,-0.5659,-0.5854,-0.5849,-0.595,-0.6651,-0.715,-0.7042,1.8786,2.1497,2.2211,2.2433,2.237,2.3066,2.3452,2.3635,2.412,2.4527,2.4868,2.5075,2.5284,2.5538,2.6388,0.0,0.0,0.0,2.7005,2.6722,2.7524,2.7947,2.7986,2.8012,2.7999,2.8103,2.8117,2.7999,2.7815,2.8702,2.9072,2.9058,0.0,0.0,2.9809,3.0721,3.1235,3.1344,3.2002,3.2293,3.2076,3.292,3.3913,3.4988,3.5845,3.5998,3.5434,3.5619,3.5359,3.4347,3.3115,3.1976,0.0,0.0,0.0,0.0,0.0,0.0,0.0,0.0,0.0,0.0,0.0,2.3641,2.2959,0.0,0.0,0.0,1.5843,1.349,1.1886,1.1764,0.0,0.0,0.0,0.0,0.0,0.0,0.0,1.386,1.3864,1.3722,1.3424,1.3083,1.2911,1.2973,1.1837,1.0809,1.0376,0.0,0.8193,0.7485,0.6422,0.5359,0.4385,0.3498,0.2744,0.2309,0.188,0.1009,-0.0706,-0.394,-0.6282,-0.6382,-0.6377,-0.6469,-0.6762,-0.7071,-0.7269,-0.7256,-0.7256,-0.7463,-0.7772,-0.7869,-0.7756,1.5936,1.6659,1.847,1.9043,1.8903,2.0227,2.0643,2.042,2.2027,2.2787,2.2914,2.2872,2.3294,2.3956,2.4304,0.0,2.3967,2.518,2.5472,2.5087,2.687,2.771,2.7723,2.7537,2.7417,2.7404,2.7417,2.7229,2.704,2.8314,2.8739,2.8427,2.897,2.9507,2.9972,3.0428,3.12,3.2246,3.2257,3.2185,3.1972,3.24,3.3186,3.4262,3.4382,3.4692,3.5213,3.5118,3.4528,3.3408,3.2885,3.1886,3.0115,0.0,0.0,0.0,0.0,0.0,0.0,0.0,0.0,0.0,0.0,0.0,0.0,0.0,0.0,0.0,1.4099,0.0,1.0672,1.0338,0.0,0.0,0.0,1.1727,1.233,1.2639,1.2904,1.2951,0.0,0.0,1.2736,1.1751,1.1305,1.1785,1.0901,1.012,0.9864,0.836,0.7037,0.6688,0.5716,0.4654,0.3676,0.3105,0.2437,0.1748,0.1591,0.1205,-0.0101,-0.332,-0.5854,-0.6385,-0.6372,-0.6258,-0.6158,-0.6756,-0.7353,-0.7344,-0.7444,-0.7646,-0.7646,-0.7846,-0.7942,1.43,1.5047,1.5959,1.6935,1.7827,1.831,1.847,1.8479,1.9668,2.0216,2.0285,2.1517,2.2499,2.3231,2.3368,2.3294,2.322,2.3588,2.3661,2.3599,2.4886,2.5463,2.5533,2.6346,2.6714,2.6726,2.6714,2.6589,2.6477,2.7108,2.7351,2.7191,2.8163,2.9011,2.9671,3.035,3.0822,3.1292,3.1338,3.1364,3.1509,3.2153,3.2647,3.2976,3.3455,3.4271,3.5363,3.4089,3.3078,3.2478,3.178,3.1082,3.0463,2.8415,0.0,0.0,0.0,0.0,0.0,0.0,0.0,0.0,0.0,2.0178,1.9094,0.0,1.6605,0.0,1.2079,0.9835,0.8193,0.886,0.0,0.0,0.9401,0.967,1.0031,1.0255,1.0779,1.187,1.1989,1.2004,1.1764,1.1772,1.1565,1.0819,0.968,0.889,0.8623,0.7921,0.6953,0.5716,0.5006,0.4293,0.3229,0.2372,0.1773,0.153,0.1543,0.1069,-0.0591,-0.2564,-0.4464,-0.5947,-0.6361,-0.5837,-0.4321,-0.5534,-0.7045,-0.7659,-0.7852,-0.7942,-0.7942,-0.7942,-0.7939,1.3385,1.3984,1.4657,1.5575,1.6558,1.7033,1.7277,1.7359,1.8327,1.8727,1.8816,2.0138,2.0914,2.1354,2.1756,2.1918,2.1983,2.2285,2.2424,2.251,2.3599,2.4192,2.4181,2.5429,2.5804,2.5429,2.5804,2.5816,2.5606,2.6195,2.6526,2.6607,2.7604,2.839,2.9121,3.0007,3.0462,3.0355,3.0098,3.0234,3.0837,3.1054,3.1375,3.1804,3.2156,3.2957,3.4427,3.292,3.1832,3.1253,3.0467,2.9775,2.9233,2.7491,2.5936,0.0,0.0,0.0,0.0,0.0,0.0,0.0,0.0,0.0,0.0,0.0,1.4614,1.2337,1.0332,0.8625,0.7543,0.7905,0.828,0.8283,0.8455,0.8703,0.9064,0.9409,0.9849,1.0651,1.1204,1.1502,1.1232,1.1384,1.1326,1.0743,0.9157,0.8189,0.8273,0.7305,0.5985,0.5277,0.4565,0.376,0.278,0.2008,0.1486,0.1502,0.1517,0.1244,0.0193,-0.1643,-0.3788,-0.5811,-0.5809,-0.5303,-0.4722,-0.5606,-0.6789,-0.7192,-0.7482,-0.7707,-0.7915,-0.764,-0.7325,1.2619,1.3313,1.4055,1.4734,1.534,1.6221,1.6535,1.6617,1.7423,1.7917,1.8078,1.8807,1.9222,1.9381,2.0089,2.0479,2.0644,2.1318,2.169,2.1766,2.2861,2.3379,2.3452,2.4564,2.4791,2.4108,2.4779,2.5016,2.4707,2.5334,2.5836,2.6277,2.7015,2.767,2.8233,2.9345,2.9832,2.9572,2.8961,2.9167,3.0208,2.9766,2.9959,3.072,3.0665,3.1304,3.2557,3.1513,3.0555,2.99,2.9216,2.8409,2.7459,2.6382,2.521,0.0,2.2659,0.0,0.0,0.0,0.0,0.0,0.0,0.0,0.0,1.4185,1.2527,1.0364,0.8863,0.7914,0.7584,0.7298,0.7422,0.8081,0.8287,0.8581,0.8957,0.9366,0.9636,0.971,1.0812,1.136,1.0935,1.0786,1.0989,1.084,0.9069,0.8013,0.836,0.6514,0.5015,0.5282,0.4302,0.3229,0.2516,0.1821,0.1474,0.1477,0.14,0.1421,0.1044,-0.1232,-0.3703,-0.5648,-0.5358,-0.4864,-0.6135,-0.6317,-0.6404,-0.6429,-0.6521,-0.6762,-0.741,-0.6967,-0.6358,1.1757,1.2705,1.3886,1.4482,1.465,1.5333,1.5665,1.5665,1.6535,1.7342,1.7997,1.8167,1.8647,1.9301,1.946,1.9932,2.0557,2.0789,2.0876,2.1118,2.2145,2.2723,2.2872,2.3829,2.4264,2.4108,2.4264,2.448,2.4707,2.485,2.5146,2.5511,2.6277,2.6688,2.6812,0.0,0.0,0.0,2.9175,2.9251,2.9699,2.9747,2.9775,2.9797,2.9749,0.0,2.9914,2.9497,2.8868,2.8066,2.8021,0.0,0.0,0.0,0.0,0.0,0.0,0.0,0.0,0.0,0.0,0.0,1.5036,1.4473,1.3307,1.1657,1.0281,0.9429,0.7991,0.6899,0.6423,0.7232,0.7753,0.7856,0.8739,0.9409,0.9506,0.9726,1.0082,1.0505,1.1035,1.1057,1.0601,1.1009,1.1126,1.0299,0.8973,0.8089,0.8082,0.6422,0.5102,0.4565,0.3674,0.3047,0.2778,0.198,0.1447,0.1355,0.1175,0.0639,-0.0463,-0.2134,-0.3926,-0.5606,-0.5813,-0.5705,-0.5828,-0.6016,-0.5994,-0.5831,-0.4892,-0.443,-0.5873,-0.6064,-0.5767,1.1591,0.0,1.3124,1.3802,0.0,1.4748,1.4996,1.5204,1.5831,1.6304,1.6722,1.7188,1.7594,1.8078,1.8895,1.9529,2.001,2.0489,2.0809,2.0906,2.1645,2.2014,2.2155,2.3117,2.3265,2.2809,2.3243,2.339,2.3412,2.3779,2.4215,2.4707,2.5429,2.6,2.6414,2.7128,2.8034,2.9044,2.8906,2.8919,2.9085,2.8817,2.8739,2.8803,0.0,0.0,0.0,0.0,0.0,0.0,0.0,0.0,0.0,0.0,0.0,2.2392,2.1385,2.013,1.846,1.7814,1.668,1.4682,1.3937,1.3316,1.2593,1.0922,0.9705,0.9137,0.7566,0.6688,0.7052,0.7576,0.8101,0.8593,0.9257,0.9608,0.96,0.9718,0.9816,1.0027,1.0468,1.0716,1.031,1.0968,1.1278,1.0646,0.9584,0.879,0.8524,0.6596,0.4837,0.4121,0.3585,0.3048,0.2601,0.2242,0.1705,0.1436,0.1256,0.09,0.0091,-0.1545,-0.3472,-0.5189,-0.5844,-0.5842,-0.567,-0.5101,-0.4254,-0.3336,-0.3721,-0.4378,-0.4917,-0.5048,-0.5181,1.1332,1.2198,1.2363,1.3124,1.4223,1.426,1.4482,1.4882,0.0,0.0,0.0,1.5963,1.6354,1.6589,1.8197,1.8925,1.9238,2.0207,2.0678,2.0745,2.1116,2.1267,2.1333,2.2158,2.2083,2.1343,2.1913,2.2115,2.1924,2.2665,2.3301,2.3856,2.4661,2.5363,2.6034,2.6775,2.7523,2.8285,2.8529,2.862,2.8587,2.7921,2.7656,2.8,2.7855,2.7789,2.7815,2.7469,2.6973,2.6377,2.5475,2.4791,2.436,2.3265,2.2317,2.1482,2.0313,1.9036,1.7836,1.7008,1.5896,1.4366,1.3447,1.2756,1.2493,1.11,1.0006,0.9665,0.7959,0.7329,0.8219,0.8517,0.8913,0.9801,1.01,1.0186,1.0143,1.0101,1.0074,0.9811,1.0398,1.0605,1.0404,1.0937,1.1359,1.1176,1.0289,0.9405,0.879,0.6684,0.4746,0.4032,0.3676,0.3318,0.2691,0.2243,0.2064,0.1705,0.1436,0.1345,0.0896,-0.0537,-0.2511,-0.4514,-0.5131,-0.5138,-0.5145,-0.4332,-0.2602,-0.0449,-0.3054,-0.5223,-0.3782,-0.3653,-0.3883,0.9918,1.1521,1.2112,1.2875,1.3542,1.387,1.4174,1.4545,1.4582,1.4611,1.4604,1.4754,1.5202,1.587,1.6801,1.7721,1.8546,1.9399,1.9922,0.0,2.0266,2.0411,2.0545,2.0566,2.0504,2.0359,2.0328,2.0535,2.1026,2.1664,2.2282,2.2914,2.3629,2.4273,2.474,2.5333,2.6291,2.7591,2.8271,2.862,2.8587,2.8052,2.7723,2.7603,2.7523,2.7523,2.7536,2.7214,2.6645,2.5767,2.5288,2.436,2.3065,2.2617,2.1776,2.0294,1.9825,1.8798,1.7033,1.6984,1.6406,1.5008,1.4007,1.3251,1.2717,1.1684,1.1091,1.1128,0.9929,0.9209,0.9406,1.0194,1.0681,1.0974,1.177,1.2292,1.1919,1.1836,1.1667,1.1328,1.1587,1.1599,1.1144,1.1386,1.1543,1.1267,1.0559,0.9235,0.7647,0.6331,0.545,0.4476,0.3855,0.3587,0.332,0.2691,0.2243,0.2155,0.1705,0.1165,0.0269,-0.0268,-0.1163,-0.2326,-0.3044,-0.3405,-0.332,-0.4497,-0.3326,-0.0899,-0.2877,-0.4236,-0.1528,-0.1174,-0.1357,1.0771,1.1832,1.2047,1.2739,1.3705,1.3898,1.4023,1.4194,1.4011,1.4143,1.4457,1.4465,1.4691,1.5134,1.6345,1.7168,1.7748,1.9131,1.9887,2.0073,2.0216,2.0288,2.0298,2.0237,2.0103,1.9867,1.9795,1.9857,2.0063,2.1096,2.1793,2.2138,2.3203,2.3881,2.4177,2.4925,2.5904,2.7079,2.8109,2.862,2.8587,2.7987,2.759,2.7536,2.7469,2.7456,2.7403,2.6701,2.6126,2.5639,2.4492,2.3582,2.2927,2.2187,2.1328,2.0304,1.9274,1.823,1.7115,1.669,1.606,1.5084,1.4641,1.4117,1.3431,1.2272,1.1672,1.1741,1.0738,1.0232,1.0872,1.1268,1.1658,1.216,1.2453,1.2533,1.2409,1.2248,1.2026,1.1736,1.1755,1.1663,1.1381,1.1365,1.1451,1.1267,1.0824,0.9941,0.8352,0.783,0.6776,0.483,0.4121,0.3853,0.3676,0.3318,0.2871,0.2601,0.2153,0.1524,0.0717,0.0537,0.0358,-0.0089,-0.0537,-0.0806,-0.0896,-0.1793,-0.1525,-0.0987,-0.1078,-0.1529,-0.036,-0.018,-0.027,1.1661,1.2326,1.2218,1.2744,1.37,1.3957,1.3945,1.385,1.3609,1.3777,1.4209,1.4245,1.4253,1.4476,1.5955,1.675,1.7111,1.8759,1.9646,1.9768,1.9919,1.999,1.9798,1.9869,1.9646,1.9352,1.9342,1.9271,1.9413,2.0578,2.1404,2.1756,2.2968,2.3592,2.3658,2.4381,2.5345,2.6502,2.7256,2.8015,2.8573,2.7855,2.7469,2.7469,2.7469,2.7469,2.7335,2.6321,2.5673,2.5334,2.3852,2.2927,2.2703,2.1797,2.1041,2.0469,1.9036,1.7968,1.7417,1.6484,1.5828,1.5513,1.5228,1.4807,1.4124,1.2984,1.2283,1.2231,1.1592,1.1406,1.1955,1.1985,1.2193,1.2874,1.2725,1.2488,1.2406,1.2185,1.2026,1.1794,1.1712,1.1613,1.1435,1.1354,1.1267,1.1267,1.1267,1.0824,0.9845,0.9235,0.7914,0.5974,0.4828,0.4565,0.4121,0.3764,0.3496,0.3045,0.2689,0.2241,0.1792,0.1614,0.1525,0.1435,0.1345,0.0987,0.0807,0.0448,0.0179,0.0269,-0.009,-0.0,0.009,0.018,0.009,1.1594,1.2351,1.2737,1.2975,1.3216,1.3762,1.3814,1.3565,1.3506,1.3521,1.3616,1.3587,1.3609,1.3792,1.5375,1.6078,1.629,1.789,1.87,1.87,1.8863,1.8873,1.872,1.8893,1.8728,1.8496,1.8574,1.8809,1.9116,2.0084,2.1039,2.2064,2.2747,2.3051,2.3087,2.3311,2.4218,2.585,2.5269,2.6129,2.839,2.7868,2.7469,2.7469,2.7469,2.7469,2.7469,2.6377,2.5463,2.4815,2.3632,2.2628,2.2025,2.1665,2.1098,2.0285,1.9423,1.8475,1.7319,1.6707,1.6503,1.6645,1.5383,1.4675,1.4644,1.3698,1.3104,1.3136,1.2997,1.2723,1.2654,1.2584,1.2612,1.2727,1.2665,1.2632,1.2456,1.2354,1.2235,1.2008,1.1813,1.1721,1.1613,1.1435,1.1267,1.1267,1.1267,1.0997,1.0024,0.9666,0.9226,0.7643,0.6331,0.5544,0.5539,0.4563,0.3853,0.3585,0.3136,0.2867,0.2598,0.2332,0.2154,0.2063,0.1705,0.1436,0.1436,0.1256,0.1076,0.0718,0.0628,0.0629,0.0628,0.0628,0.0539,1.2066,1.2989,1.2979,1.3127,1.3333,1.3623,1.3623,1.3492,1.3492,1.3492,1.3557,1.3977,1.4122,1.4258,1.5313,1.6088,1.6715,1.7842,1.8482,1.8674,1.8751,1.8741,1.8674,1.8751,1.8674,1.8405,1.8405,1.8664,1.9299,2.0291,2.1273,2.2147,2.2414,2.251,2.2522,2.2603,2.3529,2.5262,2.4858,2.5571,2.726,2.7232,2.7183,2.7497,2.7469,2.7469,2.739,2.6389,2.5451,2.466,2.3621,2.2628,2.1807,2.1578,2.1262,2.0615,1.9353,1.8397,1.7918,1.7351,1.6996,1.6993,1.6413,1.5683,1.4896,1.4378,1.3854,1.3346,1.333,1.3258,1.3176,1.3047,1.2962,1.2939,1.2739,1.2517,1.2426,1.2277,1.2054,1.1882,1.1785,1.1613,1.1527,1.1348,1.1267,1.1267,1.1267,1.0997,1.0641,1.0376,1.0106,0.9753,0.8273,0.6868,0.6245,0.5366,0.4567,0.4032,0.3585,0.3315,0.3317,0.2957,0.2599,0.2601,0.2153,0.1885,0.1885,0.1615,0.1346,0.1166,0.1166,0.1077,0.1077,0.1077,0.0987,1.3037,1.3641,1.3601,1.3615,1.3637,1.363,1.3702,1.3768,1.3768,1.392,1.4129,1.4744,1.5092,1.5313,1.5886,1.6437,1.7079,1.792,1.8405,1.8674,1.8674,1.8674,1.8751,1.8808,1.8865,1.8798,1.8808,1.9243,1.9944,2.088,2.1651,2.2123,2.2197,2.2197,2.2197,2.2197,2.3021,2.4528,2.4455,2.4931,2.6029,2.629,2.6607,2.721,2.7301,2.7366,2.7456,2.6471,2.5533,2.4732,2.361,2.2692,2.1883,2.1655,2.1425,2.0857,1.952,1.8647,1.8505,1.7951,1.7499,1.7314,1.7179,1.6537,1.5581,1.511,1.4656,1.3946,1.3939,1.3885,1.33,1.3106,1.3022,1.3004,1.2662,1.2481,1.2464,1.2302,1.2129,1.2037,1.1957,1.178,1.144,1.1359,1.1267,1.1267,1.1267,1.1267,1.1267,1.0992,1.0901,1.1176,0.9864,0.8452,0.7126,0.6163,0.5544,0.5013,0.4476,0.421,0.4034,0.3583,0.3135,0.3048,0.269,0.2601,0.278,0.2331,0.2152,0.2153,0.2152,0.215,0.2418,0.2239,0.2239,1.4497,1.4593,1.4944,1.4729,1.4137,1.4129,1.4258,1.4601,1.453,1.4966,1.5525,1.5799,1.6358,1.6862,1.7001,1.7001,1.707,1.792,1.8337,1.8472,1.8539,1.8539,1.8549,1.8942,1.9264,1.9507,1.9835,2.0409,2.1365,2.1913,2.2123,2.2197,2.2197,2.2197,2.2197,2.2247,2.2836,2.3949,2.3929,2.4066,2.4786,2.5262,2.5897,2.6607,2.67,2.6948,2.7259,2.6582,2.5673,2.472,2.3734,2.2798,2.1959,2.1807,2.1482,2.0944,2.0216,1.952,1.8993,1.8362,1.7976,1.7823,1.727,1.6698,1.6476,1.5804,1.5333,1.5257,1.513,1.458,1.3291,1.301,1.2807,1.2715,1.2673,1.2661,1.2649,1.2655,1.2619,1.254,1.2392,1.206,1.1727,1.1451,1.1354,1.1348,1.1262,1.1267,1.1267,1.1262,1.1262,1.1176,1.0733,1.0024,0.8886,0.7485,0.6517,0.5985,0.5544,0.5282,0.4926,0.448,0.4032,0.3583,0.3403,0.3403,0.3671,0.3762,0.3674,0.3674,0.3758,0.3844,0.3659,0.402,0.3844,1.495,1.5251,1.5675,1.5745,1.5534,1.5534,1.5596,1.5666,1.5666,1.5807,1.6158,1.6636,1.7051,1.7345,1.7774,1.7988,1.7988,1.8269,1.8731,1.9187,1.932,1.9386,1.9584,2.0096,2.0161,2.0031,2.0322,2.0846,2.1451,2.1987,2.2197,2.2197,2.2197,2.2197,2.2247,2.258,2.322,2.3917,2.4092,2.439,2.4828,2.4834,2.5077,2.5612,2.5942,2.6216,2.6438,2.6031,2.5252,2.4178,2.3648,2.2979,2.1949,2.1807,2.1731,2.1482,2.0847,2.0226,1.9599,1.8984,1.8442,1.8031,1.77,1.7228,1.6806,1.6382,1.6026,1.5561,1.5457,1.4957,1.4518,1.388,1.3288,1.279,1.2699,1.2784,1.2705,1.2705,1.2619,1.254,1.2301,1.2055,1.1882,1.1716,1.1537,1.1532,1.144,1.1354,1.1267,1.1267,1.1267,1.1267,1.0906,1.0458,1.0111,0.8627,0.7404,0.6868,0.6425,0.6163,0.5811,0.5633,0.5275,0.5095,0.4736,0.4556,0.4914,0.4914,0.4919,0.4832,0.4917,0.5082,0.4712,0.4991,0.4821,1.5877,1.6167,1.6524,1.6585,1.6515,1.6515,1.6585,1.6645,1.6645,1.6793,1.707,1.7619,1.7833,1.7959,1.8654,1.9008,1.8998,1.8931,1.932,2.0085,2.0139,2.0215,2.0484,2.088,2.0996,2.0858,2.1227,2.1565,2.1702,2.2061,2.2197,2.2197,2.2197,2.2197,2.2309,2.2811,2.3386,2.3962,2.4452,2.4751,2.4948,2.4765,2.4651,2.4734,2.5079,2.5484,2.5735,2.5614,2.4913,2.3925,2.3406,2.2666,2.1511,2.1507,2.158,2.1515,2.1181,2.0702,2.0226,1.946,1.8763,1.8353,1.8112,1.773,1.7154,1.7146,1.6839,1.6417,1.628,1.6207,1.5741,1.5213,1.4545,1.3795,1.3542,1.3542,1.3542,1.3633,1.3392,1.2997,1.2466,1.2203,1.2037,1.1791,1.1618,1.1613,1.144,1.1267,1.1267,1.1267,1.1267,1.1267,1.1084,1.0906,1.0641,0.968,0.8715,0.8093,0.7401,0.7051,0.6782,0.6605,0.6517,0.6425,0.6245,0.6154,0.6065,0.6062,0.5974,0.5888,0.6071,0.6328,0.6142,0.5965,0.5869,1.7442,1.7442,1.7442,1.7354,1.7207,1.7198,1.7198,1.7599,1.7531,1.7959,1.8519,1.8731,1.8865,1.8998,1.9704,2.0096,2.0096,1.9879,2.0128,2.0824,2.0824,2.0899,2.1123,2.125,2.1553,2.199,2.2469,2.2555,2.2347,2.2247,2.2185,2.2197,2.2197,2.2197,2.2197,2.2871,2.3433,2.4034,2.4637,2.4991,2.5005,2.5005,2.4691,2.4281,2.423,2.47,2.5605,2.5268,2.4641,2.3688,2.2945,2.1815,2.0801,2.0897,2.1114,2.1092,2.0969,2.0874,2.0672,1.9728,1.9167,1.8913,1.8434,1.8103,1.8006,1.7925,1.7853,1.7764,1.7683,1.7529,1.6854,1.6577,1.6085,1.5553,1.5025,1.4996,1.5101,1.5282,1.5013,1.3972,1.3095,1.2357,1.21,1.1958,1.1759,1.1417,1.1257,1.1252,1.1145,1.1145,1.1219,1.1214,1.1139,1.099,1.0995,1.0814,1.0111,0.9405,0.8636,0.8032,0.7672,0.7404,0.7139,0.7044,0.6991,0.6809,0.7048,0.7044,0.7306,0.7313,0.7523,0.7407,0.7253,0.7046,0.7212,1.9486,1.8767,1.91,1.9233,1.909,1.909,1.941,1.9868,1.9486,1.9694,2.0161,1.9846,1.9977,2.0355,2.0677,2.106,2.1416,2.1353,2.1467,2.1655,2.1705,2.1717,2.1865,2.2249,2.2567,2.2763,2.2787,2.2787,2.2604,2.2432,2.2309,2.2185,2.2197,2.2197,2.2247,2.316,2.3846,2.4079,2.5077,2.5508,2.5369,2.5131,2.4778,2.4421,2.4216,2.4321,2.4575,2.4512,2.3991,2.3147,2.2834,2.208,2.1101,2.0709,2.0638,2.0659,2.0607,2.0495,2.0446,2.0335,1.9985,1.9672,1.9274,1.8975,1.8683,1.8282,1.804,1.804,1.8031,1.787,1.7666,1.7368,1.6694,1.5523,1.5189,1.5043,1.5109,1.4882,1.4547,1.4291,1.3933,1.3419,1.2845,1.2568,1.207,1.1481,1.1222,1.1056,1.0875,1.0912,1.0853,1.0859,1.0859,1.0923,1.0805,1.0758,1.0338,0.9843,0.9334,0.886,0.8515,0.807,0.7815,0.7599,0.7545,0.7598,0.7834,0.7897,0.7967,0.8017,0.7816,0.7842,0.7931,0.7891,0.7912,2.0677,2.002,2.0355,2.0495,2.0484,2.0484,2.0688,2.0996,2.0677,2.0688,2.0933,2.0677,2.0677,2.106,2.1376,2.1678,2.2113,2.2372,2.2494,2.2494,2.2494,2.2494,2.2494,2.2884,2.3078,2.303,2.2909,2.28,2.2616,2.2482,2.2309,2.2247,2.242,2.2531,2.2653,2.3708,2.4381,2.4509,2.5384,2.5812,2.5481,2.5188,2.4821,2.4523,2.4261,2.4112,2.408,2.4107,2.3689,2.2781,2.2155,2.133,2.0578,2.0278,2.0182,2.0213,2.0348,2.0422,2.0449,2.048,2.0404,2.0151,1.9956,1.9812,1.95,1.8991,1.8709,1.8674,1.825,1.8031,1.7907,1.7562,1.6921,1.6126,1.5802,1.5599,1.5481,1.5101,1.4818,1.4712,1.4515,1.4065,1.3528,1.3115,1.2667,1.2013,1.1433,1.1117,1.0875,1.073,1.0702,1.0622,1.0692,1.0632,1.0589,1.0594,1.0518,1.0206,0.9889,0.9524,0.9216,0.8759,0.8492,0.8033,0.787,0.777,0.8002,0.7959,0.8014,0.7966,0.793,0.802,0.8,0.7942,0.7852,2.125,2.1187,2.1187,2.1123,2.1123,2.1123,2.125,2.125,2.1187,2.125,2.125,2.1302,2.1365,2.1491,2.2101,2.2347,2.2347,2.2859,2.3185,2.3185,2.3245,2.3233,2.3065,2.3065,2.3017,2.2957,2.3017,2.2848,2.2653,2.2714,2.242,2.2543,2.2919,2.3148,2.3386,2.4408,2.4892,2.4991,2.5564,2.5798,2.555,2.5188,2.4878,2.458,2.4274,2.4125,2.4138,2.4001,2.3548,2.2567,2.1279,2.038,1.9865,1.9771,1.9865,1.9865,2.018,2.0498,2.0663,2.045,2.0278,2.0463,2.047,2.043,2.0267,1.9839,1.9613,1.955,1.8766,1.8176,1.7947,1.748,1.7052,1.685,1.6556,1.6565,1.669,1.6027,1.5531,1.5407,1.4897,1.4288,1.4034,1.3623,1.3311,1.2828,1.2164,1.1836,1.1441,1.1253,1.0872,1.0776,1.0852,1.0909,1.0998,1.0695,1.0627,1.0476,1.0239,0.9986,0.9649,0.9297,0.8856,0.8476,0.8185,0.8172,0.7975,0.7927,0.7874,0.7825,0.7918,0.7975,0.7898,0.7878,0.7878,2.3015,2.2445,2.2039,2.1865,2.1854,2.1865,2.2125,2.2445,2.2051,2.2187,2.2433,2.2531,2.2761,2.3267,2.3446,2.3577,2.3577,2.3767,2.3826,2.3884,2.4337,2.3872,2.3245,2.3138,2.3138,2.3138,2.3543,2.3603,2.3339,2.3636,2.3682,2.3505,2.3623,2.3787,2.3917,2.4637,2.4948,2.5061,2.5619,2.5893,2.5743,2.5286,2.4948,2.4835,2.4403,2.4112,2.4067,2.376,2.3318,2.2604,2.1678,2.0816,2.0388,2.0129,2.0017,1.9972,1.9913,2.0022,2.0424,2.0557,2.0706,2.0815,2.0889,2.0749,2.0494,1.9961,1.9735,1.9613,1.9136,1.8794,1.8601,1.7816,1.6998,1.6246,1.6418,1.6405,1.6135,1.5944,1.5702,1.5677,1.5518,1.5049,1.4593,1.4292,1.4008,1.3393,1.2873,1.2503,1.2177,1.1783,1.1449,1.1435,1.1438,1.145,1.138,1.1012,1.0795,1.073,1.0477,1.0181,0.9856,0.949,0.9069,0.8613,0.8671,0.8608,0.8078,0.7791,0.7737,0.8026,0.7943,0.806,0.7783,0.768,0.7774,2.4208,2.382,2.3467,2.3301,2.3301,2.3361,2.3374,2.3471,2.3433,2.3374,2.3577,2.3787,2.4079,2.4452,2.4452,2.4465,2.4452,2.4465,2.4452,2.4523,2.4781,2.4553,2.3989,2.3708,2.3662,2.393,2.4279,2.4279,2.4092,2.4337,2.4266,2.4092,2.4266,2.4394,2.4452,2.5034,2.5397,2.5453,2.5729,2.5893,2.5839,2.5467,2.5118,2.4948,2.4492,2.4216,2.4112,2.3819,2.3437,2.2871,2.2013,2.1262,2.0944,2.0355,2.0096,2.0096,1.9922,1.9942,2.0191,2.0555,2.0808,2.0937,2.1136,2.1279,2.1079,2.0657,2.035,2.0401,1.9646,1.9103,1.8786,1.7967,1.7104,1.6668,1.6466,1.6297,1.5885,1.584,1.5814,1.5805,1.5797,1.5638,1.5114,1.4947,1.4609,1.4099,1.3514,1.306,1.2693,1.2425,1.2137,1.1996,1.1855,1.1838,1.1721,1.1427,1.1214,1.1127,1.0959,1.0606,1.0158,0.9822,0.9612,0.9245,0.9189,0.9019,0.8681,0.8494,0.877,0.8894,0.8542,0.8461,0.8389,0.8165,0.8237,2.5175,2.5175,2.5063,2.5007,2.4894,2.4951,2.4553,2.4337,2.461,2.4553,2.4408,2.4794,2.5021,2.5063,2.5077,2.5077,2.5077,2.5077,2.5189,2.5189,2.5245,2.5077,2.5133,2.4439,2.4452,2.4794,2.5007,2.4908,2.4724,2.4681,2.4567,2.4553,2.4865,2.5061,2.516,2.5619,2.5839,2.5839,2.5839,2.5893,2.5839,2.5578,2.53,2.5005,2.4593,2.4319,2.4171,2.4054,2.3878,2.3522,2.2261,2.1765,2.1514,2.0741,2.042,2.0355,2.0302,2.0194,2.0194,2.052,2.0616,2.0761,2.1325,2.1847,2.1618,2.1308,2.109,2.1073,2.0015,1.9184,1.8656,1.7927,1.7508,1.7176,1.6908,1.6491,1.607,1.5876,1.5805,1.5805,1.5805,1.5805,1.5718,1.5542,1.5226,1.4966,1.4402,1.4034,1.3665,1.3375,1.2945,1.2439,1.2298,1.2077,1.2016,1.1868,1.1726,1.1577,1.1515,1.1211,1.071,1.0429,1.0259,1.01,1.0019,0.9992,0.9873,0.983,0.989,0.9664,0.9362,0.9588,0.9739,0.9367,0.9216,2.625,2.6212,2.5315,2.5007,2.5007,2.5007,2.4951,2.4894,2.5007,2.5063,2.4964,2.5481,2.5715,2.5715,2.5715,2.5729,2.5715,2.5715,2.5934,2.6326,2.5879,2.6042,2.6042,2.5356,2.4964,2.5133,2.5536,2.5536,2.5356,2.5536,2.577,2.5481,2.5495,2.566,2.5729,2.5784,2.5893,2.5893,2.5893,2.5893,2.5839,2.5633,2.5369,2.5005,2.4492,2.4216,2.4112,2.4125,2.4054,2.3819,2.333,2.2702,2.231,2.1741,2.1428,2.1313,2.0805,2.0506,2.0518,2.0582,2.0582,2.0669,2.1081,2.1383,2.1319,2.105,2.0837,2.0686,1.9987,1.9222,1.8582,1.8271,1.793,1.7579,1.7373,1.7166,1.6968,1.636,1.5947,1.5885,1.5814,1.5805,1.5805,1.5726,1.5638,1.5655,1.5426,1.5062,1.4768,1.433,1.3818,1.3244,1.2966,1.282,1.2673,1.2526,1.2298,1.2224,1.2077,1.2009,1.1527,1.1256,1.1271,1.1079,1.083,1.0875,1.0944,1.064,1.0565,1.0415,1.0265,1.0415,1.049,1.0265,1.0265,2.761,2.756,2.6813,2.6582,2.6529,2.6515,2.6409,2.625,2.6462,2.6212,2.5957,2.6375,2.651,2.634,2.634,2.6326,2.6326,2.634,2.65,2.6674,2.6447,2.65,2.6674,2.6204,2.5811,2.5797,2.6014,2.5974,2.5934,2.6002,2.6056,2.5893,2.5893,2.5893,2.5893,2.5893,2.5893,2.5893,2.5893,2.5893,2.5893,2.5743,2.5411,2.5005,2.4549,2.4261,2.4112,2.4125,2.4125,2.4054,2.3819,2.3497,2.2992,2.2482,2.2237,2.2113,2.1639,2.1135,2.1019,2.0903,2.0775,2.0635,2.0967,2.1169,2.1158,2.0962,2.0899,2.0764,2.0216,1.9515,1.8808,1.8674,1.8462,1.8259,1.792,1.7862,1.7725,1.7107,1.6447,1.6272,1.6166,1.606,1.5972,1.5947,1.5876,1.5797,1.5842,1.5621,1.5409,1.5037,1.4689,1.4258,1.384,1.3557,1.3419,1.3193,1.2966,1.2893,1.282,1.282,1.2647,1.2493,1.2392,1.2077,1.1774,1.2077,1.207,1.1768,1.1539,1.1694,1.162,1.1465,1.1391,1.1539,1.1539,2.8995,2.8933,2.8544,2.8384,2.8369,2.8225,2.7917,2.7625,2.8064,2.757,2.7085,2.7434,2.7363,2.71,2.7063,2.7011,2.7011,2.6922,2.6959,2.6959,2.6779,2.6727,2.6727,2.6674,2.6606,2.6578,2.6457,2.6312,2.6111,2.6071,2.6056,2.5948,2.5893,2.5893,2.5893,2.5893,2.5893,2.5893,2.5893,2.5893,2.5893,2.5839,2.5564,2.5061,2.4637,2.4305,2.4157,2.4125,2.4125,2.4125,2.4125,2.3878,2.3509,2.3065,2.2725,2.2665,2.2249,2.1877,2.1639,2.1463,2.1146,2.0828,2.0967,2.1169,2.1169,2.1071,2.0996,2.082,2.0358,1.9743,1.9239,1.9075,1.9065,1.8931,1.8607,1.8472,1.8337,1.793,1.7489,1.6808,1.6722,1.6581,1.6413,1.6289,1.6149,1.6,1.6123,1.6175,1.5965,1.5824,1.5542,1.5321,1.4974,1.4625,1.4402,1.4194,1.397,1.3615,1.3622,1.3484,1.3484,1.3193,1.2973,1.29,1.282,1.2966,1.2966,1.2739,1.2666,1.2973,1.2746,1.2372,1.2519,1.2826,1.2746,2.9886,2.9816,2.9025,2.8717,2.867,2.8417,2.8321,2.8192,2.8321,2.824,2.8046,2.8094,2.8094,2.8012,2.8012,2.8012,2.7815,2.758,2.7378,2.7342,2.71,2.6922,2.6974,2.7129,2.698,2.6803,2.6823,2.663,2.6221,2.6071,2.6295,2.6018,2.6059,2.6073,2.5962,2.5893,2.5974,2.596,2.5988,2.6056,2.592,2.5879,2.5619,2.5061,2.4751,2.4408,2.4157,2.4112,2.4125,2.4125,2.4125,2.4054,2.3878,2.3497,2.3258,2.3138,2.275,2.2433,2.2372,2.2002,2.1827,2.1639,2.14,2.1221,2.1146,2.0962,2.0835,2.0518,2.0151,1.9645,1.956,1.9274,1.9131,1.9065,1.8998,1.8931,1.8865,1.8731,1.8327,1.7567,1.7344,1.7199,1.6894,1.6784,1.6784,1.6802,1.6959,1.7019,1.695,1.6811,1.6603,1.6385,1.6167,1.5816,1.5455,1.5321,1.5037,1.4537,1.433,1.4122,1.3985,1.3557,1.3411,1.3695,1.355,1.3484,1.3484,1.3484,1.3404,1.3397,1.3258,1.3119,1.3331,1.347,1.3331,3.0999,3.0903,3.0168,2.9843,2.98,2.9669,2.9508,2.9345,2.9329,2.9088,2.8826,2.8685,2.8543,2.8336,2.8288,2.8288,2.8255,2.8061,2.7898,2.7799,2.7665,2.758,2.7634,2.791,2.8075,2.8158,2.8144,2.7598,2.6923,2.7252,2.704,2.684,2.6906,2.6816,2.6383,2.6457,2.6226,2.609,2.624,2.6308,2.5983,2.5932,2.5674,2.53,2.4935,2.4567,2.4182,2.4099,2.4125,2.4125,2.4125,2.4125,2.4054,2.3936,2.376,2.3628,2.3305,2.3005,2.2932,2.2555,2.2237,2.2249,2.1815,2.1577,2.1451,2.1227,2.0782,2.0366,1.9922,1.9497,1.933,1.9208,1.9131,1.9131,1.9131,1.9131,1.9131,1.9131,1.8731,1.824,1.8056,1.7725,1.7316,1.725,1.7328,1.7503,1.7706,1.7794,1.7852,1.7579,1.7295,1.701,1.6655,1.6306,1.6097,1.6097,1.5886,1.5463,1.5108,1.4895,1.4681,1.4474,1.4545,1.476,1.4553,1.4266,1.4049,1.4114,1.4042,1.397,1.397,1.397,1.397,1.397,1.397,3.1968,3.1825,3.1227,3.0948,3.0918,3.1012,3.0875,3.0709,3.0806,3.0544,2.9929,2.984,2.9734,2.9375,2.9234,2.9107,2.8872,2.8776,2.8666,2.8494,2.8504,2.8535,2.8688,2.9169,2.9535,2.9475,2.9645,2.9232,2.8247,2.8274,2.8132,2.7781,2.7988,2.7695,2.6905,2.6864,2.6576,2.6562,2.6709,2.6695,2.6285,2.6144,2.5988,2.5743,2.5439,2.4995,2.4233,2.4473,2.4593,2.4549,2.4447,2.4287,2.4287,2.4171,2.4112,2.4054,2.376,2.3582,2.339,2.3065,2.2738,2.275,2.231,2.2125,2.1987,2.1698,2.1238,2.0604,2.0257,2.0062,1.9901,1.9452,1.9386,1.933,1.9264,1.9131,1.9131,1.9131,1.9131,1.8757,1.8598,1.8388,1.8073,1.8016,1.8113,1.8133,1.8337,1.8259,1.8259,1.7988,1.7706,1.7354,1.7079,1.6664,1.6524,1.6664,1.6455,1.6097,1.5877,1.5737,1.5596,1.5455,1.5534,1.5534,1.5604,1.5321,1.51,1.4816,1.4744,1.4744,1.4816,1.4824,1.4824,1.4895,1.4966,3.2519,3.2214,3.1842,3.1528,3.1375,3.1695,3.1875,3.1918,3.2437,3.2746,3.2243,3.2199,3.2088,3.2083,3.1892,3.1359,3.0728,3.0148,2.9722,2.9422,2.942,2.9492,2.9453,2.994,3.0522,3.0643,3.0693,3.0142,2.96,2.9381,2.8832,2.8346,2.8252,2.78,2.7144,2.7225,2.7056,2.6975,2.7056,2.7056,2.6975,2.6901,2.6745,2.6549,2.6254,2.5626,2.4628,2.497,2.5412,2.5439,2.5118,2.4892,2.4848,2.4403,2.4171,2.4125,2.4067,2.4008,2.3878,2.3556,2.3318,2.3185,2.2811,2.2604,2.2322,2.2219,2.195,2.2166,2.1562,2.1158,2.0782,2.0409,2.0096,1.9846,1.9649,1.9386,1.9264,1.9649,1.9584,1.9515,1.9396,1.9166,1.89,1.89,1.8911,1.8931,1.8942,1.8875,1.8664,1.8327,1.7988,1.7706,1.7569,1.7226,1.7088,1.7157,1.7019,1.6802,1.6664,1.6585,1.6446,1.6306,1.5948,1.6026,1.6167,1.6306,1.6018,1.5807,1.5666,1.5596,1.5596,1.5596,1.5604,1.5745,1.5956,3.3413,3.2844,3.25,3.2546,3.2826,3.2827,3.2977,3.3231,3.3345,3.3288,3.3117,3.2927,3.2927,3.3098,3.2884,3.2569,3.2116,3.1645,3.1362,3.1024,3.1019,3.1023,3.1166,3.1709,3.2175,3.1883,3.2029,3.2075,3.1389,3.0769,3.0123,2.9182,2.9215,2.8785,2.7724,2.7725,2.7505,2.7405,2.7524,2.7694,2.7503,2.724,2.7056,2.6953,2.6654,2.604,2.5593,2.5476,2.5962,2.5895,2.5466,2.5005,2.4835,2.4447,2.4125,2.4125,2.4125,2.4125,2.4054,2.3878,2.3819,2.37,2.3305,2.2919,2.2592,2.2212,2.2051,2.1894,2.1578,2.1404,2.1393,2.0921,2.0805,2.056,2.0291,2.0161,2.0096,2.0226,2.0377,2.026,2.0129,1.9932,1.9681,1.9452,1.9243,1.9065,1.9008,1.9008,1.8798,1.8596,1.8269,1.793,1.793,1.7862,1.7725,1.7725,1.7657,1.7442,1.7442,1.7364,1.7295,1.7088,1.6802,1.6872,1.7226,1.7157,1.6941,1.6655,1.6376,1.6376,1.6376,1.6376,1.6446,1.6872,1.7019,3.4516,3.389,3.3497,3.358,3.4026,3.4093,3.4391,3.4679,3.4565,3.4309,3.4066,3.399,3.3878,3.3715,3.3782,3.3732,3.3342,3.3079,3.2796,3.2718,3.2817,3.2735,3.2856,3.3409,3.3694,3.3208,3.3157,3.3135,3.2788,3.2173,3.1167,3.0144,3.0121,2.951,2.8621,2.8244,2.8012,2.7659,2.805,2.816,2.792,2.761,2.7494,2.7342,2.7122,2.6805,2.6576,2.6424,2.6529,2.6519,2.6004,2.5605,2.5495,2.4892,2.4447,2.4345,2.4287,2.4125,2.4125,2.4054,2.4112,2.3995,2.3819,2.3378,2.2992,2.2359,2.2165,2.2347,2.2055,2.1848,2.1584,2.1491,2.1365,2.125,2.1123,2.1123,2.106,2.0996,2.0869,2.0722,2.0649,2.0629,2.0314,1.9922,1.9584,1.9198,1.9065,1.9131,1.9065,1.8921,1.8854,1.8654,1.8529,1.8462,1.8337,1.8269,1.8202,1.8066,1.8066,1.8008,1.7794,1.7725,1.7579,1.7862,1.8076,1.7862,1.7442,1.7295,1.7148,1.7157,1.7157,1.7157,1.7364,1.7794,1.7862,3.5845,3.56,3.5006,3.4563,3.4253,3.5578,3.6185,3.6203,3.6488,3.6466,3.622,3.6149,3.5479,3.5211,3.5159,3.4922,3.4141,3.4114,3.3795,3.3611,3.3684,3.3974,3.418,3.4489,3.4861,3.4546,3.4117,3.3729,3.3466,3.2873,3.2044,3.1351,3.072,3.0043,2.9204,2.8575,2.8378,2.8125,2.836,2.8409,2.8314,2.825,2.8186,2.8186,2.8088,2.7944,2.7685,2.7494,2.7372,2.7365,2.6698,2.6365,2.6096,2.5425,2.4991,2.4821,2.462,2.4447,2.4376,2.4229,2.4125,2.4125,2.4008,2.3903,2.362,2.3718,2.3573,2.321,2.282,2.287,2.2616,2.2433,2.2113,2.1928,2.1815,2.1628,2.1565,2.1502,2.1313,2.1123,2.1158,2.1331,2.1158,2.0812,2.0268,1.989,1.9704,1.9715,1.9639,1.9562,1.9628,1.9497,1.9299,1.911,1.8921,1.8787,1.8664,1.8529,1.8462,1.8337,1.8066,1.8134,1.8269,1.8337,1.8462,1.8202,1.8076,1.7978,1.7978,1.793,1.7872,1.7657,1.7647,1.7862,1.8008,3.6502,3.6793,3.7047,3.6887,3.638,3.6616,3.6978,3.7394,3.7326,3.7117,3.689,3.6706,3.6392,3.6011,3.5968,3.5908,3.5488,3.5254,3.4955,3.4939,3.5047,3.5015,3.5138,3.5143,3.5304,3.4901,3.4415,3.4136,3.3815,3.3423,3.3328,3.2633,3.1317,3.0156,2.9362,2.883,2.8506,2.8396,2.8411,2.8411,2.8411,2.8411,2.8411,2.8411,2.8284,2.8152,2.794,2.784,2.7725,2.7509,2.7049,2.6841,2.6683,2.5906,2.5591,2.5481,2.5147,2.509,2.4865,2.4563,2.4112,2.4067,2.4067,2.3962,2.3988,2.376,2.3569,2.345,2.3368,2.3236,2.3017,2.2871,2.2689,2.2616,2.2494,2.2261,2.2125,2.2063,2.2063,2.2002,2.2063,2.2261,2.2003,2.1673,2.1095,2.0579,2.0398,2.0279,2.0204,2.0322,2.0451,2.0268,2.0074,1.9879,1.9694,1.9375,1.9054,1.8988,1.8911,1.8787,1.8664,1.8654,1.8721,1.8854,1.8921,1.8921,1.8854,1.8787,1.8596,1.8269,1.8066,1.794,1.8008,1.8008,1.8008,3.7343,3.8004,3.8726,3.8591,3.7904,3.7643,3.7835,3.8147,3.7826,3.747,3.7102,3.7058,3.6878,3.6574,3.6492,3.6367,3.619,3.5977,3.5924,3.589,3.5812,3.5766,3.5722,3.5677,3.5694,3.5098,3.4769,3.456,3.4284,3.4086,3.3887,3.3281,3.2193,3.109,3.0125,2.8978,2.8496,2.8558,2.8444,2.8411,2.8411,2.8411,2.8411,2.8411,2.8299,2.8201,2.8069,2.7905,2.779,2.7575,2.7255,2.7034,2.6774,2.6443,2.6122,2.6014,2.5906,2.5837,2.5522,2.5048,2.4287,2.4112,2.4067,2.3982,2.3884,2.3669,2.3636,2.339,2.3283,2.315,2.3138,2.3005,2.3005,2.2871,2.2871,2.275,2.2763,2.275,2.2811,2.2823,2.2871,2.275,2.2665,2.2286,2.1744,2.1279,2.1215,2.0974,2.0858,2.1037,2.1404,2.1164,2.0782,2.0666,2.0473,2.002,1.9639,1.9573,1.9507,1.9573,1.9441,1.9375,1.9375,1.9507,1.9573,1.9639,1.9573,1.9441,1.8977,1.8452,1.8259,1.8008,1.8008,1.8008,1.8008,3.8485,3.9223,3.9771,3.9223,3.8186,3.8729,3.8894,3.8701,3.83,3.7877,3.7506,3.747,3.7266,3.696,3.6865,3.6741,3.6533,3.6367,3.6284,3.6284,3.6216,3.6199,3.6199,3.6156,3.6002,3.5871,3.5481,3.5052,3.4769,3.448,3.4235,3.3974,3.3275,3.2272,3.1627,2.9546,2.8715,2.895,2.8637,2.8573,2.8573,2.8621,2.8621,2.8541,2.8493,2.8348,2.8069,2.7955,2.779,2.7575,2.7509,2.7408,2.7357,2.693,2.6721,2.6669,2.6176,2.5946,2.5797,2.5272,2.4835,2.4345,2.4287,2.4144,2.3989,2.38,2.3662,2.3428,2.3334,2.3248,2.3163,2.3125,2.3138,2.3125,2.3125,2.3125,2.3125,2.3125,2.3125,2.3125,2.3125,2.3065,2.3065,2.2871,2.2298,2.1928,2.1916,2.1791,2.1553,2.1678,2.2113,2.199,2.1616,2.1439,2.125,2.0613,2.0226,2.0161,2.0161,2.0355,2.0226,2.0096,2.0096,2.0172,2.0226,2.0291,2.0226,2.0107,1.9637,1.9091,1.8279,1.8008,1.8008,1.8008,1.8008,3.938,4.0085,4.0287,3.9929,3.927,3.9321,3.9298,3.921,3.8894,3.8456,3.7998,3.7907,3.7666,3.7399,3.7287,3.719,3.7038,3.6759,3.6719,3.6638,3.6468,3.6326,3.6284,3.6259,3.6191,3.6019,3.5722,3.5543,3.5316,3.5021,3.5021,3.4885,3.4101,3.297,3.145,2.991,2.9464,2.9512,2.9409,2.9335,2.9319,2.9273,2.9152,2.8873,2.8795,2.851,2.8103,2.7989,2.7825,2.7625,2.756,2.756,2.756,2.7255,2.7255,2.7255,2.6967,2.6774,2.6563,2.6136,2.5646,2.5104,2.4664,2.4478,2.4047,2.3767,2.3582,2.3394,2.3261,2.3236,2.3138,2.3138,2.3138,2.3138,2.3125,2.3125,2.3125,2.3125,2.3125,2.3125,2.3125,2.3125,2.3125,2.3125,2.2628,2.2506,2.2494,2.2555,2.2433,2.2506,2.275,2.2641,2.2457,2.2273,2.1963,2.1451,2.0996,2.0869,2.1071,2.1325,2.1135,2.0816,2.1019,2.121,2.1008,2.0869,2.0944,2.085,2.0369,1.9818,1.9014,1.8405,1.8337,1.8202,1.8008,3.9954,4.0623,4.0629,4.0434,4.0081,3.9766,3.9599,3.9477,3.9219,3.884,3.8497,3.8337,3.8107,3.7814,3.7718,3.7578,3.7487,3.7246,3.6939,3.69,3.6638,3.6451,3.6343,3.6276,3.6105,3.5975,3.5949,3.5756,3.5577,3.5577,3.5532,3.5346,3.4861,3.3795,3.2271,3.1292,3.0174,3.019,3.0087,3.0069,2.9863,2.9705,2.9617,2.9409,2.9182,2.8858,2.8398,2.8122,2.791,2.771,2.761,2.761,2.761,2.756,2.756,2.756,2.756,2.7357,2.71,2.6997,2.6457,2.5756,2.5439,2.5003,2.4495,2.421,2.3927,2.3675,2.3321,2.321,2.3185,2.3198,2.3365,2.3365,2.3424,2.3424,2.3185,2.3245,2.3245,2.3245,2.3245,2.3185,2.3185,2.3125,2.2944,2.3005,2.3065,2.3125,2.3185,2.3125,2.3078,2.2957,2.2909,2.2653,2.2469,2.2285,2.1901,2.1577,2.1714,2.1925,2.1851,2.1537,2.1862,2.2061,2.1726,2.1537,2.1726,2.1596,2.0952,2.0369,1.9703,1.9121,1.8798,1.8596,1.8529,4.0271,4.0858,4.0888,4.073,4.0438,4.008,3.9762,3.9526,3.9245,3.9109,3.9061,3.8766,3.848,3.8199,3.8125,3.7948,3.7685,3.7578,3.7358,3.7094,3.6995,3.6696,3.6426,3.6276,3.6174,3.5975,3.5817,3.5773,3.5639,3.5639,3.5639,3.5504,3.5013,3.4341,3.3477,3.2694,3.1464,3.1132,3.0773,3.0613,3.0264,3.0011,2.9984,2.9853,2.9617,2.9303,2.8889,2.8559,2.8189,2.791,2.766,2.761,2.7625,2.756,2.756,2.756,2.756,2.7575,2.7524,2.7458,2.7255,2.6563,2.6176,2.5772,2.5246,2.4731,2.44,2.4138,2.3811,2.3509,2.3352,2.3649,2.3884,2.3943,2.3943,2.3767,2.3484,2.3424,2.3424,2.3412,2.3471,2.3471,2.359,2.3471,2.3564,2.3636,2.3754,2.3708,2.359,2.3125,2.3125,2.3078,2.2957,2.2909,2.2787,2.2665,2.2359,2.1963,2.1987,2.2061,2.2061,2.2061,2.2123,2.2123,2.2197,2.2123,2.2061,2.1765,2.1353,2.076,2.0495,1.9976,1.9609,1.9617,1.9573,4.0792,4.0888,4.0888,4.0742,4.0489,4.0272,4.0057,3.9762,3.9502,3.9383,3.9345,3.8892,3.873,3.8773,3.8615,3.8465,3.8252,3.8068,3.7931,3.7703,3.7358,3.7188,3.6956,3.6655,3.6409,3.6156,3.6002,3.58,3.5667,3.5622,3.5622,3.5537,3.5345,3.5023,3.4641,3.437,3.317,3.2085,3.1599,3.1057,3.0816,3.0675,3.0535,3.0326,3.0097,2.9689,2.9287,2.9028,2.8654,2.8222,2.8125,2.8027,2.761,2.756,2.756,2.756,2.756,2.756,2.756,2.756,2.7473,2.7233,2.6945,2.6308,2.5743,2.5215,2.4946,2.4664,2.4452,2.4173,2.4168,2.4394,2.4509,2.4452,2.4509,2.4452,2.4221,2.4105,2.4105,2.4105,2.4105,2.4097,2.4168,2.4239,2.4341,2.4425,2.4381,2.4337,2.4176,2.3708,2.3471,2.3412,2.3352,2.3412,2.3017,2.2836,2.2604,2.242,2.242,2.2359,2.2297,2.2235,2.2185,2.2197,2.2197,2.2197,2.2197,2.1901,2.1667,2.1815,2.1588,2.1003,2.0511,2.049,2.042,4.1042,4.0999,4.0988,4.0849,4.0662,4.046,4.0271,4.01,3.9807,3.9647,3.9631,3.921,3.9055,3.9027,3.8913,3.8762,3.8645,3.8433,3.8219,3.7948,3.7774,3.7469,3.7246,3.6995,3.6759,3.6516,3.635,3.6199,3.5941,3.5827,3.5844,3.5622,3.5739,3.5484,3.5186,3.505,3.4584,3.3363,3.2391,3.1704,3.1343,3.1207,3.0975,3.074,3.0477,3.014,2.9689,2.9483,2.9104,2.8685,2.8638,2.8352,2.7944,2.7745,2.761,2.756,2.756,2.756,2.7575,2.7539,2.7488,2.7401,2.7299,2.6826,2.6328,2.5844,2.556,2.5369,2.5135,2.4943,2.5052,2.5133,2.5063,2.5007,2.5133,2.5203,2.5077,2.4951,2.4964,2.4921,2.4924,2.4898,2.4927,2.501,2.4995,2.4811,2.4781,2.4724,2.4624,2.4394,2.4221,2.4163,2.4105,2.3989,2.359,2.3305,2.3258,2.3125,2.2932,2.2871,2.2641,2.2531,2.2531,2.2359,2.2197,2.2197,2.2197,2.2197,2.2049,2.2197,2.2197,2.1694,2.1288,2.1295,2.1198,4.1094,4.1085,4.1084,4.0988,4.0888,4.0615,4.0504,4.0457,4.0101,3.9951,3.986,3.9594,3.9338,3.9171,3.9082,3.8892,3.875,3.8627,3.8451,3.8135,3.8068,3.7844,3.7542,3.717,3.7038,3.6978,3.6856,3.6609,3.6409,3.6326,3.6156,3.5756,3.6045,3.5968,3.5691,3.5562,3.5043,3.4159,3.3245,3.25,3.1596,3.1292,3.1151,3.0975,3.0814,3.0593,3.014,2.9881,2.9617,2.9303,2.9074,2.8873,2.8304,2.7845,2.766,2.756,2.756,2.756,2.7575,2.7524,2.7452,2.7365,2.7159,2.6989,2.6611,2.6323,2.6097,2.5977,2.5788,2.5655,2.5741,2.5839,2.5853,2.5952,2.6078,2.6287,2.6386,2.626,2.6162,2.6078,2.5911,2.5883,2.56,2.5697,2.5741,2.5384,2.5342,2.5342,2.53,2.5189,2.4964,2.4838,2.461,2.4509,2.4408,2.4189,2.4073,2.3943,2.3682,2.3386,2.3207,2.304,2.2871,2.2531,2.2197,2.2197,2.2197,2.2197,2.2197,2.2197,2.2197,2.2197,2.2111,2.1975,2.1851,4.1114,4.1085,4.0979,4.0926,4.0878,4.0718,4.0588,4.0489,4.0425,4.0289,4.0137,3.9758,3.9483,3.9414,3.9227,3.9036,3.878,3.875,3.8658,3.8483,3.835,3.8168,3.7946,3.7524,3.7361,3.7301,3.7238,3.7023,3.6816,3.6759,3.6719,3.6539,3.6516,3.6259,3.6045,3.5812,3.5226,3.4641,3.41,3.3262,3.229,3.1529,3.1151,3.1032,3.0855,3.0773,3.0468,3.0326,3.0054,2.9705,2.9677,2.915,2.8336,2.7879,2.766,2.761,2.766,2.766,2.7575,2.7524,2.7488,2.7401,2.7262,2.7137,2.6937,2.6745,2.6582,2.6515,2.6409,2.6347,2.6394,2.6533,2.673,2.6935,2.7109,2.734,2.7611,2.7483,2.7396,2.7226,2.7042,2.6726,2.6457,2.6328,2.6361,2.6365,2.6433,2.6379,2.6326,2.6165,2.5591,2.5412,2.5077,2.4908,2.4991,2.4962,2.4805,2.458,2.4297,2.4066,2.3846,2.362,2.3349,2.258,2.2197,2.2481,2.2555,2.2247,2.2247,2.2309,2.2197,2.2197,2.2197,2.2049,2.2123,4.1112,4.1088,4.102,4.1007,4.0971,4.0849,4.0761,4.0688,4.0564,4.046,4.0362,4.0019,3.9804,3.9693,3.9526,3.921,3.8939,3.8881,3.8713,3.859,3.8496,3.8368,3.815,3.7859,3.7826,3.7757,3.7502,3.7297,3.7188,3.7132,3.7132,3.6939,3.6678,3.6492,3.6326,3.582,3.5464,3.503,3.4769,3.4058,3.3034,3.2266,3.1375,3.116,3.0871,3.0749,3.0651,3.051,3.0384,3.007,2.9897,2.9661,2.9058,2.8654,2.8222,2.7978,2.7944,2.781,2.7675,2.7575,2.7539,2.7401,2.7196,2.7033,2.6966,2.6841,2.6721,2.6654,2.6654,2.6592,2.701,2.7238,2.7556,2.7804,2.7934,2.8121,2.8237,2.8194,2.8107,2.8035,2.783,2.7637,2.7392,2.7074,2.7035,2.6592,2.6779,2.6794,2.6794,2.6794,2.6326,2.5974,2.5646,2.5701,2.5948,2.5771,2.5424,2.5188,2.5021,2.4805,2.454,2.4242,2.3841,2.3401,2.3169,2.3339,2.3326,2.2973,2.2629,2.275,2.2469,2.2197,2.2209,2.2246,2.2221,4.1112,4.1101,4.1091,4.111,4.1098,4.098,4.0917,4.0849,4.0648,4.0519,4.0476,4.0327,4.0138,3.9956,3.9851,3.9551,3.9245,3.9027,3.8807,3.8646,3.8446,3.8368,3.8289,3.8207,3.8122,3.8002,3.7792,3.7667,3.7613,3.7596,3.745,3.7111,3.6956,3.6838,3.6392,3.6071,3.5735,3.5555,3.5239,3.4762,3.3914,3.3018,3.19,3.1247,3.084,3.0651,3.051,3.0468,3.0468,3.03,3.0044,2.9766,2.954,2.9118,2.8795,2.8512,2.8415,2.8174,2.7894,2.771,2.7575,2.7401,2.7159,2.7033,2.7047,2.7053,2.6948,2.7084,2.7084,2.7215,2.7581,2.7926,2.8274,2.8681,2.8782,2.8927,2.8942,2.8956,2.8913,2.8869,2.8645,2.8449,2.8174,2.7891,2.7568,2.7094,2.6881,2.6823,2.6808,2.6794,2.6553,2.6447,2.6326,2.65,2.6674,2.6426,2.6048,2.6021,2.5883,2.5604,2.5358,2.5255,2.5004,2.4528,2.4416,2.4559,2.4313,2.3936,2.3659,2.3485,2.3045,2.2763,2.2474,2.2474,2.233,4.1112,4.1101,4.1109,4.1106,4.1091,4.1052,4.0996,4.0898,4.073,4.0602,4.0508,4.0344,4.0138,3.9895,3.9895,3.9675,3.9433,3.9181,3.9017,3.8828,3.8523,3.8368,3.8274,3.8207,3.8192,3.814,3.8054,3.8072,3.7933,3.7967,3.802,3.7881,3.7432,3.7303,3.719,3.6803,3.6399,3.6163,3.5882,3.5514,3.4278,3.3288,3.2253,3.1574,3.1091,3.0767,3.051,3.051,3.0468,3.0359,3.0119,2.993,2.9733,2.952,2.9207,2.9042,2.8935,2.8638,2.8352,2.8174,2.8042,2.7539,2.7395,2.738,2.7416,2.7486,2.7642,2.8088,2.8117,2.8018,2.8293,2.8477,2.8768,2.9348,2.9653,2.9871,3.0001,2.9972,2.9914,2.9666,2.9377,2.9045,2.8627,2.8411,2.8225,2.7839,2.7549,2.7461,2.7157,2.6997,2.6895,2.6953,2.6997,2.6794,2.6794,2.6871,2.6623,2.668,2.6771,2.6624,2.653,2.6521,2.6223,2.5807,2.5735,2.5874,2.5524,2.5174,2.489,2.4679,2.3971,2.3513,2.3128,2.2811,2.2751]},{"header":{"parameterUnit":"m.s-1","parameterCategory":1,"la1":31.0,"la2":29.5877,"lo1":-88.7671,"lo2":-86.6584,"dy":0.0162,"dx":0.0185,"nx":115,"ny":88,"refTime":"2023-09-09T06:00:00:Z","depth":0,"parameterNumber":3,"parameterNumberName":"V-component_of_WINDS"},"data":[0.0,0.0,0.0,0.0,0.0,0.0,0.0,0.0,0.0,0.0,0.0,0.0,0.0,0.0,0.0,0.0,0.0,0.0,0.0,0.0,0.0,0.0,0.0,0.0,0.0,0.0,0.0,0.0,0.0,0.0,0.0,0.0,0.0,0.0,0.0,0.0,0.0,0.0,0.0,0.0,0.0,0.0,0.0,0.0,0.0,0.0,0.0,0.0,0.0,0.0,0.0,0.0,0.0,0.0,0.0,0.0,0.0,0.0,0.0,0.0,0.0,0.0,0.0,0.0,0.0,0.0,0.0,0.0,0.0,0.0,0.0,0.0,0.0,0.0,0.0,0.0,0.0,0.0,0.0,0.0,0.0,0.0,0.0,0.0,0.0,0.0,0.0,0.0,0.0,0.0,0.0,0.0,0.0,0.0,0.0,0.0,0.0,0.0,0.0,0.0,0.0,0.0,0.0,0.0,0.0,0.0,0.0,0.0,0.0,0.0,0.0,0.0,0.0,0.0,0.0,0.0,0.0,0.0,0.0,0.0,0.0,0.0,0.0,0.0,0.0,0.0,0.0,0.0,0.0,0.0,0.0,0.0,0.0,0.0,0.0,0.0,0.0,0.0,0.0,0.0,0.0,0.0,0.0,0.0,0.0,0.0,0.0,0.0,0.0,0.0,0.0,0.0,0.0,0.0,0.0,0.0,0.0,0.0,0.0,0.0,0.0,0.0,0.0,0.0,0.0,0.0,0.0,0.0,0.0,0.0,0.0,0.0,0.0,0.0,0.0,0.0,0.0,0.0,0.0,0.0,0.0,0.0,0.0,0.0,0.0,0.0,0.0,0.0,0.0,0.0,0.0,0.0,0.0,0.0,0.0,0.0,0.0,0.0,0.0,0.0,0.0,0.0,0.0,0.0,0.0,0.0,0.0,0.0,0.0,0.0,0.0,0.0,0.0,0.0,0.0,0.0,0.0,0.0,0.0,0.0,0.0,0.0,0.0,0.0,0.0,0.0,0.0,0.0,0.0,0.0,0.0,0.0,0.0,0.0,0.0,0.0,0.0,0.0,0.0,0.0,0.0,0.0,0.0,0.0,0.0,0.0,0.0,0.0,0.0,0.0,0.0,0.0,0.0,0.0,0.0,0.0,0.0,0.0,0.0,0.0,0.0,0.0,0.0,0.0,0.0,0.0,0.0,0.0,0.0,0.0,0.0,0.0,0.0,0.0,0.0,0.0,0.0,0.0,0.0,0.0,0.0,0.0,0.0,0.0,0.0,0.0,0.0,0.0,0.0,0.0,0.0,0.0,0.0,0.0,0.0,0.0,0.0,0.0,0.0,0.0,0.0,0.0,0.0,0.0,0.0,0.0,0.0,0.0,0.0,0.0,0.0,0.0,0.0,0.0,0.0,0.0,0.0,0.0,0.0,0.0,0.0,0.0,0.0,0.0,0.0,0.0,0.0,0.0,0.0,0.0,0.0,0.0,0.0,0.0,0.0,0.0,0.0,0.0,0.0,0.0,0.0,0.0,0.0,0.0,0.0,0.0,0.0,0.0,0.0,0.0,0.0,0.0,0.0,0.0,0.0,0.0,0.0,0.0,0.0,0.0,0.0,0.0,0.0,0.0,0.0,0.0,0.0,0.0,0.0,0.0,0.0,0.0,0.0,0.0,0.0,0.0,0.0,0.0,0.0,0.0,0.0,0.0,0.0,0.0,0.0,0.0,0.0,0.0,0.0,0.0,0.0,0.0,0.0,0.0,0.0,0.0,0.0,0.0,0.0,0.0,0.0,0.0,0.0,0.0,0.0,0.0,0.0,0.0,0.0,0.0,0.0,0.0,0.0,0.0,0.0,0.0,0.0,0.0,0.0,0.0,0.0,0.0,0.0,0.0,0.0,0.0,0.0,0.0,0.0,0.0,0.0,0.0,0.0,0.0,0.0,0.0,0.0,0.0,0.0,0.0,0.0,0.0,0.0,0.0,0.0,0.0,0.0,0.0,0.0,0.0,0.0,0.0,0.0,0.0,0.0,0.0,0.0,0.0,0.0,0.0,0.0,0.0,0.0,0.0,0.0,0.0,0.0,0.0,0.0,0.0,0.0,0.0,0.0,0.0,0.0,0.0,0.0,0.0,0.0,0.0,0.0,0.0,0.0,0.0,0.0,0.0,0.0,0.0,0.0,0.0,0.0,0.0,0.0,0.0,0.0,0.0,0.0,0.0,0.0,0.0,0.0,0.0,0.0,0.0,0.0,0.0,0.0,0.0,0.0,0.0,0.0,0.0,0.0,0.0,0.0,0.0,0.0,0.0,0.0,0.0,0.0,0.0,0.0,0.0,0.0,0.0,0.0,0.0,0.0,0.0,0.0,0.0,0.0,0.0,0.0,0.0,0.0,0.0,0.0,0.0,0.0,0.0,0.0,0.0,0.0,0.0,0.0,0.0,0.0,0.0,0.0,0.0,0.0,0.0,0.0,0.0,0.0,0.0,0.0,0.0,0.0,0.0,0.0,0.0,0.0,0.0,0.0,0.0,0.0,0.0,0.0,0.0,0.0,0.0,0.0,0.0,0.0,0.0,0.0,0.0,0.0,0.0,0.0,0.0,0.0,0.0,0.0,0.0,0.0,0.0,0.0,0.0,0.0,0.0,0.0,0.0,0.0,0.0,0.0,0.0,0.0,0.0,0.0,0.0,0.0,0.0,0.0,0.0,0.0,0.0,0.0,0.0,0.0,0.0,0.0,0.0,0.0,0.0,0.0,0.0,0.0,0.0,0.0,0.0,0.0,0.0,0.0,0.0,0.0,0.0,0.0,0.0,0.0,0.0,0.0,0.0,0.0,0.0,0.0,0.0,0.0,0.0,0.0,0.0,0.0,0.0,0.0,0.0,0.0,0.0,0.0,0.0,0.0,0.0,0.0,0.0,0.0,0.0,0.0,0.0,0.0,0.0,0.0,0.0,0.0,0.0,0.0,0.0,0.0,0.0,0.0,0.0,0.0,0.0,0.0,0.0,0.0,0.0,0.0,0.0,0.0,0.0,0.0,0.0,0.0,0.0,0.0,0.0,0.0,0.0,0.0,0.0,0.0,0.0,0.0,0.0,0.0,0.0,0.0,0.0,0.0,0.0,0.0,0.0,0.0,0.0,0.0,0.0,0.0,0.0,0.0,0.0,0.0,0.0,0.0,0.0,0.0,0.0,0.0,0.0,0.0,0.0,0.0,0.0,0.0,0.0,0.0,0.0,0.0,0.0,0.0,0.0,0.0,0.0,0.0,0.0,0.0,0.0,0.0,0.0,0.0,0.0,0.0,0.0,0.0,0.0,0.0,0.0,0.0,0.0,0.0,0.0,0.0,0.0,0.0,0.0,0.0,0.0,0.0,0.0,0.0,0.0,0.0,0.0,0.0,0.0,0.0,0.0,0.0,0.0,0.0,0.0,0.0,0.0,0.0,0.0,0.0,0.0,0.0,0.0,0.0,0.0,0.0,0.0,0.0,0.0,0.0,0.0,0.0,0.0,0.0,0.0,0.0,0.0,0.0,0.0,0.0,0.0,0.0,0.0,0.0,0.0,0.0,0.0,0.0,0.0,0.0,0.0,0.0,0.0,0.0,0.0,0.0,0.0,0.0,0.0,0.0,0.0,0.0,0.0,0.0,0.0,0.0,0.0,0.0,0.0,0.0,0.0,0.0,0.0,0.0,0.0,0.0,0.0,0.0,0.0,0.0,0.0,0.0,0.0,0.0,0.0,0.0,0.0,0.0,0.0,0.0,0.0,0.0,0.0,0.0,0.0,0.0,0.0,0.0,0.0,0.0,0.0,0.0,0.0,0.0,0.0,0.0,0.0,0.0,0.0,0.0,0.0,0.0,0.0,0.0,0.0,0.0,0.0,0.0,0.0,0.0,0.0,0.0,0.0,0.0,0.0,0.0,0.0,0.0,0.0,0.0,0.0,0.0,0.0,0.0,0.0,0.0,0.0,0.0,0.0,0.0,0.0,0.0,0.0,0.0,0.0,0.0,0.0,0.0,0.0,0.0,0.0,0.0,0.0,0.0,0.0,0.0,0.0,0.0,0.0,0.0,0.0,0.0,0.0,0.0,0.0,0.0,0.0,0.0,0.0,0.0,0.0,0.0,0.0,0.0,0.0,0.0,0.0,0.0,0.0,0.0,0.0,0.0,0.0,0.0,0.0,0.0,0.0,0.0,0.0,0.0,0.0,0.0,0.0,0.0,0.0,0.0,0.0,0.0,0.0,0.0,0.0,0.0,0.0,0.0,0.0,0.0,0.0,0.0,0.0,-0.5251,0.0,0.0,0.0,0.0,0.0,0.0,0.0,0.0,0.0,0.0,0.0,0.0,0.0,0.0,0.0,0.0,0.0,0.0,0.0,0.0,0.0,0.0,0.0,0.0,0.0,0.0,0.0,0.0,0.0,0.0,0.0,0.0,0.0,0.0,0.0,0.0,0.0,0.0,0.0,0.0,0.0,0.0,0.0,0.0,0.0,0.0,0.0,0.0,0.0,0.0,0.0,0.0,0.0,0.0,0.0,0.0,0.0,0.0,0.0,0.0,0.0,0.0,0.0,0.0,0.0,0.0,0.0,0.0,0.0,0.0,0.0,0.0,0.0,0.0,0.0,0.0,0.0,0.0,0.0,0.0,0.0,0.0,0.0,0.0,0.0,0.0,0.0,0.0,0.0,0.0,0.0,0.0,0.0,0.0,0.0,0.0,0.0,0.0,0.0,0.0,0.0,0.0,0.0,0.0,0.0,0.0,0.0,0.0,0.0,0.0,-0.5608,-0.5549,-0.5799,-0.5952,-0.5829,0.0,0.0,0.0,0.0,0.0,0.0,0.0,0.0,0.0,0.0,0.0,0.0,0.0,0.0,0.0,0.0,0.0,0.0,0.0,0.0,0.0,0.0,0.0,0.0,0.0,0.0,0.0,0.0,0.0,0.0,0.0,0.0,0.0,0.0,0.0,0.0,0.0,0.0,0.0,0.0,0.0,0.0,0.0,0.0,0.0,0.0,0.0,0.0,0.0,0.0,0.0,0.0,0.0,0.0,0.0,0.0,0.0,0.0,0.0,0.0,0.0,0.0,0.0,0.0,0.0,0.0,0.0,0.0,0.0,0.0,0.0,0.0,0.0,0.0,0.0,0.0,0.0,0.0,0.0,0.0,0.0,0.0,0.0,0.0,0.0,0.0,0.0,0.0,0.0,0.0,0.0,0.0,0.0,0.0,0.0,0.0,0.0,0.0,0.0,0.0,0.0,0.0,0.0,0.0,0.0,0.0,0.0,0.0,0.0,0.0,0.0,0.0,-0.656,-0.6699,-0.6491,0.0,0.0,0.0,0.0,0.0,0.0,0.0,0.0,0.0,0.0,0.0,0.0,0.0,0.0,0.0,0.0,0.0,0.0,0.0,0.0,0.0,0.0,0.0,0.0,0.0,0.0,0.0,0.0,0.0,0.0,0.0,0.0,0.0,0.0,0.0,0.0,0.0,0.0,0.0,0.0,0.0,0.0,0.0,0.0,0.0,0.0,0.0,0.0,0.0,0.0,0.0,0.0,0.0,0.0,0.0,0.0,0.0,0.0,0.0,0.0,0.0,0.0,0.0,0.0,0.0,0.0,0.0,0.0,0.0,0.0,0.0,0.0,0.0,0.0,0.0,0.0,0.0,0.0,0.0,0.0,0.0,0.0,0.0,0.0,0.0,0.0,0.0,0.0,0.0,0.0,0.0,0.0,0.0,0.0,0.0,0.0,0.0,0.0,0.0,0.0,0.0,0.0,0.0,0.0,0.0,0.0,0.0,0.0,0.0,0.0,-0.6546,-0.6964,-0.7193,0.0,-0.7377,0.0,0.0,0.0,0.0,0.0,0.0,0.0,0.0,0.0,0.0,0.0,0.0,0.0,0.0,0.0,0.0,0.0,0.0,0.0,0.0,0.0,0.0,0.0,0.0,0.0,0.0,0.0,0.0,0.0,0.0,0.0,0.0,0.0,0.0,0.0,0.0,0.0,0.0,0.0,0.0,0.0,0.0,0.0,0.0,0.0,0.0,0.0,0.0,0.0,0.0,0.0,0.0,0.0,0.0,0.0,0.0,0.0,0.0,0.0,0.0,0.0,0.0,0.0,0.0,0.0,0.0,0.0,0.0,0.0,0.0,0.0,0.0,0.0,0.0,0.0,0.0,0.0,0.0,0.0,0.0,0.0,0.0,0.0,0.0,0.0,0.0,0.0,0.0,0.0,0.0,0.0,0.0,0.0,0.0,0.0,0.0,0.0,0.0,0.0,0.0,0.0,0.0,0.0,0.0,0.0,0.0,0.0,0.0,0.0,0.0,-0.7458,-0.7733,-0.7963,-0.8179,0.0,0.0,0.0,0.0,0.0,0.0,0.0,0.0,0.0,0.0,0.0,0.0,0.0,0.0,0.0,0.0,0.0,0.0,0.0,0.0,0.0,0.0,0.0,0.0,0.0,0.0,0.0,0.0,0.0,0.0,0.0,0.0,0.0,0.0,0.0,0.0,0.0,0.0,0.0,0.0,0.0,0.0,0.0,0.0,0.0,0.0,0.0,0.0,0.0,0.0,0.0,0.0,0.0,0.0,0.0,0.0,0.0,0.0,0.0,0.0,0.0,0.0,0.0,0.0,0.0,0.0,0.0,0.0,0.0,0.0,0.0,0.0,0.0,0.0,0.0,0.0,0.0,0.0,0.0,0.0,0.0,0.0,0.0,0.0,0.0,0.0,0.0,0.0,0.0,0.0,0.0,0.0,0.0,0.0,0.0,0.0,0.0,0.0,0.0,0.0,0.0,0.0,0.0,0.0,0.0,0.0,0.0,0.0,0.0,0.0,-0.7883,-0.8227,-0.8528,-0.8807,-0.8917,-0.9077,0.0,0.0,0.0,0.0,0.0,0.0,0.0,0.0,0.0,0.0,0.0,0.0,0.0,0.0,0.0,0.0,0.0,0.0,0.0,0.0,0.0,0.0,0.0,0.0,0.0,0.0,0.0,0.0,0.0,0.0,0.0,0.0,0.0,0.0,0.0,0.0,0.0,0.0,0.0,0.0,0.0,0.0,0.0,0.0,0.0,0.0,0.0,0.0,0.0,0.0,0.0,0.0,0.0,0.0,0.0,0.0,0.0,0.0,0.0,0.0,0.0,0.0,0.0,0.0,0.0,0.0,0.0,0.0,0.0,0.0,0.0,0.0,0.0,0.0,0.0,0.0,0.0,0.0,0.0,0.0,0.0,0.0,0.0,0.0,0.0,0.0,0.0,0.0,0.0,0.0,0.0,0.0,0.0,0.0,0.0,0.0,0.0,0.0,0.0,0.0,0.0,0.0,0.0,0.0,0.0,0.0,0.0,0.0,-0.8315,-0.8338,-0.8782,-0.9497,-0.9582,-0.947,0.0,0.0,0.0,0.0,0.0,0.0,0.0,0.0,0.0,0.0,0.0,0.0,0.0,0.0,0.0,0.0,0.0,0.0,0.0,0.0,0.0,0.0,0.0,0.0,0.0,0.0,0.0,0.0,0.0,0.0,0.0,0.0,0.0,0.0,0.0,0.0,0.0,0.0,0.0,0.0,0.0,0.0,0.0,0.0,0.0,0.0,0.0,0.0,0.0,0.0,0.0,0.0,0.0,0.0,0.0,0.0,0.0,0.0,0.0,0.0,0.0,0.0,0.0,0.0,0.0,0.0,0.0,0.0,0.0,0.0,0.0,0.0,0.0,0.0,0.0,0.0,0.0,0.0,0.0,0.0,0.0,0.0,0.0,0.0,0.0,0.0,0.0,0.0,0.0,0.0,0.0,0.0,0.0,0.0,0.0,0.0,0.0,0.0,0.0,0.0,0.0,0.0,0.0,0.0,0.0,0.0,0.0,0.0,0.0,-0.8739,-0.9221,-0.9538,-0.985,-0.9667,-0.9545,0.0,0.0,0.0,0.0,0.0,0.0,0.0,0.0,0.0,0.0,0.0,0.0,0.0,0.0,0.0,0.0,0.0,0.0,0.0,0.0,0.0,0.0,0.0,0.0,0.0,0.0,0.0,0.0,0.0,0.0,0.0,0.0,0.0,0.0,0.0,0.0,0.0,0.0,0.0,0.0,0.0,0.0,0.0,0.0,0.0,0.0,0.0,0.0,0.0,0.0,0.0,0.0,0.0,0.0,0.0,0.0,0.0,0.0,0.0,0.0,0.0,0.0,0.0,0.0,0.0,0.0,0.0,0.0,0.0,0.0,0.0,0.0,0.0,0.0,0.0,0.0,0.0,0.0,0.0,0.0,0.0,0.0,0.0,0.0,0.0,0.0,0.0,0.0,0.0,0.0,0.0,0.0,0.0,0.0,0.0,0.0,0.0,0.0,0.0,0.0,0.0,0.0,0.0,0.0,0.0,0.0,0.0,0.0,0.0,-0.9068,0.0,-1.0038,-1.0028,-0.9682,-0.9414,0.0,0.0,0.0,0.0,0.0,0.0,0.0,0.0,0.0,0.0,0.0,0.0,0.0,0.0,0.0,0.0,0.0,0.0,0.0,0.0,0.0,0.0,0.0,0.0,0.0,0.0,0.0,0.0,0.0,0.0,0.0,0.0,0.0,0.0,0.0,0.0,0.0,0.0,0.0,0.0,0.0,0.0,0.0,0.0,0.0,0.0,0.0,0.0,0.0,0.0,0.0,0.0,0.0,0.0,0.0,0.0,0.0,0.0,0.0,0.0,0.0,0.0,0.0,0.0,0.0,0.0,0.0,0.0,0.0,0.0,0.0,0.0,0.0,0.0,0.0,0.0,0.0,0.0,0.0,0.0,0.0,0.0,0.0,0.0,0.0,0.0,0.0,0.0,0.0,0.0,0.0,0.0,0.0,0.0,0.0,0.0,0.0,0.0,0.0,0.0,0.0,0.0,0.0,0.0,0.0,0.0,0.0,0.0,-0.8916,-0.9322,-0.9828,-1.0052,-1.0033,-0.9647,-0.9316,0.0,0.0,0.0,0.0,0.0,0.0,0.0,0.0,0.0,0.0,0.0,0.0,0.0,0.0,0.0,0.0,0.0,0.0,0.0,0.0,0.0,0.0,0.0,0.0,0.0,0.0,0.0,0.0,0.0,0.0,0.0,0.0,0.0,0.0,0.0,0.0,0.0,0.0,0.0,0.0,0.0,0.0,0.0,0.0,0.0,0.0,0.0,0.0,0.0,0.0,0.0,0.0,0.0,0.0,0.0,0.0,0.0,0.0,0.0,0.0,0.0,0.0,0.0,0.0,0.0,0.0,0.0,0.0,0.0,0.0,0.0,0.0,0.0,0.0,0.0,0.0,0.0,0.0,0.0,0.0,0.0,0.0,0.0,0.0,0.0,0.0,0.0,0.0,0.0,0.0,0.0,0.0,0.0,0.0,0.0,0.0,0.0,0.0,0.0,0.0,0.0,0.0,0.0,0.0,0.0,0.0,0.0,0.0,0.0,-1.0289,-1.0738,-1.0967,-1.0952,-1.0529,-1.0078,0.0,0.0,0.0,0.0,0.0,0.0,0.0,0.0,0.0,0.0,0.0,0.0,0.0,0.0,0.0,0.0,0.0,0.0,0.0,0.0,0.0,0.0,0.0,0.0,0.0,0.0,0.0,0.0,0.0,0.0,0.0,0.0,0.0,0.0,0.0,0.0,0.0,0.0,0.0,0.0,0.0,0.0,0.0,0.0,0.0,0.0,0.0,0.0,0.0,0.0,0.0,0.0,0.0,0.0,0.0,0.0,0.0,0.0,0.0,0.0,0.0,0.0,0.0,0.0,0.0,0.0,0.0,0.0,0.0,0.0,0.0,0.0,0.0,0.0,0.0,0.0,0.0,0.0,0.0,0.0,0.0,0.0,0.0,0.0,0.0,0.0,0.0,0.0,0.0,0.0,0.0,0.0,0.0,0.0,0.0,0.0,0.0,0.0,0.0,0.0,0.0,0.0,0.0,0.0,0.0,0.0,0.0,0.0,0.0,-1.1844,-1.2173,-1.2159,-1.1782,-1.1397,-1.0689,-0.9852,0.0,0.0,0.0,0.0,0.0,0.0,0.0,0.0,0.0,0.0,0.0,0.0,0.0,0.0,0.0,0.0,0.0,0.0,0.0,0.0,0.0,0.0,0.0,0.0,0.0,0.0,0.0,0.0,0.0,0.0,0.0,0.0,0.0,0.0,0.0,0.0,0.0,0.0,0.0,0.0,0.0,0.0,0.0,0.0,0.0,0.0,0.0,0.0,0.0,0.0,0.0,0.0,0.0,0.0,0.0,0.0,0.0,0.0,0.0,0.0,0.0,0.0,0.0,0.0,0.0,0.0,0.0,0.0,0.0,0.0,0.0,0.0,0.0,0.0,0.0,0.0,0.0,0.0,0.0,0.0,0.0,0.0,0.0,0.0,0.0,0.0,0.0,0.0,0.0,0.0,0.0,0.0,0.0,0.0,0.0,0.0,0.0,0.0,0.0,0.0,0.0,0.0,0.0,0.0,0.0,0.0,0.0,0.0,-1.4018,-1.4089,-1.3661,-1.2709,-1.2169,-1.131,0.0,0.0,0.0,0.0,0.0,0.0,0.0,0.0,0.0,0.0,0.0,0.0,0.0,0.0,0.0,0.0,0.0,0.0,0.0,0.0,0.0,0.0,0.0,0.0,0.0,0.0,0.0,0.0,0.0,0.0,0.0,0.0,0.0,0.0,0.0,0.0,0.0,0.0,0.0,0.0,0.0,0.0,0.0,0.0,0.0,0.0,0.0,0.0,0.0,0.0,0.0,0.0,0.0,0.0,0.0,0.0,0.0,0.0,0.0,0.0,0.0,0.0,0.0,0.0,0.0,0.0,0.0,0.0,0.0,0.0,0.0,0.0,0.0,0.0,0.0,0.0,0.0,0.0,0.0,0.0,0.0,0.0,0.0,0.0,0.0,0.0,0.0,0.0,0.0,0.0,0.0,0.0,0.0,0.0,0.0,0.0,0.0,0.0,0.0,0.0,0.0,0.0,0.0,0.0,0.0,0.0,0.0,0.0,0.0,-1.5192,-1.6019,-1.5777,-1.4507,-1.3597,-1.2546,0.0,0.0,0.0,0.0,0.0,0.0,0.0,0.0,0.0,0.0,0.0,0.0,0.0,0.0,0.0,0.0,0.0,0.0,0.0,0.0,0.0,0.0,0.0,0.0,0.0,0.0,0.0,0.0,0.0,0.0,0.0,0.0,0.0,0.0,0.0,0.0,0.0,0.0,0.0,0.0,0.0,0.0,0.0,0.0,0.0,0.0,0.0,0.0,0.0,0.0,0.0,0.0,0.0,0.0,0.0,0.0,0.0,0.0,0.0,0.0,0.0,0.0,0.0,0.0,0.0,0.0,0.0,0.0,0.0,0.0,0.0,0.0,0.0,0.0,0.0,0.0,0.0,0.0,0.0,0.0,0.0,0.0,0.0,0.0,0.0,0.0,0.0,0.0,0.0,0.0,0.0,0.0,0.0,0.0,0.0,0.0,0.0,0.0,0.0,0.0,0.0,0.0,0.0,0.0,0.0,0.0,0.0,0.0,-1.5246,-1.6116,-1.6865,-1.6914,-1.6037,-1.4817,-1.3623,0.0,0.0,0.0,0.0,0.0,0.0,0.0,0.0,0.0,0.0,0.0,0.0,0.0,0.0,0.0,0.0,0.0,0.0,0.0,0.0,0.0,0.0,0.0,0.0,0.0,0.0,0.0,0.0,0.0,0.0,0.0,0.0,0.0,0.0,0.0,0.0,0.0,0.0,0.0,0.0,0.0,0.0,0.0,0.0,0.0,0.0,0.0,0.0,0.0,0.0,0.0,0.0,0.0,0.0,0.0,0.0,0.0,0.0,0.0,0.0,0.0,0.0,0.0,0.0,0.0,0.0,0.0,0.0,0.0,0.0,0.0,0.0,0.0,0.0,0.0,0.0,0.0,0.0,0.0,0.0,0.0,0.0,0.0,0.0,0.0,0.0,0.0,0.0,0.0,0.0,0.0,0.0,0.0,0.0,0.0,0.0,0.0,0.0,0.0,0.0,0.0,0.0,0.0,0.0,0.0,0.0,0.0,0.0,-1.6632,-1.7045,-1.7286,-1.7426,-1.7426,-1.5889,-1.4405,0.0,0.0,0.0,0.0,0.0,0.0,0.0,0.0,0.0,0.0,0.0,0.0,0.0,0.0,0.0,0.0,0.0,0.0,0.0,0.0,0.0,0.0,0.0,0.0,0.0,0.0,0.0,0.0,0.0,0.0,0.0,0.0,0.0,0.0,0.0,0.0,0.0,0.0,0.0,0.0,0.0,0.0,0.0,0.0,0.0,0.0,0.0,0.0,0.0,0.0,0.0,0.0,0.0,0.0,0.0,0.0,0.0,0.0,0.0,0.0,0.0,0.0,0.0,0.0,0.0,0.0,0.0,0.0,0.0,0.0,0.0,0.0,0.0,0.0,0.0,0.0,0.0,0.0,0.0,0.0,0.0,0.0,0.0,0.0,0.0,0.0,0.0,0.0,0.0,0.0,0.0,0.0,0.0,0.0,0.0,0.0,0.0,0.0,0.0,0.0,0.0,0.0,0.0,0.0,0.0,0.0,0.0,0.0,-1.8026,-1.9071,-1.8672,-1.8489,-1.8426,-1.6399,-1.5042,0.0,0.0,0.0,0.0,0.0,0.0,0.0,0.0,0.0,0.0,0.0,0.0,0.0,0.0,0.0,0.0,0.0,0.0,0.0,0.0,0.0,0.0,0.0,0.0,0.0,0.0,0.0,0.0,0.0,0.0,0.0,0.0,0.0,0.0,0.0,0.0,0.0,0.0,0.0,0.0,0.0,0.0,0.0,0.0,0.0,0.0,0.0,0.0,-2.6556,0.0,0.0,0.0,0.0,0.0,0.0,0.0,0.0,0.0,0.0,0.0,0.0,0.0,0.0,0.0,0.0,0.0,0.0,0.0,0.0,0.0,0.0,0.0,0.0,0.0,0.0,0.0,0.0,0.0,0.0,0.0,0.0,0.0,0.0,0.0,0.0,0.0,0.0,0.0,0.0,0.0,0.0,0.0,0.0,0.0,0.0,0.0,0.0,0.0,0.0,0.0,0.0,0.0,0.0,0.0,0.0,0.0,0.0,0.0,-1.8899,-2.0044,-1.9692,-1.9236,-1.8832,-1.781,-1.6676,0.0,0.0,0.0,0.0,0.0,0.0,0.0,0.0,0.0,0.0,0.0,0.0,0.0,0.0,0.0,0.0,0.0,0.0,0.0,0.0,0.0,0.0,0.0,0.0,0.0,0.0,0.0,0.0,0.0,0.0,0.0,0.0,0.0,0.0,0.0,0.0,0.0,0.0,0.0,0.0,0.0,0.0,0.0,0.0,0.0,0.0,0.0,0.0,0.0,0.0,0.0,0.0,0.0,0.0,0.0,0.0,0.0,0.0,0.0,0.0,0.0,0.0,0.0,0.0,0.0,0.0,0.0,0.0,0.0,0.0,0.0,0.0,0.0,0.0,0.0,0.0,0.0,0.0,0.0,0.0,0.0,0.0,0.0,0.0,0.0,0.0,0.0,0.0,0.0,0.0,0.0,0.0,0.0,0.0,0.0,0.0,0.0,0.0,0.0,0.0,0.0,0.0,0.0,0.0,0.0,0.0,0.0,-1.8946,-1.9782,-2.0727,-2.0526,-2.0044,-1.9281,-1.9331,-1.8434,-1.6514,0.0,0.0,0.0,0.0,0.0,0.0,0.0,0.0,0.0,0.0,0.0,0.0,0.0,0.0,0.0,0.0,0.0,0.0,0.0,0.0,0.0,0.0,0.0,0.0,0.0,0.0,0.0,0.0,0.0,0.0,0.0,0.0,0.0,0.0,0.0,0.0,0.0,0.0,-2.2273,-2.4376,0.0,0.0,0.0,0.0,0.0,0.0,0.0,0.0,-2.9955,0.0,0.0,0.0,0.0,0.0,0.0,0.0,0.0,0.0,0.0,0.0,0.0,0.0,0.0,0.0,0.0,0.0,0.0,0.0,0.0,0.0,0.0,0.0,0.0,0.0,0.0,0.0,0.0,0.0,0.0,0.0,0.0,0.0,0.0,0.0,0.0,0.0,0.0,0.0,0.0,0.0,0.0,0.0,0.0,0.0,0.0,0.0,0.0,0.0,0.0,0.0,0.0,0.0,0.0,0.0,0.0,-1.8982,-1.9898,-2.1117,-2.2562,-2.1836,-2.1365,-2.1158,-2.0013,-1.8996,-1.8337,0.0,0.0,0.0,0.0,0.0,0.0,0.0,0.0,0.0,0.0,0.0,0.0,0.0,0.0,0.0,0.0,0.0,0.0,0.0,0.0,0.0,0.0,0.0,0.0,0.0,0.0,0.0,0.0,0.0,0.0,0.0,0.0,0.0,0.0,0.0,0.0,0.0,0.0,0.0,-2.5875,-2.7465,0.0,0.0,0.0,0.0,0.0,0.0,0.0,0.0,-3.1506,0.0,0.0,0.0,0.0,0.0,0.0,0.0,0.0,0.0,0.0,0.0,0.0,0.0,0.0,0.0,0.0,0.0,0.0,0.0,0.0,0.0,0.0,0.0,0.0,0.0,0.0,0.0,0.0,0.0,0.0,0.0,0.0,0.0,0.0,0.0,0.0,0.0,0.0,0.0,0.0,0.0,0.0,0.0,0.0,0.0,0.0,0.0,0.0,0.0,0.0,0.0,0.0,0.0,0.0,0.0,-1.9329,-2.0643,-2.1893,-2.3018,-2.2687,-2.2199,-2.1762,-2.1107,-2.0128,0.0,0.0,0.0,0.0,0.0,0.0,0.0,0.0,0.0,0.0,0.0,0.0,0.0,0.0,0.0,0.0,0.0,0.0,0.0,0.0,0.0,0.0,0.0,0.0,0.0,0.0,0.0,0.0,0.0,0.0,0.0,0.0,0.0,0.0,0.0,0.0,0.0,0.0,0.0,0.0,-2.7232,-2.8615,-3.0106,0.0,0.0,0.0,0.0,0.0,0.0,-3.3167,-3.326,0.0,0.0,0.0,0.0,0.0,0.0,0.0,0.0,0.0,0.0,0.0,0.0,0.0,0.0,0.0,0.0,0.0,0.0,0.0,0.0,0.0,0.0,0.0,0.0,0.0,0.0,0.0,0.0,0.0,0.0,0.0,0.0,0.0,0.0,0.0,0.0,0.0,0.0,0.0,0.0,0.0,0.0,0.0,0.0,0.0,0.0,0.0,0.0,0.0,0.0,0.0,0.0,0.0,0.0,0.0,-1.9487,-2.1089,-2.2265,-2.3028,-2.3144,-2.2698,-2.1992,-2.2045,-2.0997,0.0,0.0,0.0,0.0,0.0,0.0,0.0,0.0,0.0,0.0,0.0,0.0,0.0,0.0,0.0,0.0,0.0,0.0,0.0,0.0,0.0,0.0,0.0,0.0,0.0,0.0,0.0,0.0,0.0,0.0,0.0,0.0,0.0,0.0,0.0,0.0,0.0,0.0,0.0,0.0,0.0,-2.9921,-3.161,-3.2416,0.0,0.0,0.0,0.0,-3.4841,-3.4705,0.0,0.0,0.0,0.0,0.0,0.0,0.0,0.0,0.0,0.0,0.0,0.0,0.0,0.0,0.0,0.0,0.0,0.0,0.0,0.0,0.0,0.0,0.0,0.0,0.0,0.0,0.0,0.0,0.0,0.0,0.0,0.0,0.0,0.0,0.0,0.0,0.0,0.0,0.0,0.0,0.0,0.0,0.0,0.0,0.0,0.0,0.0,0.0,0.0,0.0,0.0,0.0,0.0,0.0,0.0,0.0,-1.9487,-2.1089,-2.2265,-2.3028,-2.3144,-2.3038,-2.2911,-2.1911,-2.0948,0.0,0.0,0.0,0.0,0.0,0.0,0.0,0.0,0.0,0.0,0.0,0.0,0.0,0.0,0.0,0.0,0.0,0.0,0.0,0.0,0.0,0.0,0.0,0.0,0.0,0.0,0.0,0.0,0.0,0.0,0.0,0.0,0.0,0.0,0.0,0.0,0.0,0.0,0.0,0.0,0.0,-3.1478,-3.2741,-3.3847,-3.4654,0.0,0.0,-3.5458,-3.5841,-3.5562,0.0,0.0,0.0,0.0,0.0,0.0,0.0,0.0,0.0,0.0,0.0,0.0,0.0,0.0,0.0,0.0,0.0,0.0,0.0,0.0,0.0,0.0,0.0,0.0,0.0,0.0,0.0,0.0,0.0,0.0,0.0,0.0,0.0,0.0,0.0,0.0,0.0,0.0,0.0,0.0,0.0,0.0,0.0,0.0,0.0,0.0,0.0,0.0,0.0,0.0,0.0,0.0,0.0,0.0,0.0,-1.9431,-1.9822,-2.1652,-2.2776,-2.3047,-2.3144,-2.3144,-2.3135,-2.1947,-2.1066,0.0,0.0,0.0,0.0,0.0,0.0,0.0,0.0,0.0,0.0,0.0,0.0,0.0,0.0,0.0,0.0,0.0,0.0,0.0,0.0,0.0,0.0,0.0,0.0,0.0,0.0,0.0,0.0,0.0,0.0,0.0,0.0,0.0,0.0,0.0,0.0,0.0,0.0,0.0,0.0,0.0,0.0,-3.2905,-3.4242,0.0,0.0,0.0,-3.6534,-3.6695,0.0,0.0,0.0,0.0,0.0,0.0,0.0,0.0,0.0,0.0,0.0,0.0,0.0,0.0,0.0,0.0,0.0,0.0,0.0,0.0,0.0,0.0,0.0,0.0,0.0,0.0,0.0,0.0,0.0,0.0,0.0,0.0,0.0,0.0,0.0,0.0,0.0,0.0,0.0,0.0,0.0,0.0,0.0,0.0,0.0,0.0,0.0,0.0,0.0,0.0,0.0,0.0,0.0,0.0,0.0,0.0,0.0,-2.0196,-2.2087,-2.3144,-2.3144,-2.3144,-2.3135,-2.3212,-2.2223,0.0,0.0,0.0,0.0,0.0,0.0,0.0,0.0,0.0,0.0,0.0,0.0,0.0,0.0,0.0,0.0,0.0,0.0,0.0,0.0,0.0,0.0,0.0,0.0,0.0,0.0,0.0,-2.242,0.0,0.0,0.0,0.0,0.0,0.0,0.0,0.0,0.0,0.0,0.0,0.0,0.0,0.0,-3.2817,-3.3738,-3.5037,-3.6021,0.0,0.0,-3.743,-3.7572,-3.7288,-3.7148,0.0,0.0,0.0,0.0,0.0,0.0,0.0,0.0,0.0,0.0,0.0,0.0,0.0,0.0,0.0,0.0,0.0,0.0,0.0,0.0,0.0,0.0,0.0,0.0,0.0,0.0,0.0,0.0,0.0,0.0,0.0,0.0,0.0,0.0,0.0,0.0,0.0,0.0,0.0,0.0,0.0,0.0,0.0,0.0,0.0,0.0,0.0,0.0,0.0,0.0,0.0,0.0,0.0,0.0,0.0,-2.0625,-2.2266,-2.3135,-2.3144,-2.3144,-2.3232,-2.3493,-2.2761,-2.2041,0.0,0.0,0.0,0.0,0.0,0.0,0.0,0.0,0.0,0.0,0.0,0.0,0.0,0.0,0.0,0.0,0.0,0.0,0.0,0.0,0.0,0.0,0.0,0.0,0.0,0.0,0.0,0.0,0.0,0.0,0.0,0.0,0.0,0.0,0.0,0.0,0.0,0.0,0.0,0.0,0.0,-3.4415,-3.5947,-3.6887,-3.7507,0.0,0.0,-3.7953,-3.8599,-3.8352,-3.8136,-3.8303,0.0,0.0,0.0,0.0,0.0,0.0,0.0,0.0,0.0,0.0,0.0,0.0,0.0,0.0,0.0,0.0,0.0,0.0,0.0,0.0,0.0,0.0,0.0,0.0,0.0,0.0,0.0,0.0,0.0,0.0,0.0,0.0,0.0,0.0,0.0,0.0,0.0,0.0,0.0,0.0,0.0,0.0,0.0,0.0,0.0,0.0,0.0,0.0,0.0,0.0,0.0,0.0,0.0,-2.1078,-2.0741,-2.2842,-2.3647,-2.3144,-2.3144,-2.3222,-2.3474,-2.2972,-2.2478,0.0,0.0,0.0,0.0,0.0,0.0,0.0,0.0,0.0,0.0,0.0,0.0,0.0,0.0,0.0,0.0,0.0,0.0,0.0,0.0,0.0,0.0,0.0,0.0,0.0,0.0,0.0,0.0,-2.8527,-2.8081,-2.8192,0.0,0.0,0.0,0.0,0.0,0.0,0.0,0.0,0.0,0.0,-3.5816,-3.6106,-3.6797,0.0,0.0,-3.8097,-3.8407,-3.8903,-3.9091,-3.9181,-3.9152,-3.9514,0.0,0.0,0.0,0.0,0.0,0.0,0.0,0.0,0.0,0.0,0.0,0.0,0.0,0.0,0.0,0.0,0.0,0.0,0.0,0.0,0.0,0.0,0.0,0.0,0.0,0.0,0.0,0.0,0.0,0.0,0.0,0.0,0.0,0.0,0.0,0.0,0.0,0.0,0.0,0.0,0.0,0.0,0.0,0.0,0.0,0.0,0.0,0.0,0.0,0.0,0.0,0.0,-2.1484,-2.107,-2.3217,-2.3951,-2.3275,-2.324,-2.3309,-2.3551,-2.3368,-2.3102,0.0,0.0,0.0,0.0,0.0,0.0,0.0,0.0,0.0,0.0,0.0,0.0,0.0,0.0,0.0,0.0,0.0,0.0,0.0,0.0,0.0,0.0,0.0,0.0,0.0,0.0,0.0,0.0,-3.0601,-2.9754,-2.9366,0.0,0.0,0.0,0.0,0.0,0.0,0.0,0.0,0.0,0.0,-3.6767,-3.6769,-3.7238,-3.772,-3.8154,-3.8487,-3.8933,-3.9626,-3.9816,-3.9977,-4.0182,0.0,0.0,0.0,0.0,0.0,0.0,0.0,0.0,0.0,0.0,0.0,0.0,0.0,0.0,0.0,0.0,0.0,0.0,0.0,0.0,0.0,0.0,0.0,0.0,0.0,0.0,0.0,0.0,0.0,0.0,-1.9152,0.0,0.0,0.0,0.0,0.0,0.0,0.0,0.0,0.0,0.0,0.0,0.0,0.0,0.0,0.0,0.0,0.0,0.0,0.0,0.0,0.0,0.0,-2.1324,-2.1659,-2.3075,-2.3753,-2.369,-2.3609,-2.358,-2.3841,-2.4013,-2.3972,-2.3512,0.0,0.0,0.0,0.0,0.0,0.0,0.0,0.0,0.0,0.0,0.0,0.0,0.0,0.0,0.0,0.0,0.0,0.0,0.0,0.0,0.0,0.0,0.0,0.0,0.0,0.0,-3.1756,-3.1486,-3.1007,0.0,0.0,0.0,0.0,0.0,0.0,0.0,0.0,0.0,0.0,-3.7103,-3.7145,-3.8318,-3.8451,-3.8491,-3.8913,-3.9054,-3.957,-4.0881,-4.0554,-4.0444,0.0,0.0,0.0,0.0,0.0,0.0,0.0,0.0,0.0,0.0,0.0,0.0,0.0,0.0,0.0,0.0,0.0,0.0,0.0,0.0,0.0,0.0,0.0,0.0,0.0,0.0,0.0,-2.2708,-2.311,0.0,0.0,0.0,0.0,0.0,0.0,0.0,0.0,0.0,0.0,0.0,-2.4487,-2.4135,0.0,0.0,0.0,0.0,0.0,0.0,0.0,0.0,0.0,0.0,0.0,0.0,-2.2031,-2.1951,-2.3908,-2.4803,-2.4538,-2.4054,-2.4114,-2.468,-2.4925,-2.5228,-2.544,0.0,0.0,0.0,0.0,0.0,0.0,0.0,0.0,0.0,0.0,0.0,0.0,0.0,0.0,0.0,0.0,0.0,0.0,0.0,0.0,0.0,0.0,0.0,0.0,0.0,-3.3156,0.0,0.0,0.0,0.0,0.0,0.0,0.0,0.0,0.0,0.0,0.0,-3.8157,-3.7307,-3.7898,-3.8402,-3.8411,-3.8614,-3.8943,0.0,0.0,0.0,0.0,0.0,0.0,0.0,0.0,0.0,0.0,0.0,0.0,0.0,0.0,-4.176,-4.1682,-4.1693,-4.1732,-4.174,0.0,0.0,0.0,0.0,0.0,0.0,0.0,0.0,0.0,0.0,0.0,0.0,0.0,0.0,-2.5492,0.0,-2.5277,0.0,0.0,0.0,0.0,0.0,0.0,0.0,0.0,-2.5742,-2.5959,-2.6143,-2.5828,-2.5828,0.0,-2.5128,-2.4132,0.0,0.0,0.0,0.0,0.0,0.0,0.0,0.0,-2.2641,-2.2628,-2.4396,-2.5222,-2.4937,-2.4675,-2.4852,-2.5341,-2.5826,-2.6278,-2.6668,-2.5498,-2.4777,0.0,0.0,0.0,0.0,0.0,0.0,0.0,0.0,0.0,0.0,0.0,0.0,0.0,0.0,0.0,0.0,0.0,0.0,0.0,0.0,0.0,0.0,0.0,-3.5044,0.0,0.0,0.0,0.0,0.0,0.0,0.0,0.0,0.0,-3.6765,-3.8257,-3.8823,-3.7798,-3.8437,-3.8875,-3.8585,0.0,0.0,0.0,0.0,0.0,0.0,0.0,-4.2098,-4.2435,-4.3287,-4.405,-4.4413,-4.425,-4.4156,-4.4457,0.0,0.0,-4.3658,-4.3576,-4.358,-4.3567,-4.3554,-4.3546,-4.3593,-4.3528,-4.35,0.0,0.0,0.0,0.0,0.0,0.0,0.0,0.0,-2.874,-2.8493,0.0,-2.7947,0.0,0.0,0.0,0.0,0.0,-2.6684,0.0,0.0,-2.8206,-2.8105,-2.763,-2.8038,-2.8168,-2.8011,-2.7129,-2.6788,-2.6812,-2.4775,0.0,0.0,0.0,0.0,0.0,0.0,-2.3086,-2.3839,-2.4484,-2.4873,-2.4886,-2.5367,-2.571,-2.5766,-2.6644,-2.7139,-2.7209,-2.7011,-2.6745,-2.651,-2.5392,0.0,0.0,0.0,0.0,0.0,0.0,0.0,0.0,0.0,0.0,0.0,0.0,0.0,0.0,0.0,0.0,0.0,0.0,0.0,0.0,-3.65,0.0,0.0,0.0,0.0,0.0,0.0,0.0,0.0,0.0,0.0,-3.8071,-3.8168,-3.8384,-3.8974,0.0,0.0,0.0,0.0,-3.9632,-3.9943,-4.023,-4.0739,-4.1677,-4.2005,-4.248,-4.3428,0.0,0.0,-4.6122,-4.5545,-4.5207,-4.603,-4.6065,-4.5594,-4.398,-4.3778,-4.3743,-4.366,-4.3641,-4.3512,-4.3502,-4.3665,-4.3594,-3.3534,0.0,0.0,0.0,0.0,-3.1388,-3.1603,-3.2068,-3.133,-3.1246,-3.1604,-3.0543,0.0,0.0,0.0,0.0,0.0,0.0,-2.9232,-2.951,-2.9656,-2.9546,-2.9254,-2.9345,-2.9282,-2.9066,-2.8823,-2.8803,-2.8941,-2.8021,-2.6387,-2.4134,0.0,0.0,0.0,0.0,-2.4086,-2.459,-2.4967,-2.5421,-2.5938,-2.5639,-2.5977,-2.7054,-2.7117,-2.7753,-2.9192,-2.8603,-2.821,-2.8246,-2.8056,0.0,0.0,0.0,0.0,0.0,0.0,0.0,0.0,0.0,0.0,0.0,0.0,0.0,0.0,0.0,0.0,0.0,0.0,0.0,-3.8205,-3.7768,-3.7474,0.0,0.0,0.0,0.0,0.0,0.0,0.0,0.0,0.0,-3.8765,-3.8958,-3.8985,0.0,0.0,-3.9287,-3.9464,-3.9739,-3.9998,-4.0194,-4.0415,0.0,0.0,-4.2276,-4.3272,-4.3539,-4.488,-4.5975,-4.6187,-4.6008,-4.5878,-4.6119,-4.6119,-4.5886,-4.5398,-4.5297,-4.5273,-4.5228,-4.5189,-4.5196,-4.5177,-4.514,-4.5098,-3.6087,-3.4402,-3.4039,-3.3893,-3.3958,-3.3561,-3.3649,-3.4069,-3.3198,-3.2996,-3.3302,-3.2532,-3.2072,-3.182,-3.117,0.0,0.0,0.0,-3.0793,-3.1013,-3.0435,-3.0101,-3.0011,-3.004,-3.0025,-2.9875,-2.9889,-3.0025,-3.0222,-2.9463,-2.832,-2.6744,0.0,0.0,-2.5124,-2.4878,-2.4957,-2.5382,-2.5341,-2.5572,-2.6091,-2.6069,-2.6735,-2.8081,-2.7879,-2.8506,-2.9997,-2.9624,-2.9539,-3.0121,-2.9948,-2.9429,0.0,0.0,0.0,0.0,0.0,0.0,0.0,0.0,0.0,0.0,0.0,-3.0949,-3.1892,0.0,0.0,0.0,-3.7324,-3.9457,-3.9806,-3.9088,0.0,0.0,0.0,0.0,0.0,0.0,0.0,-3.9411,-3.97,-3.9852,-3.983,-3.9676,-3.9444,-3.9054,-3.9331,-3.9647,-3.9762,0.0,-4.0269,-4.0386,-4.0549,-4.0703,-4.0859,-4.2101,-4.3312,-4.4061,-4.5332,-4.6239,-4.6245,-4.6199,-4.6156,-4.6143,-4.6104,-4.6032,-4.5931,-4.5943,-4.5893,-4.5816,-4.5816,-4.5822,-4.583,-4.5794,-4.5734,-3.7772,-3.7416,-3.6446,-3.6195,-3.6312,-3.5569,-3.5397,-3.5548,-3.4576,-3.4103,-3.3971,-3.407,-3.3735,-3.3124,-3.2845,0.0,-3.314,-3.2228,-3.2023,-3.24,-3.0911,-3.024,-3.0254,-3.045,-3.0584,-3.0569,-3.0584,-3.0777,-3.097,-2.9837,-2.9373,-2.9566,-2.7976,-2.692,-2.6401,-2.5873,-2.5834,-2.6346,-2.5773,-2.5487,-2.566,-2.659,-2.7601,-2.875,-2.885,-2.924,-3.0075,-3.0126,-3.0683,-3.1842,-3.1343,-3.1198,-3.1735,0.0,0.0,0.0,0.0,0.0,0.0,0.0,0.0,0.0,0.0,0.0,0.0,0.0,0.0,0.0,-3.8475,0.0,-4.0896,-4.0337,0.0,0.0,0.0,-3.9589,-3.9405,-4.0086,-4.0617,-4.0766,0.0,0.0,-4.1017,-4.0314,-3.9752,-3.9469,-3.9642,-3.9848,-3.9933,-4.0194,-4.0427,-4.0506,-4.0674,-4.0849,-4.0988,-4.1779,-4.2919,-4.4477,-4.5558,-4.6,-4.6094,-4.6033,-4.6016,-4.6162,-4.6065,-4.5982,-4.5996,-4.5892,-4.578,-4.5722,-4.5706,-4.5693,-4.5693,-4.5659,-4.5622,-3.8504,-3.8198,-3.7826,-3.7377,-3.696,-3.6724,-3.6643,-3.6661,-3.6037,-3.5732,-3.5671,-3.4941,-3.4317,-3.3802,-3.3684,-3.3735,-3.3786,-3.3531,-3.3479,-3.3547,-3.2579,-3.2155,-3.2099,-3.1537,-3.1278,-3.1292,-3.1278,-3.1409,-3.1554,-3.0911,-3.0644,-3.0733,-2.9549,-2.8634,-2.8034,-2.7327,-2.7149,-2.7443,-2.6883,-2.6552,-2.644,-2.6979,-2.7394,-2.767,-2.8072,-2.9012,-3.0471,-3.0559,-3.1253,-3.2763,-3.3198,-3.3186,-3.2668,-3.2258,0.0,0.0,0.0,0.0,0.0,0.0,0.0,0.0,0.0,-3.5304,-3.6101,0.0,-3.7077,0.0,-4.0136,-4.1768,-4.0727,-4.0807,0.0,0.0,-4.1547,-4.1886,-4.1781,-4.1908,-4.2059,-4.2089,-4.1811,-4.1522,-4.1367,-4.039,-3.9677,-3.9684,-3.9937,-4.0101,-4.0139,-4.0283,-4.0462,-4.0674,-4.0768,-4.0849,-4.1025,-4.1769,-4.2756,-4.3821,-4.4192,-4.4518,-4.5133,-4.5162,-4.5327,-4.5945,-4.5988,-4.588,-4.593,-4.5898,-4.577,-4.577,-4.5697,-4.5622,-4.5622,-4.5622,-4.5603,-3.8873,-3.8683,-3.8433,-3.807,-3.7631,-3.7376,-3.7264,-3.7226,-3.6759,-3.6557,-3.6533,-3.5776,-3.5328,-3.5018,-3.4816,-3.4738,-3.4673,-3.448,-3.4366,-3.4333,-3.3547,-3.3145,-3.313,-3.2256,-3.2007,-3.2256,-3.2007,-3.2023,-3.2191,-3.1637,-3.1334,-3.1291,-3.0389,-2.9656,-2.8994,-2.8105,-2.7669,-2.7815,-2.7459,-2.7223,-2.7162,-2.7595,-2.788,-2.8014,-2.8324,-2.9158,-3.0325,-3.0565,-3.1281,-3.2647,-3.3249,-3.3506,-3.3333,-3.3201,-3.2752,0.0,0.0,0.0,0.0,0.0,0.0,0.0,0.0,0.0,0.0,0.0,-3.8574,-3.973,-4.1829,-4.2871,-4.2242,-4.2136,-4.2104,-4.2123,-4.2507,-4.2776,-4.2641,-4.2886,-4.3088,-4.3118,-4.2937,-4.2555,-4.192,-4.0704,-3.9827,-3.9746,-4.006,-4.025,-4.0212,-4.0399,-4.0655,-4.0773,-4.0859,-4.0921,-4.1039,-4.1807,-4.2552,-4.3021,-4.343,-4.3849,-4.4277,-4.4286,-4.4409,-4.4899,-4.4879,-4.4804,-4.4928,-4.4846,-4.4761,-4.4778,-4.471,-4.485,-4.5468,-4.5654,-4.5607,-3.9129,-3.8939,-3.8615,-3.8382,-3.8207,-3.7756,-3.7578,-3.7542,-3.7152,-3.6939,-3.686,-3.6516,-3.6343,-3.6259,-3.5871,-3.565,-3.5577,-3.5131,-3.488,-3.4833,-3.4053,-3.37,-3.3649,-3.2895,-3.2749,-3.3182,-3.2734,-3.2602,-3.2788,-3.2281,-3.1905,-3.1595,-3.094,-3.0329,-2.9752,-2.8712,-2.8063,-2.794,-2.7845,-2.7799,-2.7802,-2.8247,-2.8554,-2.8772,-2.8973,-2.932,-3.0095,-3.0432,-3.1093,-3.2205,-3.2591,-3.3117,-3.3909,-3.3767,-3.3607,0.0,-3.3436,0.0,0.0,0.0,0.0,0.0,0.0,0.0,0.0,-3.8193,-3.9732,-4.3168,-4.3561,-4.3763,-4.4138,-4.3612,-4.3195,-4.3077,-4.3137,-4.3139,-4.3063,-4.3595,-4.3916,-4.38,-4.4185,-4.3926,-4.2281,-4.0967,-3.9962,-3.976,-4.008,-4.0285,-4.0194,-4.0554,-4.0846,-4.0812,-4.0927,-4.1025,-4.1134,-4.1698,-4.2201,-4.2298,-4.277,-4.3395,-4.3483,-4.342,-4.3416,-4.364,-4.3637,-4.3538,-4.3653,-4.3568,-4.3496,-4.367,-4.3636,-4.3936,-4.4881,-4.5268,-4.5239,-3.9376,-3.9101,-3.8676,-3.8478,-3.8415,-3.8189,-3.8054,-3.8054,-3.7578,-3.719,-3.69,-3.6838,-3.6597,-3.6301,-3.6216,-3.5958,-3.5605,-3.547,-3.5441,-3.5321,-3.4593,-3.4169,-3.407,-3.3407,-3.3093,-3.3182,-3.3093,-3.2933,-3.2788,-3.268,-3.2477,-3.2216,-3.1595,-3.1248,-3.1116,0.0,0.0,0.0,-2.8298,-2.8248,-2.843,-2.8352,-2.8379,-2.8525,-2.8603,0.0,-3.0573,-3.0813,-3.1642,-3.3153,-3.3395,0.0,0.0,0.0,0.0,0.0,0.0,0.0,0.0,0.0,0.0,0.0,-3.8915,-3.9232,-3.8921,-3.9039,-4.0855,-4.484,-4.5316,-4.4824,-4.3631,-4.3801,-4.397,-4.3991,-4.4442,-4.4744,-4.4723,-4.4796,-4.4557,-4.3757,-4.4673,-4.4345,-4.1741,-4.0382,-3.9782,-3.9823,-4.0062,-4.021,-4.0172,-4.0549,-4.0815,-4.0859,-4.0968,-4.1,-4.1019,-4.1222,-4.1439,-4.1384,-4.1429,-4.187,-4.2419,-4.2485,-4.273,-4.331,-4.3421,-4.3337,-4.3537,-4.3492,-4.3337,-4.3557,-4.379,-4.3996,-4.3866,-4.384,-4.3802,-3.9446,0.0,-3.8942,-3.8707,0.0,-3.8419,-3.8071,-3.7631,-3.7753,-3.7721,-3.7559,-3.7283,-3.7094,-3.686,-3.6492,-3.6156,-3.5915,-3.5667,-3.5503,-3.5492,-3.4977,-3.4723,-3.461,-3.3951,-3.385,-3.4136,-3.3818,-3.3716,-3.3748,-3.3491,-3.3177,-3.2788,-3.2256,-3.1823,-3.148,-3.0528,-2.9671,-2.9044,-2.8906,-2.8919,-2.9085,-2.9324,-2.9373,-2.931,0.0,0.0,0.0,0.0,0.0,0.0,0.0,0.0,0.0,0.0,0.0,-3.448,-3.5068,-3.5579,-3.6035,-3.6728,-3.7684,-3.9008,-4.0191,-4.0381,-3.9342,-4.0061,-4.2039,-4.5418,-4.5825,-4.5428,-4.4523,-4.4675,-4.4801,-4.4729,-4.4995,-4.5201,-4.5163,-4.4758,-4.4276,-4.3869,-4.4026,-4.3383,-4.1351,-4.0231,-3.9658,-3.9731,-3.992,-4.0063,-4.01,-4.0501,-4.0867,-4.0926,-4.0976,-4.102,-4.105,-4.1072,-4.1097,-4.1108,-4.1114,-4.126,-4.164,-4.1651,-4.1789,-4.2261,-4.2254,-4.2235,-4.2356,-4.2311,-4.2247,-4.2388,-4.2533,-4.2549,-4.2333,-4.2651,-4.297,-3.9521,-3.9283,-3.921,-3.8942,-3.8554,-3.8394,-3.7726,-3.6834,0.0,0.0,0.0,-3.7379,-3.7167,-3.7041,-3.63,-3.597,-3.5803,-3.5355,-3.5105,-3.5043,-3.4798,-3.4705,-3.4642,-3.412,-3.4168,-3.4659,-3.4231,-3.4055,-3.4248,-3.3761,-3.3278,-3.2835,-3.2284,-3.1885,-3.1441,-3.0397,-2.9774,-2.9676,-2.9414,-2.938,-2.9602,-3.0205,-3.0447,-3.0158,-3.0266,-3.0326,-3.0355,-3.0642,-3.1029,-3.1435,-3.217,-3.2749,-3.3071,-3.385,-3.4529,-3.5055,-3.5722,-3.6374,-3.6978,-3.7537,-3.8614,-4.0289,-4.1386,-4.14,-3.9927,-4.1065,-4.2911,-4.5468,-4.5719,-4.5626,-4.5454,-4.5399,-4.5323,-4.514,-4.5094,-4.5014,-4.4824,-4.4192,-4.3637,-4.3357,-4.2898,-4.2143,-4.0965,-4.0118,-3.9614,-3.9626,-3.9785,-3.9943,-4.0063,-4.0487,-4.0858,-4.0935,-4.0988,-4.1018,-4.1064,-4.1091,-4.11,-4.1097,-4.1108,-4.1091,-4.1084,-4.1032,-4.1056,-4.1218,-4.1048,-4.1106,-4.1164,-4.1218,-4.107,-4.1169,-4.1098,-4.1056,-4.1155,-4.1754,-4.2263,-3.9778,-3.9527,-3.9309,-3.9045,-3.8778,-3.7851,-3.6924,-3.6001,-3.6091,-3.6164,-3.6146,-3.6063,-3.5813,-3.5437,-3.5027,-3.4592,-3.4157,-3.377,-3.3487,0.0,-3.3234,-3.3145,-3.3039,-3.3072,-3.3134,-3.3223,-3.3173,-3.3023,-3.2689,-3.227,-3.1822,-3.1394,-3.0933,-3.0929,-3.1382,-3.1283,-3.0919,-3.0375,-2.9662,-2.938,-2.9602,-3.0083,-3.0387,-3.0522,-3.0568,-3.0568,-3.0582,-3.0895,-3.1336,-3.1962,-3.2367,-3.3071,-3.4034,-3.4333,-3.4849,-3.5688,-3.595,-3.6498,-3.7376,-3.8148,-3.9608,-4.1801,-4.2477,-4.235,-4.1595,-4.1776,-4.2886,-4.5052,-4.5252,-4.5264,-4.5223,-4.5052,-4.4919,-4.4849,-4.4707,-4.4323,-4.3717,-4.3415,-4.2793,-4.155,-4.1782,-4.1475,-4.0183,-3.9708,-3.9602,-3.962,-3.9754,-4.0002,-4.0277,-4.0544,-4.0711,-4.0869,-4.0971,-4.0996,-4.1038,-4.1064,-4.1091,-4.1115,-4.1117,-4.1077,-4.1034,-4.1015,-4.0999,-4.0969,-4.0961,-4.0972,-4.1038,-4.1063,-4.1116,-4.1182,-4.1149,-4.1169,-4.1182,-4.139,-4.1443,-3.9171,-3.9313,-3.8798,-3.835,-3.7911,-3.6444,-3.5599,-3.5131,-3.4679,-3.5005,-3.5783,-3.5802,-3.5688,-3.5439,-3.4854,-3.4434,-3.4094,-3.3473,-3.3098,-3.2917,-3.2829,-3.2785,-3.2802,-3.2862,-3.2967,-3.3064,-3.3108,-3.3048,-3.29,-3.2177,-3.1709,-3.147,-3.0791,-3.0566,-3.0806,-3.0507,-3.0196,-2.9942,-2.9492,-2.938,-2.9602,-3.0144,-3.0507,-3.0582,-3.0642,-3.0628,-3.0702,-3.1263,-3.1694,-3.2089,-3.2949,-3.3678,-3.4151,-3.4659,-3.5148,-3.5705,-3.6249,-3.6764,-3.7339,-3.8384,-3.9749,-4.1442,-4.2221,-4.2811,-4.3256,-4.3152,-4.3561,-4.4594,-4.4725,-4.4763,-4.4853,-4.4776,-4.4676,-4.4602,-4.4156,-4.3707,-4.3275,-4.2366,-4.1597,-4.0929,-4.0659,-4.034,-3.969,-3.9633,-3.9608,-3.962,-3.9703,-3.9873,-4.0156,-4.0281,-4.0492,-4.0809,-4.0926,-4.0952,-4.0988,-4.1018,-4.1052,-4.105,-4.1076,-4.1085,-4.1048,-4.1051,-4.1053,-4.1015,-4.1012,-4.1027,-4.1064,-4.1074,-4.1104,-4.114,-4.1177,-4.1202,-4.1209,-4.1191,-4.119,-3.814,-3.8505,-3.7883,-3.7276,-3.6644,-3.5205,-3.4516,-3.428,-3.3683,-3.4099,-3.5168,-3.5258,-3.5276,-3.5164,-3.4411,-3.3965,-3.3763,-3.2988,-3.2536,-3.2417,-3.2347,-3.2303,-3.2467,-3.2424,-3.2536,-3.269,-3.2673,-3.2715,-3.2631,-3.1839,-3.1289,-3.107,-3.0479,-3.0197,-3.0145,-2.9841,-2.9544,-2.9305,-2.9356,-2.9393,-2.9588,-3.0266,-3.0642,-3.0642,-3.0642,-3.0642,-3.0762,-3.1507,-3.1987,-3.2281,-3.3439,-3.4151,-3.43,-3.4883,-3.5367,-3.5633,-3.6374,-3.7044,-3.7565,-3.86,-3.9674,-4.0677,-4.1556,-4.2701,-4.4123,-4.4186,-4.392,-4.3732,-4.3643,-4.3712,-4.3849,-4.3962,-4.3966,-4.3812,-4.3306,-4.2846,-4.2565,-4.1469,-4.06,-4.0465,-3.9858,-3.952,-3.9552,-3.9596,-3.962,-3.962,-3.962,-3.9703,-3.9857,-4.0002,-4.0245,-4.0578,-4.0789,-4.0859,-4.0926,-4.096,-4.0984,-4.0981,-4.1025,-4.1052,-4.1055,-4.1081,-4.1104,-4.1088,-4.1091,-4.1101,-4.1105,-4.1111,-4.1113,-4.1112,-4.1152,-4.1191,-4.1172,-4.1171,-4.1191,-3.677,-3.6647,-3.6473,-3.5891,-3.5115,-3.4715,-3.419,-3.3574,-3.3429,-3.3465,-3.3701,-3.3628,-3.3683,-3.3503,-3.2785,-3.2424,-3.2318,-3.146,-3.1122,-3.1122,-3.0933,-3.0949,-3.1156,-3.0983,-3.1015,-3.1244,-3.1221,-3.1148,-3.0892,-3.0201,-2.9496,-2.8885,-2.9246,-2.9504,-2.955,-2.9971,-2.9773,-2.871,-2.9197,-2.9534,-2.9656,-3.028,-3.0642,-3.0642,-3.0642,-3.0642,-3.0642,-3.1435,-3.2155,-3.2633,-3.3594,-3.4349,-3.4739,-3.5011,-3.5287,-3.5671,-3.6147,-3.7056,-3.8447,-3.8887,-3.9356,-4.0185,-4.0873,-4.2023,-4.3767,-4.4114,-4.3539,-4.2304,-4.1857,-4.1941,-4.2043,-4.2146,-4.2239,-4.2286,-4.2081,-4.1642,-4.1062,-4.0726,-4.0333,-3.9586,-3.9563,-3.957,-3.952,-3.9552,-3.962,-3.962,-3.962,-3.9656,-3.9832,-3.988,-3.9964,-4.0257,-4.0544,-4.0738,-4.0699,-4.084,-4.0952,-4.0976,-4.0993,-4.0994,-4.1011,-4.1067,-4.1096,-4.1081,-4.1117,-4.1108,-4.1108,-4.1114,-4.1099,-4.1107,-4.1128,-4.1167,-4.1128,-4.1108,-4.1149,-3.6062,-3.6176,-3.5661,-3.4877,-3.4066,-3.393,-3.3719,-3.3393,-3.3393,-3.3393,-3.3345,-3.3129,-3.3068,-3.2988,-3.2468,-3.2092,-3.177,-3.1218,-3.0912,-3.0773,-3.0749,-3.0733,-3.0773,-3.0749,-3.0773,-3.0935,-3.0935,-3.0757,-3.0293,-2.9661,-2.9013,-2.8475,-2.8688,-2.8812,-2.8827,-2.9061,-2.8798,-2.8057,-2.8596,-2.8776,-2.8601,-2.9459,-3.019,-3.0539,-3.0642,-3.0642,-3.0687,-3.145,-3.2139,-3.2725,-3.3578,-3.4349,-3.4899,-3.5041,-3.5211,-3.5526,-3.6207,-3.6898,-3.7567,-3.7854,-3.8399,-3.9317,-3.9626,-4.0591,-4.2359,-4.2662,-4.2013,-4.0473,-4.0129,-4.0502,-4.1473,-4.1698,-4.1745,-4.167,-4.1344,-4.0942,-4.0643,-4.0157,-3.9735,-3.9481,-3.9469,-3.952,-3.9546,-3.9577,-3.962,-3.962,-3.962,-3.9656,-3.9712,-3.9762,-3.9791,-3.9859,-4.0212,-4.0496,-4.0577,-4.0761,-4.0878,-4.0935,-4.0976,-4.0979,-4.0999,-4.1007,-4.1031,-4.105,-4.1076,-4.1109,-4.1109,-4.1101,-4.1111,-4.1097,-4.1097,-4.1138,-4.1119,-4.1119,-4.1121,-3.4869,-3.5078,-3.4527,-3.3912,-3.3334,-3.3316,-3.3286,-3.3238,-3.3238,-3.3196,-3.3086,-3.2731,-3.255,-3.2468,-3.2214,-3.1914,-3.162,-3.1196,-3.0935,-3.0773,-3.0773,-3.0773,-3.0749,-3.0692,-3.0634,-3.0675,-3.0692,-3.0351,-2.9848,-2.9273,-2.8732,-2.8444,-2.8411,-2.8411,-2.8411,-2.8411,-2.8052,-2.7482,-2.7886,-2.7933,-2.7669,-2.8441,-2.9421,-3.0219,-3.0321,-3.0393,-3.0628,-3.1407,-3.2099,-3.2671,-3.3563,-3.4284,-3.4851,-3.4994,-3.5135,-3.5407,-3.6139,-3.6597,-3.6713,-3.7009,-3.7527,-3.8213,-3.836,-3.896,-4.0065,-4.0683,-4.0267,-3.9111,-3.8823,-3.9485,-4.0632,-4.0942,-4.0989,-4.0933,-4.0467,-4.0197,-4.0141,-3.9618,-3.9365,-3.9373,-3.9418,-3.9451,-3.9571,-3.9614,-3.962,-3.962,-3.962,-3.962,-3.962,-3.9637,-3.9642,-3.9626,-3.9933,-4.0195,-4.0412,-4.0629,-4.0738,-4.0826,-4.0869,-4.0917,-4.0954,-4.0957,-4.0974,-4.102,-4.1045,-4.105,-4.1039,-4.1047,-4.1057,-4.1076,-4.1057,-4.1018,-4.1003,-4.1013,-4.1013,-3.2948,-3.2969,-3.2791,-3.2888,-3.3104,-3.3086,-3.2988,-3.2795,-3.2827,-3.2651,-3.2368,-3.2213,-3.1933,-3.1714,-3.164,-3.164,-3.1603,-3.1196,-3.0975,-3.0895,-3.0855,-3.0855,-3.0871,-3.0609,-3.0384,-3.0182,-2.9968,-2.9556,-2.8873,-2.8558,-2.8444,-2.8411,-2.8411,-2.8411,-2.8411,-2.8348,-2.7825,-2.6951,-2.7047,-2.7083,-2.6931,-2.7209,-2.8139,-2.9421,-2.9653,-2.9929,-3.0542,-3.1261,-3.1987,-3.2656,-3.3427,-3.4119,-3.4804,-3.4899,-3.5055,-3.5379,-3.5732,-3.6139,-3.6485,-3.6829,-3.7062,-3.7158,-3.7461,-3.7505,-3.7667,-3.863,-3.8925,-3.8241,-3.8165,-3.8483,-3.9153,-3.9453,-3.9417,-3.9426,-3.9296,-3.9259,-3.9222,-3.924,-3.9129,-3.9175,-3.9303,-3.9447,-3.9589,-3.9608,-3.9596,-3.9577,-3.9602,-3.962,-3.962,-3.9602,-3.9602,-3.9626,-3.9708,-3.9832,-4.0081,-4.0386,-4.0574,-4.0655,-4.0738,-4.0812,-4.0856,-4.0908,-4.0935,-4.0957,-4.0953,-4.0953,-4.0929,-4.0941,-4.0968,-4.0968,-4.0902,-4.0855,-4.0793,-4.0818,-4.0855,-3.2616,-3.2519,-3.2317,-3.2283,-3.2385,-3.2385,-3.2334,-3.2299,-3.2299,-3.2231,-3.2056,-3.1789,-3.1568,-3.1452,-3.1257,-3.1157,-3.1157,-3.1015,-3.0716,-3.041,-3.0326,-3.0284,-3.0156,-2.9793,-2.975,-2.9837,-2.9569,-2.9225,-2.8858,-2.8525,-2.8411,-2.8411,-2.8411,-2.8411,-2.8348,-2.8008,-2.7429,-2.6797,-2.664,-2.65,-2.6278,-2.6515,-2.7248,-2.832,-2.8811,-2.9116,-2.9363,-3.0345,-3.1323,-3.2086,-3.3153,-3.4068,-3.4787,-3.4899,-3.4947,-3.5055,-3.5391,-3.5749,-3.6097,-3.6468,-3.6788,-3.697,-3.7108,-3.7157,-3.7093,-3.7453,-3.7755,-3.7801,-3.7548,-3.7729,-3.8319,-3.8658,-3.8865,-3.9073,-3.9082,-3.9055,-3.9101,-3.9101,-3.9129,-3.9175,-3.9312,-3.9429,-3.9481,-3.9551,-3.9583,-3.9564,-3.9571,-3.9596,-3.962,-3.962,-3.962,-3.962,-3.9661,-3.9721,-3.981,-4.0158,-4.0441,-4.0496,-4.0568,-4.0629,-4.07,-4.0725,-4.0754,-4.0757,-4.078,-4.0781,-4.0759,-4.0759,-4.0798,-4.0828,-4.0779,-4.066,-4.0567,-4.0652,-4.0731,-3.2196,-3.2074,-3.1913,-3.186,-3.1896,-3.1896,-3.186,-3.1806,-3.1806,-3.175,-3.1603,-3.13,-3.1201,-3.1106,-3.074,-3.0568,-3.0551,-3.0593,-3.0326,-2.9777,-2.9717,-2.9689,-2.9528,-2.9273,-2.9166,-2.9241,-2.895,-2.8748,-2.8669,-2.8493,-2.8411,-2.8411,-2.8411,-2.8411,-2.8299,-2.7795,-2.7261,-2.673,-2.6336,-2.6082,-2.5948,-2.6096,-2.6551,-2.735,-2.7853,-2.8303,-2.8708,-2.9596,-3.0492,-3.1321,-3.2364,-3.329,-3.4093,-3.4419,-3.4535,-3.4598,-3.5078,-3.5498,-3.5749,-3.6216,-3.6626,-3.6811,-3.693,-3.6964,-3.6998,-3.698,-3.7164,-3.731,-3.722,-3.7273,-3.7769,-3.8132,-3.8392,-3.8688,-3.8778,-3.8778,-3.8778,-3.8766,-3.8892,-3.9128,-3.9239,-3.9301,-3.9373,-3.9488,-3.9539,-3.952,-3.9571,-3.962,-3.962,-3.962,-3.962,-3.962,-3.9631,-3.9661,-3.9712,-3.9937,-4.0139,-4.0229,-4.0422,-4.0504,-4.053,-4.0559,-4.0574,-4.0568,-4.0577,-4.0571,-4.0584,-4.0565,-4.0578,-4.061,-4.0623,-4.0524,-4.0494,-4.052,-4.0475,-3.1466,-3.1466,-3.1466,-3.147,-3.1528,-3.1511,-3.1511,-3.1266,-3.1304,-3.1106,-3.0821,-3.0716,-3.0634,-3.0551,-3.0054,-2.9793,-2.9793,-2.9892,-2.9701,-2.9194,-2.9194,-2.9164,-2.9074,-2.8982,-2.8732,-2.84,-2.8122,-2.8103,-2.822,-2.8348,-2.8396,-2.8411,-2.8411,-2.8411,-2.8411,-2.7745,-2.7195,-2.6692,-2.619,-2.5879,-2.5893,-2.5893,-2.6247,-2.6732,-2.691,-2.7432,-2.8562,-2.9068,-2.9627,-3.032,-3.1008,-3.1742,-3.2809,-3.3442,-3.3789,-3.3918,-3.4726,-3.5261,-3.5448,-3.5959,-3.6239,-3.6527,-3.6771,-3.6913,-3.6917,-3.6956,-3.7013,-3.7034,-3.7073,-3.7167,-3.7414,-3.7452,-3.7666,-3.8016,-3.8143,-3.8071,-3.8092,-3.8062,-3.8358,-3.8915,-3.9137,-3.9192,-3.9272,-3.9111,-3.907,-3.9171,-3.9258,-3.9239,-3.9188,-3.9188,-3.9451,-3.9432,-3.9169,-3.8968,-3.9312,-3.9665,-3.981,-3.9943,-4.0196,-4.0381,-4.0411,-4.0441,-4.0489,-4.0466,-4.0158,-4.0149,-3.9969,-3.995,-3.9903,-3.9941,-4.0101,-3.9964,-3.9615,-3.9454,-3.988,-3.0149,-3.0625,-3.0418,-3.0335,-3.0402,-3.0402,-3.0175,-2.9876,-3.0149,-3.0038,-2.975,-2.9984,-2.9897,-2.9617,-2.9393,-2.912,-2.881,-2.8857,-2.8748,-2.8607,-2.8544,-2.856,-2.8496,-2.8222,-2.7993,-2.786,-2.789,-2.789,-2.8039,-2.8201,-2.8299,-2.8396,-2.8411,-2.8411,-2.8348,-2.7479,-2.6834,-2.6625,-2.5742,-2.5397,-2.5592,-2.5798,-2.6111,-2.6418,-2.6659,-2.7012,-2.7414,-2.8198,-2.8974,-2.9627,-3.0579,-3.1534,-3.2338,-3.2821,-3.3027,-3.3061,-3.33,-3.3941,-3.4538,-3.4695,-3.5145,-3.5857,-3.6249,-3.6451,-3.6667,-3.6869,-3.6987,-3.6987,-3.697,-3.7048,-3.7038,-3.6617,-3.6844,-3.7943,-3.7594,-3.7232,-3.7163,-3.6834,-3.7408,-3.8737,-3.9074,-3.8696,-3.784,-3.7562,-3.7705,-3.7848,-3.7885,-3.7933,-3.7925,-3.8056,-3.785,-3.7868,-3.7868,-3.8094,-3.831,-3.8465,-3.858,-3.9113,-3.9638,-3.9967,-4.0062,-4.0114,-4.0204,-4.0027,-3.9739,-3.955,-3.9385,-3.9252,-3.9159,-3.8969,-3.885,-3.8546,-3.8129,-3.8357,-3.8891,-2.9393,-2.9821,-2.9617,-2.9544,-2.9528,-2.9528,-2.9409,-2.9166,-2.9393,-2.9409,-2.9212,-2.9393,-2.9393,-2.912,-2.8889,-2.8638,-2.8304,-2.8125,-2.8027,-2.8027,-2.8027,-2.8027,-2.8027,-2.776,-2.7625,-2.769,-2.779,-2.7905,-2.8054,-2.8137,-2.8299,-2.8348,-2.8186,-2.8073,-2.7974,-2.7034,-2.6375,-2.6283,-2.5495,-2.5145,-2.5481,-2.5743,-2.6042,-2.6297,-2.6592,-2.6779,-2.6861,-2.7489,-2.8106,-2.8897,-2.994,-3.089,-3.1536,-3.1984,-3.2299,-3.2348,-3.2564,-3.3001,-3.3534,-3.3584,-3.379,-3.4553,-3.5094,-3.5377,-3.5728,-3.6288,-3.6917,-3.665,-3.6207,-3.6164,-3.6313,-3.5808,-3.5878,-3.6648,-3.6342,-3.609,-3.6034,-3.5792,-3.5995,-3.7112,-3.7567,-3.6882,-3.5707,-3.5549,-3.6021,-3.643,-3.682,-3.6937,-3.7009,-3.7113,-3.7019,-3.7042,-3.7286,-3.7385,-3.7234,-3.7253,-3.7295,-3.809,-3.894,-3.9292,-3.9526,-3.9509,-3.9528,-3.9045,-3.868,-3.8621,-3.8473,-3.8263,-3.8112,-3.7882,-3.771,-3.7731,-3.7636,-3.7768,-3.8165,-2.8982,-2.9028,-2.9028,-2.9074,-2.9074,-2.9074,-2.8982,-2.8982,-2.9028,-2.8982,-2.8982,-2.8919,-2.8873,-2.8779,-2.8288,-2.8094,-2.8094,-2.773,-2.7509,-2.7509,-2.7458,-2.7444,-2.761,-2.761,-2.7675,-2.7725,-2.7675,-2.784,-2.7974,-2.7925,-2.8186,-2.8088,-2.768,-2.7464,-2.7261,-2.6404,-2.6002,-2.5879,-2.5342,-2.5131,-2.5439,-2.5743,-2.5988,-2.6244,-2.6606,-2.6794,-2.6808,-2.701,-2.7328,-2.7993,-2.9154,-2.9932,-3.0299,-3.1034,-3.1483,-3.1483,-3.2139,-3.2331,-3.2434,-3.2569,-3.2768,-3.2907,-3.3567,-3.4002,-3.4236,-3.5608,-3.6311,-3.5634,-3.4926,-3.473,-3.5223,-3.4868,-3.4579,-3.4547,-3.4711,-3.4728,-3.4603,-3.4765,-3.4882,-3.4809,-3.5094,-3.4925,-3.3063,-3.3508,-3.4451,-3.5487,-3.6091,-3.6159,-3.6286,-3.6242,-3.6705,-3.6672,-3.6344,-3.6245,-3.5973,-3.6105,-3.6166,-3.6535,-3.7555,-3.8269,-3.8698,-3.8724,-3.8747,-3.8232,-3.7696,-3.7639,-3.7521,-3.7292,-3.7043,-3.6814,-3.6854,-3.7122,-3.7158,-3.7063,-3.7063,-2.755,-2.7966,-2.8336,-2.8496,-2.848,-2.8496,-2.8319,-2.8091,-2.8352,-2.8271,-2.8076,-2.7947,-2.7735,-2.7363,-2.721,-2.7122,-2.7122,-2.6982,-2.693,-2.6878,-2.6443,-2.6864,-2.7458,-2.7575,-2.7575,-2.7575,-2.7203,-2.7152,-2.7327,-2.7071,-2.7004,-2.7159,-2.7056,-2.6886,-2.6797,-2.619,-2.5948,-2.5839,-2.5286,-2.5005,-2.5188,-2.5619,-2.5948,-2.6056,-2.6515,-2.6779,-2.6846,-2.7093,-2.7423,-2.7913,-2.8638,-2.9319,-2.9665,-3.0124,-3.0386,-3.0462,-3.0664,-3.1128,-3.145,-3.1504,-3.1733,-3.236,-3.2475,-3.2727,-3.2956,-3.4573,-3.4882,-3.4143,-3.3651,-3.3731,-3.3905,-3.3684,-3.336,-3.3125,-3.3476,-3.3634,-3.3266,-3.3055,-3.3106,-3.3053,-3.3278,-3.3022,-3.2777,-3.2675,-3.3201,-3.4,-3.443,-3.4587,-3.4869,-3.4962,-3.5237,-3.4934,-3.4686,-3.4723,-3.4767,-3.4926,-3.5035,-3.5096,-3.5946,-3.7024,-3.7435,-3.7711,-3.7774,-3.768,-3.6825,-3.6559,-3.6439,-3.6262,-3.6014,-3.5831,-3.5829,-3.5983,-3.5844,-3.5747,-3.5806,-2.6534,-2.6805,-2.7115,-2.7282,-2.7282,-2.7232,-2.7246,-2.724,-2.7195,-2.7246,-2.7122,-2.6886,-2.6625,-2.6336,-2.6336,-2.6351,-2.6336,-2.6351,-2.6336,-2.6297,-2.6,-2.6215,-2.6759,-2.7034,-2.71,-2.6811,-2.6496,-2.6496,-2.664,-2.6443,-2.6481,-2.664,-2.6481,-2.639,-2.6336,-2.5811,-2.5508,-2.5453,-2.5174,-2.5005,-2.5061,-2.5467,-2.5784,-2.5948,-2.6379,-2.6659,-2.6779,-2.7041,-2.7321,-2.7745,-2.8431,-2.8997,-2.9227,-2.9617,-2.9793,-2.9793,-2.9957,-3.0272,-3.0505,-3.0474,-3.0561,-3.104,-3.1189,-3.1399,-3.1697,-3.2739,-3.3045,-3.2807,-3.2217,-3.2269,-3.2703,-3.2581,-3.2337,-3.2191,-3.2492,-3.2686,-3.2389,-3.2476,-3.2423,-3.2406,-3.2388,-3.2422,-3.2411,-3.2423,-3.262,-3.3014,-3.3447,-3.3585,-3.3725,-3.368,-3.3805,-3.3876,-3.3947,-3.4138,-3.4282,-3.4402,-3.4513,-3.45,-3.4758,-3.5806,-3.6321,-3.6656,-3.651,-3.6403,-3.5853,-3.5513,-3.5477,-3.5381,-3.5173,-3.5021,-3.4908,-3.4907,-3.4944,-3.5018,-3.4981,-2.5618,-2.5618,-2.5728,-2.5783,-2.5892,-2.5837,-2.6215,-2.6443,-2.6162,-2.6215,-2.6404,-2.6014,-2.5797,-2.5728,-2.5742,-2.5742,-2.5742,-2.5742,-2.5632,-2.5632,-2.5577,-2.5742,-2.5687,-2.6322,-2.6336,-2.6014,-2.5783,-2.5906,-2.6054,-2.6122,-2.6229,-2.6215,-2.5974,-2.5839,-2.5715,-2.5286,-2.5061,-2.5061,-2.5061,-2.5005,-2.5061,-2.5355,-2.5633,-2.5893,-2.6258,-2.6539,-2.6727,-2.6832,-2.6989,-2.7299,-2.8238,-2.8622,-2.8811,-2.9348,-2.9572,-2.9617,-2.9677,-2.9798,-2.9798,-2.9717,-2.9579,-2.9788,-3.0035,-3.0069,-3.0307,-3.0858,-3.1267,-3.1537,-3.0528,-3.085,-3.1672,-3.1686,-3.1585,-3.1634,-3.18,-3.2018,-3.2232,-3.2371,-3.2406,-3.2406,-3.2406,-3.2406,-3.2405,-3.2403,-3.2466,-3.2651,-3.2925,-3.3063,-3.3196,-3.3314,-3.3504,-3.3716,-3.3788,-3.3868,-3.3931,-3.3983,-3.4053,-3.4104,-3.4166,-3.476,-3.5306,-3.5492,-3.5195,-3.4936,-3.494,-3.4846,-3.4717,-3.4567,-3.4489,-3.4553,-3.4636,-3.4574,-3.4532,-3.4655,-3.4695,-2.4372,-2.4443,-2.5425,-2.5783,-2.5783,-2.5783,-2.5837,-2.5892,-2.5783,-2.5728,-2.5851,-2.537,-2.516,-2.516,-2.516,-2.5174,-2.516,-2.516,-2.4935,-2.4549,-2.4991,-2.4821,-2.4821,-2.5467,-2.5851,-2.5687,-2.5314,-2.5314,-2.5467,-2.5314,-2.5104,-2.537,-2.5384,-2.5216,-2.5174,-2.5118,-2.5005,-2.5005,-2.5005,-2.5005,-2.5061,-2.53,-2.5592,-2.5893,-2.6379,-2.6659,-2.6779,-2.6794,-2.6832,-2.7041,-2.7437,-2.791,-2.8174,-2.8591,-2.8826,-2.8935,-2.9303,-2.956,-2.9576,-2.9531,-2.9531,-2.9518,-2.9418,-2.9296,-2.9343,-2.9512,-2.9758,-2.9958,-2.9913,-3.0318,-3.1079,-3.1173,-3.1213,-3.1389,-3.1504,-3.1617,-3.1746,-3.2107,-3.2336,-3.2389,-3.2423,-3.2406,-3.2406,-3.2422,-3.2422,-3.2457,-3.2523,-3.2672,-3.2784,-3.2957,-3.3154,-3.3408,-3.3559,-3.3615,-3.3671,-3.3726,-3.3788,-3.3815,-3.3868,-3.3913,-3.4451,-3.4643,-3.4433,-3.4351,-3.4349,-3.4232,-3.4189,-3.4265,-3.4288,-3.4334,-3.4379,-3.4334,-3.4311,-3.4379,-3.4379,-2.276,-2.282,-2.3722,-2.404,-2.4097,-2.4084,-2.42,-2.4372,-2.4142,-2.4443,-2.4741,-2.4381,-2.4292,-2.4563,-2.4563,-2.4549,-2.4549,-2.4563,-2.439,-2.4229,-2.4447,-2.439,-2.4229,-2.465,-2.5034,-2.5021,-2.4794,-2.4865,-2.4935,-2.4892,-2.4835,-2.5005,-2.5005,-2.5005,-2.5005,-2.5005,-2.5005,-2.5005,-2.5005,-2.5005,-2.5005,-2.5188,-2.5522,-2.5893,-2.6326,-2.6592,-2.6779,-2.6794,-2.6794,-2.6832,-2.7041,-2.7269,-2.7645,-2.8012,-2.8207,-2.8304,-2.8716,-2.909,-2.9198,-2.9305,-2.9396,-2.947,-2.9259,-2.9137,-2.9121,-2.9118,-2.9164,-2.938,-2.983,-3.034,-3.0692,-3.0773,-3.0878,-3.0998,-3.1196,-3.1252,-3.1329,-3.1671,-3.2106,-3.2283,-3.2424,-3.2389,-3.2389,-3.2336,-3.2371,-3.2388,-3.2301,-3.2386,-3.2488,-3.2619,-3.2798,-3.2988,-3.3208,-3.3345,-3.3422,-3.3491,-3.3559,-3.3587,-3.3615,-3.3615,-3.3826,-3.3863,-3.3817,-3.3868,-3.3954,-3.3868,-3.385,-3.3935,-3.3993,-3.3961,-3.3986,-3.4018,-3.4043,-3.3993,-3.3993,-2.1066,-2.1118,-2.1705,-2.1978,-2.1966,-2.2151,-2.2506,-2.2772,-2.2323,-2.293,-2.3441,-2.3122,-2.3267,-2.3662,-2.3734,-2.3793,-2.3793,-2.3923,-2.3852,-2.3852,-2.4112,-2.4171,-2.4171,-2.4229,-2.4274,-2.4247,-2.435,-2.4536,-2.4778,-2.4848,-2.4835,-2.4948,-2.5005,-2.5005,-2.5005,-2.5005,-2.5005,-2.5005,-2.5005,-2.5005,-2.5005,-2.5061,-2.5342,-2.5839,-2.619,-2.6525,-2.6712,-2.6794,-2.6794,-2.6794,-2.6794,-2.6989,-2.7284,-2.761,-2.7815,-2.7864,-2.8222,-2.8511,-2.8716,-2.8873,-2.9106,-2.9335,-2.9259,-2.9137,-2.9137,-2.9136,-2.9166,-2.946,-2.9899,-3.0402,-3.0492,-3.0526,-3.051,-3.0593,-3.0814,-3.0895,-3.0975,-3.1213,-3.1551,-3.2117,-3.2295,-3.2367,-3.2212,-3.2143,-3.2214,-3.2267,-3.2161,-3.2091,-3.2197,-3.2266,-3.2403,-3.2486,-3.2669,-3.2848,-3.2925,-3.3037,-3.3111,-3.328,-3.3298,-3.3375,-3.3375,-3.3491,-3.3577,-3.3605,-3.3615,-3.3559,-3.3559,-3.3625,-3.3652,-3.3577,-3.3643,-3.3762,-3.3707,-3.3633,-3.3643,-1.9781,-1.9922,-2.0991,-2.1444,-2.1506,-2.1904,-2.2027,-2.2224,-2.2027,-2.2163,-2.2408,-2.2347,-2.2347,-2.2482,-2.2482,-2.2482,-2.2725,-2.304,-2.328,-2.3352,-2.3662,-2.3923,-2.3865,-2.3896,-2.3975,-2.4028,-2.4151,-2.4509,-2.4775,-2.4848,-2.4953,-2.5016,-2.4946,-2.4959,-2.4962,-2.5005,-2.4865,-2.4851,-2.4878,-2.4835,-2.4921,-2.4991,-2.5286,-2.5839,-2.6082,-2.6404,-2.6712,-2.6779,-2.6794,-2.6794,-2.6794,-2.6832,-2.6989,-2.7269,-2.7473,-2.7575,-2.7845,-2.8076,-2.8125,-2.8415,-2.8574,-2.8716,-2.892,-2.9075,-2.9106,-2.9118,-2.921,-2.9576,-3.0016,-3.0396,-3.0264,-3.0401,-3.0468,-3.051,-3.0551,-3.0593,-3.0634,-3.0716,-3.0958,-3.153,-3.1943,-3.2176,-3.194,-3.1733,-3.1733,-3.1768,-3.1728,-3.1674,-3.1711,-3.1785,-3.1894,-3.1985,-3.2074,-3.2248,-3.2401,-3.2486,-3.2619,-3.2844,-3.2957,-3.3068,-3.3147,-3.3345,-3.3404,-3.3268,-3.3327,-3.3375,-3.3375,-3.3375,-3.3386,-3.3368,-3.3444,-3.352,-3.3415,-3.3339,-3.3415,-1.7988,-1.8113,-1.9312,-1.9846,-1.9912,-2.0106,-2.0375,-2.0643,-2.0632,-2.1037,-2.1428,-2.1616,-2.1803,-2.2039,-2.2101,-2.2101,-2.2175,-2.2421,-2.2592,-2.2713,-2.2907,-2.304,-2.3188,-2.3315,-2.3453,-2.3627,-2.4037,-2.4632,-2.4997,-2.5302,-2.5215,-2.5029,-2.4872,-2.4681,-2.4603,-2.435,-2.4456,-2.4543,-2.4469,-2.4425,-2.4657,-2.4824,-2.523,-2.5633,-2.5934,-2.6229,-2.6505,-2.6765,-2.6794,-2.6794,-2.6794,-2.6794,-2.6832,-2.6937,-2.7093,-2.7181,-2.7408,-2.766,-2.7695,-2.7978,-2.8207,-2.8222,-2.8559,-2.8764,-2.8858,-2.895,-2.9271,-2.9633,-2.9816,-3.0166,-3.0342,-3.0443,-3.0468,-3.0468,-3.0468,-3.0468,-3.0468,-3.0468,-3.0716,-3.0965,-3.1117,-3.1329,-3.1401,-3.1281,-3.1261,-3.1253,-3.1295,-3.1291,-3.1235,-3.1389,-3.1524,-3.1657,-3.1823,-3.2003,-3.2109,-3.2109,-3.2214,-3.2419,-3.2586,-3.2684,-3.2781,-3.2894,-3.2862,-3.2766,-3.288,-3.3006,-3.3099,-3.305,-3.3081,-3.3111,-3.3111,-3.3111,-3.3111,-3.3111,-3.3111,-1.6289,-1.6567,-1.7668,-1.823,-1.8395,-1.8542,-1.892,-1.9189,-1.9437,-2.0026,-2.0763,-2.0992,-2.1209,-2.1539,-2.1731,-2.1835,-2.1855,-2.1981,-2.1996,-2.1963,-2.227,-2.2294,-2.2414,-2.2687,-2.3075,-2.3341,-2.4221,-2.4747,-2.4991,-2.5458,-2.5441,-2.5014,-2.4545,-2.4288,-2.4119,-2.3872,-2.3929,-2.3916,-2.3839,-2.3826,-2.4191,-2.4486,-2.4878,-2.5188,-2.5439,-2.5658,-2.5873,-2.613,-2.6258,-2.6326,-2.6447,-2.6621,-2.6621,-2.6727,-2.6779,-2.6832,-2.7093,-2.7248,-2.7386,-2.761,-2.783,-2.7845,-2.8174,-2.8319,-2.8525,-2.8794,-2.9232,-2.9563,-2.9613,-2.9604,-2.9924,-3.0241,-3.0284,-3.0342,-3.0384,-3.0468,-3.0468,-3.0468,-3.0468,-3.0608,-3.0499,-3.0603,-3.0836,-3.0892,-3.0903,-3.0937,-3.0975,-3.0998,-3.0998,-3.1157,-3.1295,-3.147,-3.162,-3.1841,-3.1913,-3.1841,-3.1949,-3.2109,-3.2196,-3.2265,-3.2334,-3.2401,-3.2385,-3.2385,-3.2351,-3.2486,-3.2568,-3.2699,-3.2731,-3.2731,-3.2699,-3.2716,-3.2716,-3.2684,-3.2651,-1.5251,-1.5974,-1.6576,-1.7207,-1.7842,-1.8577,-1.8964,-1.9083,-1.9394,-1.9676,-2.005,-2.0414,-2.0443,-2.0341,-2.0711,-2.0953,-2.1118,-2.1504,-2.1594,-2.1475,-2.2069,-2.2427,-2.2703,-2.3287,-2.3105,-2.3301,-2.4414,-2.4847,-2.4947,-2.5205,-2.5063,-2.4641,-2.4451,-2.4166,-2.37,-2.3458,-2.3623,-2.3657,-2.3623,-2.3623,-2.3657,-2.38,-2.3975,-2.4221,-2.4483,-2.4747,-2.5061,-2.5299,-2.5412,-2.5439,-2.5784,-2.6002,-2.6071,-2.6515,-2.6727,-2.6794,-2.6846,-2.6899,-2.6989,-2.7218,-2.7423,-2.7509,-2.7795,-2.7913,-2.8189,-2.8568,-2.8996,-2.915,-2.914,-2.9121,-2.9271,-2.9556,-2.9793,-2.9984,-3.0113,-3.0284,-3.0384,-3.0113,-3.0156,-3.034,-3.03,-3.0377,-3.0543,-3.0543,-3.0559,-3.0593,-3.0609,-3.0651,-3.0757,-3.0958,-3.1157,-3.1295,-3.1372,-3.1562,-3.1637,-3.16,-3.1674,-3.1768,-3.1841,-3.186,-3.1932,-3.2003,-3.2162,-3.2144,-3.2074,-3.2003,-3.2127,-3.2231,-3.2299,-3.2334,-3.2334,-3.2334,-3.2351,-3.2283,-3.2179,-1.291,-1.4537,-1.5155,-1.5786,-1.6277,-1.718,-1.7812,-1.8326,-1.8962,-1.9413,-1.9703,-1.9981,-1.9981,-1.9887,-2.0053,-2.0154,-2.0362,-2.0946,-2.1054,-2.0926,-2.1419,-2.1823,-2.2026,-2.2306,-2.2425,-2.3271,-2.4026,-2.4612,-2.4856,-2.5252,-2.5388,-2.4595,-2.419,-2.3729,-2.3263,-2.2957,-2.2977,-2.3097,-2.3198,-2.3238,-2.3283,-2.3471,-2.3623,-2.3741,-2.4105,-2.4283,-2.45,-2.4818,-2.4962,-2.5116,-2.5578,-2.5893,-2.6056,-2.6447,-2.6794,-2.6794,-2.6794,-2.6794,-2.6832,-2.6989,-2.7041,-2.7144,-2.7408,-2.768,-2.7898,-2.8176,-2.8352,-2.8276,-2.8248,-2.8405,-2.8779,-2.9196,-2.9303,-2.9499,-2.9661,-2.975,-2.9793,-2.9705,-2.9649,-2.9895,-3.0124,-3.0114,-3.0162,-3.0241,-3.0351,-3.051,-3.0568,-3.0568,-3.0675,-3.0797,-3.1015,-3.1213,-3.1213,-3.1252,-3.1329,-3.1329,-3.1368,-3.1466,-3.1466,-3.1487,-3.1524,-3.1637,-3.1768,-3.1731,-3.1562,-3.16,-3.1694,-3.1823,-3.1967,-3.1967,-3.1967,-3.1967,-3.1932,-3.1731,-3.1674,-1.0883,-1.2755,-1.3704,-1.4514,-1.5149,-1.5989,-1.6681,-1.729,-1.8282,-1.892,-1.9274,-1.9525,-1.9757,-1.9959,-1.9999,-1.9969,-1.9935,-2.037,-2.0493,-2.0544,-2.0606,-2.0955,-2.1235,-2.1386,-2.1881,-2.2717,-2.3541,-2.4074,-2.4707,-2.525,-2.5351,-2.4628,-2.4067,-2.3579,-2.2971,-2.2567,-2.2482,-2.2699,-2.2714,-2.2702,-2.2812,-2.3065,-2.3173,-2.3352,-2.3577,-2.382,-2.3929,-2.4213,-2.4416,-2.4514,-2.5003,-2.5272,-2.5384,-2.6002,-2.6447,-2.6568,-2.6621,-2.6794,-2.6794,-2.6832,-2.6779,-2.6884,-2.7041,-2.7372,-2.7645,-2.7735,-2.774,-2.7719,-2.7727,-2.809,-2.8513,-2.8779,-2.8873,-2.8982,-2.9074,-2.9074,-2.912,-2.9166,-2.9257,-2.9457,-2.9627,-2.9736,-2.9835,-2.9957,-3.0156,-3.0426,-3.051,-3.0468,-3.051,-3.0576,-3.0617,-3.074,-3.0838,-3.0878,-3.0975,-3.1015,-3.1055,-3.1134,-3.1134,-3.119,-3.1291,-3.1329,-3.1389,-3.1252,-3.1151,-3.1252,-3.1466,-3.1524,-3.1582,-3.16,-3.16,-3.16,-3.1487,-3.1291,-3.1252,-0.9605,-1.0545,-1.2139,-1.3615,-1.5072,-1.584,-1.6111,-1.6403,-1.7502,-1.8082,-1.8355,-1.8919,-1.9869,-2.0535,-2.0197,-2.0061,-2.0312,-2.0396,-2.0206,-2.0096,-2.0239,-2.0515,-2.0741,-2.1135,-2.1573,-2.2327,-2.3012,-2.3508,-2.3982,-2.4659,-2.4811,-2.4494,-2.4001,-2.3472,-2.3023,-2.2527,-2.2271,-2.2372,-2.2357,-2.2296,-2.2321,-2.2371,-2.242,-2.242,-2.2543,-2.2628,-2.2822,-2.3173,-2.3378,-2.3475,-2.4144,-2.4478,-2.4765,-2.5425,-2.5879,-2.6042,-2.6286,-2.6447,-2.6486,-2.6674,-2.6794,-2.6794,-2.6899,-2.7018,-2.7292,-2.7284,-2.7358,-2.7539,-2.756,-2.762,-2.7929,-2.8076,-2.8304,-2.8448,-2.8559,-2.8701,-2.8748,-2.8795,-2.8935,-2.9074,-2.9121,-2.9092,-2.9121,-2.9178,-2.9629,-2.9908,-3.0054,-3.007,-3.0097,-3.0123,-3.0081,-3.0166,-3.0293,-3.0435,-3.0576,-3.0658,-3.0757,-3.0838,-3.0878,-3.0975,-3.1134,-3.1095,-3.1015,-3.0975,-3.0878,-3.1055,-3.1151,-3.114,-3.114,-3.1213,-3.1269,-3.1368,-3.1351,-3.1252,-3.119,-0.8763,-0.9687,-1.0536,-1.1808,-1.3512,-1.4794,-1.5506,-1.5777,-1.6716,-1.7407,-1.7794,-1.8301,-1.9045,-1.9756,-1.9835,-1.97,-1.9773,-2.0149,-2.008,-2.007,-2.0234,-2.0523,-2.0698,-2.0804,-2.1108,-2.1915,-2.2456,-2.2809,-2.335,-2.3841,-2.3772,-2.3601,-2.3706,-2.3454,-2.3043,-2.2423,-2.2171,-2.2185,-2.2197,-2.2197,-2.2197,-2.2197,-2.2197,-2.2197,-2.2297,-2.2494,-2.2726,-2.2848,-2.2957,-2.3185,-2.3721,-2.3956,-2.4131,-2.4908,-2.5258,-2.537,-2.5701,-2.5756,-2.5974,-2.634,-2.6779,-2.6846,-2.6846,-2.6966,-2.6995,-2.7093,-2.7233,-2.7335,-2.7482,-2.7569,-2.7675,-2.7745,-2.7894,-2.7929,-2.8027,-2.8238,-2.8319,-2.8367,-2.8367,-2.8415,-2.8367,-2.8238,-2.829,-2.8372,-2.8902,-2.939,-2.954,-2.9645,-2.9673,-2.9569,-2.948,-2.9629,-2.9761,-2.9892,-3.0038,-3.0267,-3.0493,-3.0535,-3.0559,-3.0658,-3.0757,-3.074,-3.0699,-3.0617,-3.0576,-3.0576,-3.0617,-3.0658,-3.0797,-3.1015,-3.1134,-3.123,-3.119,-3.119,-3.119,-0.7682,-0.8512,-0.9119,-1.0521,-1.2407,-1.3701,-1.4524,-1.5123,-1.5959,-1.6683,-1.7301,-1.7577,-1.8086,-1.8736,-1.8895,-1.9134,-1.9344,-1.9737,-1.9913,-1.9894,-1.9953,-2.0235,-2.0313,-2.0391,-2.0401,-2.1298,-2.1832,-2.2124,-2.2585,-2.2883,-2.3073,-2.3195,-2.3176,-2.29,-2.2496,-2.2135,-2.1865,-2.1913,-2.2123,-2.2197,-2.2197,-2.2197,-2.2197,-2.2197,-2.2309,-2.2432,-2.2629,-2.28,-2.2909,-2.3138,-2.3484,-2.3708,-2.4002,-2.4337,-2.4681,-2.4794,-2.4908,-2.4951,-2.53,-2.5825,-2.6621,-2.6779,-2.6846,-2.687,-2.6878,-2.699,-2.7071,-2.7386,-2.7503,-2.759,-2.7575,-2.766,-2.766,-2.7745,-2.7745,-2.7845,-2.786,-2.7845,-2.7795,-2.781,-2.7745,-2.7845,-2.7864,-2.8018,-2.8466,-2.8888,-2.8934,-2.9134,-2.9241,-2.9088,-2.8795,-2.8996,-2.9271,-2.9377,-2.9512,-2.9821,-3.0097,-3.014,-3.0182,-3.014,-3.0225,-3.0267,-3.0267,-3.0182,-3.014,-3.0097,-3.014,-3.0225,-3.0518,-3.0861,-3.0998,-3.119,-3.119,-3.119,-3.119,-0.6095,-0.7004,-0.8092,-0.9961,-1.204,-1.2584,-1.3203,-1.399,-1.4894,-1.5786,-1.6503,-1.6683,-1.718,-1.7827,-1.798,-1.8318,-1.8816,-1.9134,-1.9292,-1.9292,-1.946,-1.945,-1.945,-1.9529,-1.9854,-2.0089,-2.0692,-2.1375,-2.1832,-2.2285,-2.266,-2.2594,-2.2234,-2.1974,-2.1534,-2.127,-2.1151,-2.1227,-2.1776,-2.1925,-2.1925,-2.1862,-2.1862,-2.1999,-2.2061,-2.2247,-2.2629,-2.2739,-2.2909,-2.3138,-2.3185,-2.3305,-2.3365,-2.3826,-2.406,-2.4118,-2.4624,-2.4838,-2.5021,-2.5605,-2.6056,-2.6568,-2.6621,-2.6698,-2.6759,-2.6901,-2.71,-2.7431,-2.7563,-2.7584,-2.7604,-2.756,-2.7575,-2.756,-2.756,-2.756,-2.756,-2.756,-2.756,-2.756,-2.756,-2.761,-2.761,-2.7745,-2.8158,-2.8448,-2.8432,-2.8528,-2.8732,-2.8638,-2.8304,-2.84,-2.8685,-2.8842,-2.8982,-2.9438,-2.9705,-2.975,-2.975,-2.9617,-2.9705,-2.9793,-2.9793,-2.9766,-2.9705,-2.9661,-2.9705,-2.981,-3.0238,-3.0701,-3.1032,-3.119,-3.119,-3.119,-3.119,-0.5798,-0.7068,-0.7376,-0.8761,-1.0706,-1.1461,-1.2015,-1.2363,-1.3203,-1.4092,-1.4968,-1.5508,-1.6085,-1.6553,-1.6993,-1.7342,-1.7666,-1.8327,-1.8407,-1.8567,-1.8984,-1.9213,-1.9292,-1.9381,-1.9548,-1.9863,-2.0313,-2.0624,-2.1011,-2.1461,-2.1461,-2.1273,-2.1205,-2.0803,-2.0816,-2.0653,-2.044,-2.0473,-2.0688,-2.0828,-2.0816,-2.088,-2.1083,-2.1463,-2.16,-2.1975,-2.2555,-2.2665,-2.2836,-2.3078,-2.3125,-2.3125,-2.3125,-2.3484,-2.3484,-2.3484,-2.3754,-2.4002,-2.4234,-2.4694,-2.5203,-2.577,-2.6218,-2.6365,-2.6707,-2.6982,-2.7248,-2.7512,-2.7599,-2.7569,-2.7575,-2.7575,-2.7575,-2.7575,-2.756,-2.756,-2.756,-2.756,-2.756,-2.756,-2.756,-2.756,-2.756,-2.756,-2.7944,-2.8042,-2.8027,-2.7978,-2.8076,-2.8042,-2.7845,-2.7959,-2.8107,-2.8253,-2.8494,-2.8858,-2.9166,-2.9257,-2.9136,-2.8951,-2.909,-2.9319,-2.9198,-2.9059,-2.9182,-2.9257,-2.9227,-2.9366,-3.0057,-3.0516,-3.0726,-3.0935,-3.0975,-3.1055,-3.119,-0.4906,-0.6071,-0.6163,-0.7221,-0.8978,-1.0284,-1.0982,-1.1413,-1.2272,-1.2996,-1.3633,-1.4525,-1.5011,-1.5374,-1.5913,-1.6535,-1.669,-1.7269,-1.7917,-1.7997,-1.8567,-1.8975,-1.9222,-1.939,-1.9706,-1.9942,-2.0029,-2.0333,-2.0644,-2.0644,-2.0722,-2.0613,-2.0127,-2.0206,-2.0263,-2.0128,-1.9877,-1.9888,-2.0009,-2.0282,-2.0238,-2.0226,-2.0355,-2.0688,-2.1008,-2.1451,-2.2087,-2.2469,-2.2702,-2.2944,-2.3065,-2.3065,-2.3065,-2.3125,-2.3125,-2.3125,-2.3125,-2.3365,-2.3662,-2.378,-2.435,-2.509,-2.5439,-2.6004,-2.6615,-2.7006,-2.7284,-2.7476,-2.7548,-2.7539,-2.7509,-2.7524,-2.7357,-2.7357,-2.7306,-2.7306,-2.7509,-2.7458,-2.7458,-2.7458,-2.7458,-2.7509,-2.7509,-2.756,-2.771,-2.766,-2.761,-2.756,-2.7509,-2.756,-2.7625,-2.7725,-2.779,-2.7974,-2.8122,-2.8268,-2.8542,-2.8764,-2.8685,-2.8573,-2.8605,-2.8842,-2.8621,-2.8493,-2.87,-2.8842,-2.87,-2.892,-2.951,-2.9915,-3.0195,-3.0452,-3.0675,-3.0797,-3.0838,-0.3346,-0.4204,-0.4297,-0.5453,-0.7312,-0.9161,-1.0376,-1.1241,-1.2186,-1.2425,-1.2316,-1.3633,-1.4196,-1.4282,-1.5018,-1.5718,-1.6288,-1.6535,-1.7025,-1.7594,-1.7844,-1.8496,-1.9063,-1.939,-1.9539,-1.9942,-2.0264,-2.0342,-2.0576,-2.0576,-2.0576,-2.0498,-2.0215,-2.0127,-2.0015,-1.9839,-1.9565,-1.9359,-1.9416,-1.9596,-1.956,-1.977,-1.9846,-2.0042,-2.0355,-2.0805,-2.1376,-2.1815,-2.2322,-2.2702,-2.3005,-2.3065,-2.3078,-2.3125,-2.3125,-2.3125,-2.3125,-2.3138,-2.3198,-2.3245,-2.3484,-2.4234,-2.4624,-2.5548,-2.6258,-2.6637,-2.6862,-2.7045,-2.7151,-2.7284,-2.7342,-2.7086,-2.6878,-2.6826,-2.6826,-2.6982,-2.7255,-2.7306,-2.7306,-2.7291,-2.724,-2.724,-2.7137,-2.724,-2.7108,-2.7071,-2.6967,-2.7034,-2.7137,-2.756,-2.756,-2.7625,-2.7725,-2.779,-2.789,-2.7989,-2.8235,-2.8494,-2.8525,-2.8493,-2.8493,-2.8493,-2.8444,-2.8444,-2.8411,-2.8444,-2.8493,-2.8622,-2.8857,-2.9239,-2.9544,-2.9615,-2.9766,-3.0064,-3.014,-0.2942,-0.4297,-0.4297,-0.5364,-0.7139,-0.8468,-0.9432,-1.0376,-1.1327,-1.1666,-1.1655,-1.3392,-1.362,-1.3256,-1.4055,-1.4573,-1.5068,-1.5477,-1.5809,-1.6296,-1.7025,-1.744,-1.7925,-1.8576,-1.9054,-1.9529,-1.9854,-2.0255,-2.0489,-2.0566,-2.0566,-2.0518,-2.0304,-2.0119,-2.0,-1.9844,-1.9344,-1.8994,-1.8893,-1.8846,-1.8792,-1.8798,-1.8988,-1.932,-1.9639,-2.0215,-2.0794,-2.1187,-2.169,-2.2249,-2.2372,-2.2494,-2.3065,-2.3125,-2.3125,-2.3125,-2.3125,-2.3125,-2.3125,-2.3125,-2.3258,-2.3569,-2.3839,-2.4425,-2.5188,-2.5771,-2.6059,-2.6218,-2.6336,-2.6381,-2.6491,-2.639,-2.6283,-2.6336,-2.6283,-2.6336,-2.6549,-2.6654,-2.6654,-2.6654,-2.6654,-2.6529,-2.6491,-2.6453,-2.6332,-2.6308,-2.6375,-2.6443,-2.6616,-2.7034,-2.724,-2.7291,-2.7342,-2.7291,-2.7675,-2.7825,-2.8039,-2.8186,-2.8186,-2.8235,-2.8284,-2.8332,-2.8396,-2.8411,-2.8411,-2.8411,-2.8411,-2.8542,-2.8622,-2.8559,-2.8779,-2.8775,-2.8889,-2.9262,-2.9572,-0.242,-0.3317,-0.3676,-0.4654,-0.6077,-0.7408,-0.8376,-0.8982,-1.0202,-1.0809,-1.1084,-1.2363,-1.2784,-1.2681,-1.3209,-1.3822,-1.4257,-1.4657,-1.5151,-1.5718,-1.6131,-1.678,-1.7269,-1.7844,-1.8327,-1.8807,-1.9125,-1.945,-1.9923,-2.0167,-2.0177,-2.0566,-2.0323,-2.0178,-2.011,-2.0033,-1.9667,-1.9165,-1.8701,-1.8212,-1.8096,-1.8018,-1.8337,-1.8654,-1.9044,-1.9573,-2.0215,-2.0549,-2.1049,-2.1616,-2.1678,-2.2051,-2.2628,-2.2871,-2.3065,-2.3125,-2.3125,-2.3125,-2.3138,-2.321,-2.3271,-2.3403,-2.3522,-2.3943,-2.4231,-2.4633,-2.49,-2.5039,-2.5135,-2.5272,-2.5493,-2.5687,-2.5728,-2.5783,-2.5687,-2.5646,-2.5742,-2.5837,-2.5851,-2.592,-2.5809,-2.5671,-2.5588,-2.5562,-2.5658,-2.5918,-2.6,-2.6054,-2.6176,-2.639,-2.6549,-2.6602,-2.6654,-2.6759,-2.7137,-2.7408,-2.7473,-2.756,-2.7695,-2.7745,-2.7959,-2.8073,-2.8073,-2.8235,-2.8411,-2.8411,-2.8411,-2.8411,-2.8477,-2.8411,-2.8411,-2.8529,-2.8638,-2.8779,-2.9044,-0.1794,-0.1973,-0.2693,-0.3676,-0.4478,-0.6251,-0.7051,-0.7316,-0.889,-0.9868,-1.0309,-1.1073,-1.1746,-1.2163,-1.2699,-1.3392,-1.3913,-1.425,-1.4664,-1.5311,-1.5477,-1.5966,-1.6617,-1.7432,-1.7666,-1.7836,-1.8175,-1.8754,-1.9054,-1.9213,-1.9529,-2.0333,-1.9775,-1.9631,-2.009,-2.012,-1.9927,-1.9623,-1.9097,-1.8669,-1.8242,-1.8066,-1.8076,-1.8337,-1.8607,-1.8931,-1.9573,-1.9966,-2.0355,-2.0805,-2.1123,-2.1365,-2.2113,-2.275,-2.3005,-2.3125,-2.3125,-2.3125,-2.3138,-2.3198,-2.3343,-2.3475,-2.3713,-2.3878,-2.4066,-2.4121,-2.4336,-2.4436,-2.4579,-2.4774,-2.4966,-2.5061,-2.5075,-2.5281,-2.5404,-2.5497,-2.5704,-2.5693,-2.5597,-2.5627,-2.5574,-2.5324,-2.483,-2.4815,-2.4966,-2.5384,-2.5453,-2.5453,-2.5522,-2.5632,-2.5851,-2.5946,-2.6162,-2.6283,-2.6404,-2.663,-2.6736,-2.6826,-2.7004,-2.7261,-2.7414,-2.758,-2.7745,-2.8073,-2.8411,-2.8411,-2.8411,-2.8411,-2.8411,-2.8411,-2.8411,-2.8411,-2.8429,-2.851,-2.8605,-0.1256,-0.1973,-0.3315,-0.4121,-0.4387,-0.5542,-0.6428,-0.7139,-0.7492,-0.8288,-0.9174,-1.0467,-1.1322,-1.1488,-1.218,-1.2966,-1.3828,-1.3913,-1.4166,-1.458,-1.4817,-1.5228,-1.5621,-1.6511,-1.683,-1.7196,-1.7563,-1.8057,-1.8256,-1.8327,-1.8407,-1.8718,-1.8807,-1.9381,-1.9775,-1.9953,-2.0236,-2.0,-1.9687,-1.9107,-1.8643,-1.8203,-1.8076,-1.8279,-1.8539,-1.8674,-1.9131,-1.932,-1.9704,-2.0226,-2.0302,-2.0985,-2.2039,-2.2677,-2.3005,-2.3065,-2.3005,-2.3005,-2.3138,-2.3198,-2.3271,-2.3403,-2.3595,-2.3798,-2.3936,-2.3975,-2.404,-2.4084,-2.42,-2.4355,-2.4505,-2.4527,-2.4601,-2.4898,-2.5169,-2.5495,-2.5748,-2.5628,-2.5435,-2.5388,-2.5328,-2.4922,-2.435,-2.4231,-2.4368,-2.4478,-2.4434,-2.4492,-2.4549,-2.4721,-2.5258,-2.5412,-2.5742,-2.5906,-2.5879,-2.5962,-2.6139,-2.6244,-2.64,-2.6611,-2.6834,-2.7292,-2.7703,-2.8134,-2.8411,-2.8262,-2.8229,-2.8348,-2.8348,-2.8299,-2.8411,-2.8411,-2.8411,-2.8477,-2.8444,-0.0359,-0.1435,-0.3048,-0.3678,-0.3855,-0.4654,-0.5366,-0.5899,-0.6697,-0.7408,-0.8028,-0.9423,-1.0294,-1.0636,-1.1241,-1.2363,-1.3313,-1.3483,-1.3899,-1.4237,-1.4489,-1.4824,-1.522,-1.5779,-1.5959,-1.6319,-1.6992,-1.7392,-1.744,-1.7513,-1.7513,-1.7917,-1.8487,-1.8895,-1.9213,-2.006,-2.0372,-2.0225,-1.9973,-1.9564,-1.9072,-1.8723,-1.8389,-1.8446,-1.8549,-1.8751,-1.8875,-1.9065,-1.9264,-1.9715,-1.9977,-2.0291,-2.1112,-2.169,-2.2249,-2.2555,-2.2628,-2.2823,-2.3017,-2.3138,-2.321,-2.3403,-2.3641,-2.3916,-2.3962,-2.3956,-2.406,-2.4105,-2.4105,-2.4261,-2.4642,-2.4741,-2.503,-2.5366,-2.5485,-2.5656,-2.5761,-2.5722,-2.5643,-2.5577,-2.5279,-2.4559,-2.4128,-2.4164,-2.4236,-2.4261,-2.4112,-2.4125,-2.4125,-2.4125,-2.4549,-2.4865,-2.5203,-2.5147,-2.4948,-2.5215,-2.5647,-2.5743,-2.5797,-2.6139,-2.6547,-2.7161,-2.7669,-2.7889,-2.7981,-2.7814,-2.7799,-2.8117,-2.8069,-2.7845,-2.8122,-2.8411,-2.8427,-2.8473,-2.8442,0.0359,-0.0987,-0.2243,-0.2875,-0.3054,-0.3765,-0.421,-0.4654,-0.6166,-0.6962,-0.7319,-0.8296,-0.9082,-0.9685,-1.0028,-1.1154,-1.2186,-1.2869,-1.3457,-1.3971,-1.4566,-1.4824,-1.5082,-1.534,-1.5499,-1.5741,-1.6237,-1.6476,-1.655,-1.6542,-1.687,-1.7602,-1.7925,-1.8167,-1.9045,-1.9687,-2.0012,-2.0014,-1.9937,-1.9868,-1.958,-1.9256,-1.8884,-1.8682,-1.8714,-1.8875,-1.9065,-1.9131,-1.9131,-1.9396,-1.9791,-2.0172,-2.0398,-2.0962,-2.1404,-2.1779,-2.2002,-2.231,-2.2689,-2.2944,-2.3138,-2.3403,-2.3713,-2.3916,-2.3929,-2.404,-2.4158,-2.4387,-2.4387,-2.4504,-2.4943,-2.5145,-2.5458,-2.5824,-2.5916,-2.6046,-2.6059,-2.6073,-2.6033,-2.5994,-2.5454,-2.473,-2.46,-2.4567,-2.4283,-2.4288,-2.4204,-2.4151,-2.4138,-2.4125,-2.4332,-2.4447,-2.4549,-2.439,-2.4229,-2.4642,-2.5154,-2.5238,-2.5324,-2.5716,-2.6259,-2.7083,-2.7527,-2.7482,-2.7477,-2.7637,-2.7724,-2.8025,-2.7824,-2.7742,-2.8586,-2.9135,-2.8765,-2.8765,-2.8581,-0.0269,-0.1615,-0.1885,-0.2334,-0.2873,-0.3141,-0.3587,-0.4389,-0.5453,-0.634,-0.7143,-0.8116,-0.9082,-0.9854,-0.9854,-1.0631,-1.1494,-1.226,-1.2772,-1.3275,-1.4307,-1.4824,-1.5173,-1.534,-1.5431,-1.5506,-1.5665,-1.5673,-1.5906,-1.5824,-1.5748,-1.6079,-1.6862,-1.7098,-1.7342,-1.8149,-1.8948,-1.9228,-1.9584,-1.9484,-1.9691,-1.9413,-1.9093,-1.8972,-1.8866,-1.8946,-1.9065,-1.9065,-1.9131,-1.9341,-1.9747,-1.9998,-2.015,-2.0289,-2.0737,-2.1101,-2.1313,-2.1678,-2.2051,-2.231,-2.2506,-2.321,-2.3501,-2.3906,-2.4043,-2.4318,-2.4671,-2.5402,-2.5428,-2.545,-2.57,-2.5641,-2.5903,-2.6425,-2.67,-2.6896,-2.7013,-2.6987,-2.6935,-2.6947,-2.6801,-2.6498,-2.6463,-2.6034,-2.5192,-2.5066,-2.4805,-2.4726,-2.4452,-2.4308,-2.4217,-2.4269,-2.4308,-2.4125,-2.4125,-2.4302,-2.4718,-2.4771,-2.5074,-2.5823,-2.653,-2.7225,-2.7513,-2.7315,-2.7597,-2.7868,-2.7977,-2.7715,-2.8257,-2.839,-2.947,-2.9961,-2.9469,-2.9196,-2.9119]}]]